     2.11           OBSERVATION DATA    G (GPS)             RINEX VERSION / TYPE
teqc 2010Oct21 OPUS Account 20111028 16:17:48UTC            PGM / RUN BY / DATE
A 1519                                                      MARKER NAME
2063                                                        MARKER NUMBER
CSMIDDLETON NGS                                             OBSERVER / AGENCY
0220390624 TRIMBLE R7 2.32                                  REC # / TYPE / VERS
60125046 TRM41249.00 NONE                                   ANT # / TYPE
  -733469.9146 -5586173.3935  2979490.6592                  APPROX POSITION XYZ
        2.0040        0.0000        0.0000                  ANTENNA: DELTA H/E/N
     1     1                                                WAVELENGTH FACT L1/2
     5    L1    L2    C1    P1    P2                        # / TYPES OF OBSERV
    15                                                      LEAP SECONDS
  2011     8    24     0     0   30.0000000     GPS         TIME OF FIRST OBS
                                                            END OF HEADER
 11  8 24  0  0 30.0000000  0  9G17G10G09G12G04G05G02G25G30
 -99154051.56657 -77212505.23854  23144273.5784                   23144273.2504
 -53053277.73857 -41228661.14555  20918714.8984                   20918713.6254
 -44896309.62557 -32820991.25053  23586075.7974                   23586077.8364
 -36146214.93757 -27938959.73056  21604714.1724                   21604712.8524
 -79413302.49258 -61829298.57455  21649220.3444                   21649220.2894
 -27634888.63757 -21401186.79755  22115130.9304                   22115130.4064
 -62449349.50858 -48606482.13756  20681826.6804                   20681823.4534
  -3370580.91056  -2277900.24653  24361455.1724                   24361457.1804
   -686274.09456   -379141.45352  24283550.4614                   24283551.4304
 11  8 24  0  1  0.0000000  0  9G17G10G09G12G04G05G02G25G30
 -99197715.66047 -77246529.26644  23135964.6804                   23135964.7114
 -53150522.34047 -41304436.12545  20900209.6804                   20900209.0944
 -44914559.55947 -32835212.09444  23582603.5084                   23582606.1254
 -36304510.08247 -28062306.54745  21574592.1564                   21574590.5354
 -79431914.15647 -61843801.20745  21645678.9844                   21645678.2034
 -27820587.39847 -21545887.01245  22079793.0554                   22079793.0904
 -62545670.91048 -48681537.75046  20663497.4454                   20663494.1604
  -3565719.25046  -2429955.99643  24324321.3594                   24324324.1254
   -883515.31246   -532835.84842  24246016.4694                   24246018.3984
 11  8 24  0  1 30.0000000  0  9G17G10G09G12G04G05G02G25G30
 -99241092.73047 -77280329.66844  23127709.9614                   23127710.5664
 -53247004.16847 -41379616.74645  20881849.8754                   20881848.9964
 -44932483.64847 -32849179.01244  23579192.8364                   23579195.0554
 -36462263.73047 -28185231.43045  21544572.2344                   21544571.2114
 -79450245.78147 -61858085.62145  21642190.6334                   21642190.0124
 -28005864.44947 -21690258.62545  22044535.7344                   22044536.6094
 -62641565.63747 -48756260.89146  20645249.3204                   20645245.6644
  -3760572.35546  -2581789.48843  24287241.2504                   24287244.9024
  -1080414.55946   -686263.80542  24208548.5944                   24208549.5394
 11  8 24  0  2  0.0000000  0  9G17G10G09G12G04G05G02G25G30
 -99284202.29346 -77313921.60244  23119506.3754                   23119506.8094
 -53342742.86347 -41454218.30145  20863631.3364                   20863630.3324
 -44950105.41047 -32862910.34044  23575839.7194                   23575842.4454
 -36619493.49247 -28307748.07846  21514652.7114                   21514651.0084
 -79468318.95347 -61872168.64145  21638751.2194                   21638750.8364
 -28190736.60947 -21834314.73045  22009356.1254                   22009356.4924
 -62737054.63748 -48830667.87546  20627078.1484                   20627074.4654
  -3955157.78946  -2733414.42643  24250213.7584                   24250216.9574
  -1276989.17645   -839438.75042  24171140.8054                   24171142.4264
 11  8 24  0  2 30.0000000  0  9G17G10G09G12G04G05G02G25G30
 -99327045.82446 -77347306.23444  23111353.8984                   23111354.3244
 -53437740.39147 -41528242.32045  20845554.1334                   20845553.0274
 -44967430.37146 -32876410.39144  23572542.2664                   23572545.2854
 -36776198.60947 -28429855.92246  21484832.5474                   21484830.7774
 -79486138.12147 -61886053.72345  21635360.2424                   21635359.7584
 -28375202.80947 -21978054.51645  21974252.9924                   21974253.7344
 -62832141.32047 -48904761.37146  20608983.7034                   20608980.1804
  -4149474.85946  -2884830.22743  24213235.7584                   24213239.1334
  -1473238.17245   -992359.98842  24133796.6804                   24133797.6604
 11  8 24  0  3  0.0000000  0  9G17G10G09G12G04G05G02G25G30
 -99369617.39846 -77380478.94944  23103251.5944                   23103252.3094
 -53531991.14847 -41601684.44546  20827618.7274                   20827617.7664
 -44984456.59047 -32889677.68044  23569302.6564                   23569305.9264
 -36932371.95347 -28551549.38346  21455113.4924                   21455111.9774
 -79503699.93747 -61899738.27045  21632018.2114                   21632018.0274
 -28559255.14547 -22121471.80945  21939228.1884                   21939229.0474
 -62926821.36748 -48978538.00046  20590966.8674                   20590963.1524
  -4343515.74246  -3036030.81643  24176310.7734                   24176313.9964
  -1669153.60945  -1145021.35242  24096514.5864                   24096516.0204
 11  8 24  0  3 30.0000000  0  9G17G10G09G12G04G05G02G25G30
 -99411916.44547 -77413439.30944  23095204.1334                   23095203.3874
 -53625494.94148 -41674544.51645  20809825.5394                   20809824.5784
 -45001187.50447 -32902714.84444  23566118.9694                   23566121.9024
 -37088011.05147 -28672826.56245  21425495.8914                   21425495.0904
 -79521006.29347 -61913223.76645  21628724.2424                   21628724.8634
 -28742890.27747 -22264564.00445  21904284.6334                   21904284.5594
 -63021095.97747 -49051998.70346  20573027.0234                   20573023.4734
  -4537277.82846  -3187014.13343  24139439.6254                   24139442.8324
  -1864732.56645  -1297420.42242  24059295.8054                   24059298.8954
 11  8 24  0  4  0.0000000  0  9G17G10G09G12G04G05G02G25G30
 -99453941.05547 -77446185.82844  23087206.1954                   23087206.6174
 -53718250.29347 -41746821.38745  20792174.4384                   20792173.8524
 -45017625.60246 -32915523.82843  23562990.5314                   23562993.6564
 -37243111.94947 -28793684.36746  21395981.3594                   21395980.1174
 -79538058.34847 -61926511.09845  21625479.4774                   21625479.5944
 -28926104.87947 -22407328.50445  21869419.6644                   21869419.8134
 -63114965.42647 -49125143.70346  20555164.1954                   20555160.6804
  -4730757.65646  -3337777.54743  24102621.5314                   24102624.0234
  -2059971.254 5                  24022143.992
 11  8 24  0  4 30.0000000  0  9G17G10G09G12G04G05G02G25G30
 -99495690.09047 -77478717.60544  23079261.8444                   23079262.5944
 -53810256.25847 -41818514.30545  20774666.7974                   20774665.6334
 -45033773.46146 -32928106.65244  23559917.7194                   23559920.7234
 -37397672.19547 -28914120.89546  21366569.7034                   21366568.1484
 -79554857.35547 -61939601.27745  21622283.8914                   21622283.0314
 -29108895.14547 -22549762.35245  21834635.6884                   21834636.0744
 -63208430.05148 -49197973.25046  20537378.5944                   20537375.1524
  -4923951.93746  -3488318.44543  24065857.5234                   24065860.4534
  -2254866.312 5                  23985056.227
 11  8 24  0  5  0.0000000  0  9G17G10G09G12G04G05G02G25G30
 -99537163.31647 -77511034.46944  23071370.3054                   23071370.0274
 -53901513.26247 -41889623.62945  20757300.7814                   20757299.3794
 -45049634.87546 -32940466.29344  23556900.2424                   23556902.7154
 -37551689.77347 -29034134.55546  21337261.1954                   21337260.1294
 -79571405.83647 -61952496.23045  21619134.4774                   21619134.1484
 -29291258.90647 -22691863.86345  21799932.6724                   21799933.1214
 -63301491.50447 -49270488.64146  20519669.3524                   20519665.9844
  -5116858.42646  -3638635.09443  24029149.0084                   24029151.5354
  -2449415.184 6                  23948034.672
 11  8 24  0  5 30.0000000  0  9G17G10G09G12G04G05G02G25G30
 -99578362.75047 -77543137.99644  23063530.6644                   23063530.0824
 -53992023.52747 -41960151.08245  20740077.4454                   20740076.0904
 -45065215.52347 -32952607.13743  23553935.2274                   23553936.7704
 -37705164.62147 -29153725.30946  21308055.7664                   21308054.2624
 -79587707.85547 -61965199.14845  21616032.1024                   21616031.8794
 -29473195.11747 -22833632.21545  21765311.8674                   21765311.7464
 -63394152.99247 -49342692.35946  20502036.0234                   20502032.9104
  -5309476.69946  -3788727.16043  23992494.1644                   23992497.1564
  -2643617.273 6                  23911080.336
 11  8 24  0  6  0.0000000  0  9G17G10G09G12G04G05G02G25G30
 -98043863.18447 -76347424.11743  23355535.3594                   23355535.2664
 -52506360.25448 -40802491.35545  21022789.8984                   21022788.2704
 -43505095.05947 -31736928.95343  23850816.3594                   23850818.7704
 -36282665.88347 -28045284.70746  21578748.5234                   21578746.6724
 -78028341.63748 -60750108.62145  21912770.0944                   21912769.2504
 -28079271.91447 -21747458.16845  22030566.3674                   22030565.7424
 -61910989.44148 -48186980.47346  20784272.7504                   20784269.4534
  -3926374.60246  -2710985.17643  24255690.6094                   24255692.9804
  -1262040.19946   -221243.56252  24173985.1094                   24173986.1174
 11  8 24  0  6 30.0000000  0  9G17G10G09G12G04G05G02G25G30
 -98084508.50447 -76379095.83644  23347800.8054                   23347800.2934
 -52595371.21147 -40871850.52345  21005851.4304                   21005850.0864
 -43520119.69147 -31748636.59044  23847957.4614                   23847960.0234
 -36435043.46947 -28164020.46545  21549751.8444                   21549750.1134
 -78044152.06247 -60762428.45345  21909761.2034                   21909760.8594
 -28260340.27747 -21888550.26645  21996109.8284                   21996109.7304
 -62002849.98848 -48258560.09046  20766792.4144                   20766789.3954
  -4118404.20346  -2860618.54743  24219148.3834                   24219151.0394
  -1455535.84446   -372019.24242  24137164.1644                   24137165.1294
 11  8 24  0  7  0.0000000  0  9G17G10G09G12G04G05G02G25G30
 -98124871.41847 -76410547.50043  23340120.6884                   23340119.9304
 -52683628.36747 -40940622.30945  20989056.5084                   20989055.7704
 -43534867.10546 -31760128.18743  23845150.9304                   23845153.8204
 -36586864.96547 -28282322.90246  21520861.2274                   21520859.2504
 -78059715.50447 -60774555.84045  21906799.7344                   21906799.3054
 -28440966.05947 -22029297.50845  21961737.9924                   21961737.3324
 -62094307.62948 -48329825.76246  20749388.6724                   20749385.2074
  -4310131.36346  -3010016.22743  24182663.1334                   24182666.4304
  -1648669.94146   -522513.21942  24100412.1094                   24100413.6524
 11  8 24  0  7 30.0000000  0  9G17G10G09G12G04G05G02G25G30
 -98164953.66047 -76441780.44544  23332493.0554                   23332493.6334
 -52771134.35247 -41008808.77345  20972404.5394                   20972403.7584
 -43549343.19947 -31771408.38343  23842396.4224                   23842399.3834
 -36738129.98047 -28400191.73046  21492076.5314                   21492074.8714
 -78075036.15247 -60786494.02745  21903883.7814                   21903883.5984
 -28621148.88347 -22169699.60245  21927450.1564                   21927449.4924
 -62185365.97747 -48400780.29346  20732060.5864                   20732056.9534
  -4501555.71946  -3159177.95743  24146236.9534                   24146239.5124
  -1841441.82846   -672724.92642  24063728.3984                   24063729.8404
 11  8 24  0  8  0.0000000  0  9G17G10G09G12G04G05G02G25G30
 -98204755.85246 -76472795.19944  23324918.2894                   23324919.8094
 -52857889.60247 -41076410.23445  20955895.4534                   20955894.9304
 -43563552.23046 -31782480.46943  23839692.6334                   23839696.0744
 -36888837.26247 -28517625.95746  21463397.5944                   21463395.9454
 -78090116.91847 -60798245.29745  21901014.3364                   21901013.7234
 -28800887.05147 -22309755.20345  21893247.3524                   21893247.3134
 -62276027.17648 -48471425.35946  20714808.7034                   20714805.4264
  -4692675.62546  -3308102.50843  24109867.4384                   24109869.9144
  -2033849.72746   -822653.04742  24027114.2034                   24027115.5274
 11  8 24  0  8 30.0000000  0  9G17G10G09G12G04G05G02G25G30
 -98244273.80946 -76503588.46944  23317398.5394                   23317399.5784
 -52943890.48447 -41143423.88345  20939530.4304                   20939529.2624
 -43577493.74246 -31793344.09043  23837038.8284                   23837041.9774
 -37038981.22747 -28634621.25046  21434826.4064                   21434824.9264
 -78104956.18047 -60809808.36745  21898190.6884                   21898190.0904
 -28980173.67247 -22449458.96145  21859129.8204                   21859129.5514
 -62366288.48048 -48541758.81646  20697632.6484                   20697628.7154
  -4883484.89546  -3456784.98043  24073557.3364                   24073560.5824
  -2225887.10946   -972292.48843  23990570.8444                   23990571.5984
 11  8 24  0  9  0.0000000  0  9G17G10G09G12G04G05G02G25G30
 -98283512.60546 -76534164.17244  23309931.4384                   23309932.3984
 -53029143.10948 -41209854.48045  20923307.5634                   20923306.4024
 -43591176.98046 -31804006.43043  23834434.9064                   23834438.8014
 -37188565.03148 -28751180.04345  21406361.6414                   21406359.5204
 -78119561.35547 -60821189.02745  21895411.7274                   21895410.7034
 -29159012.11747 -22588813.49245  21825097.5864                   21825098.0704
 -62456157.23047 -48611786.39546  20680530.7894                   20680527.8594
  -5073986.62546  -3605227.80543  24037306.9224                   24037308.6724
  -2417557.00446  -1121645.56643  23954096.9064                   23954098.4734
 11  8 24  0  9 30.0000000  0  9G17G10G09G12G04G05G02G25G30
 -98322468.86346 -76564519.73844  23302518.5704                   23302518.9384
 -53113644.58248 -41275699.77045  20907227.3054                   20907226.1724
 -43604602.78146 -31814468.17643  23831880.1334                   23831883.1684
 -37337583.64847 -28867298.43046  21378004.2344                   21378002.2584
 -78133931.81647 -60832386.80145  21892676.8674                   21892676.0664
 -29337396.92647 -22727814.53146  21791152.4144                   21791152.3794
 -62545631.24648 -48681506.39146  20663504.6174                   20663500.6564
  -5264175.21546  -3753426.65243  24001114.5704                   24001117.3794
  -2608853.72346  -1270707.86342  23917693.5944                   23917695.1454
 11  8 24  0 10  0.0000000  0  9G17G10G09G12G04G05G02G25G30
 -98361140.50847 -76594653.52043  23295159.6334                   23295159.7504
 -53197393.77748 -41340958.85945  20891290.8204                   20891289.5274
 -43617772.71946 -31824730.52743  23829374.7274                   23829376.6294
 -37486033.64147 -28982973.74245  21349755.1254                   21349753.2544
 -78148067.89547 -60843401.93045  21889987.1024                   21889986.1094
 -29515323.37547 -22866458.41846  21757294.0704                   21757293.9574
 -62634710.46148 -48750918.74246  20646553.4844                   20646549.7894
  -5454046.71946  -3901378.41843  23964982.6024                   23964986.0864
  -2799772.90246  -1419475.98443  23881363.6414                   23881364.8874
 11  8 24  0 10 30.0000000  0  9G17G10G09G12G04G05G02G25G30
 -98399527.57046 -76624565.55543  23287854.3364                   23287854.8014
 -53280391.33648 -41405632.25845  20875496.4304                   20875495.4654
 -43630690.96547 -31834796.80943  23826917.0784                   23826918.3284
 -37633912.86748 -29098204.29745  21321614.3524                   21321612.6564
 -78161972.09447 -60854236.37545  21887341.0554                   21887340.1954
 -29692789.16847 -23004743.35546  21723523.9384                   21723523.1844
 -62723396.45348 -48820024.69546  20629677.1024                   20629673.5084
  -5643599.05946  -4049081.48043  23928912.7424                   23928915.0084
  -2990312.36746  -1567948.25443  23845105.1804                   23845106.1134
 11  8 24  0 11  0.0000000  0  9G17G10G09G12G04G05G02G25G30
 -98437637.44146 -76654261.58643  23280601.9064                   23280603.3794
 -53362644.82448 -41469725.85945  20859844.1414                   20859843.4144
 -43643368.34447 -31844675.34843  23824504.0944                   23824506.3794
 -37781227.25047 -29212994.70745  21293581.7034                   21293579.9344
 -78175653.83647 -60864897.47744  21884737.4774                   21884737.1454
 -29869799.49647 -23142673.38746  21689839.5634                   21689838.9844
 -62811698.37947 -48888831.36346  20612873.5084                   20612870.2584
  -5832837.13346  -4196539.67643  23892902.1884                   23892904.3484
  -3180476.81246  -1716128.28942  23808918.1334                   23808918.4774
 11  8 24  0 11 30.0000000  0  9G17G10G09G12G04G05G02G25G30
 -98475462.19146 -76683735.46544  23273404.9224                   23273405.4224
 -53444147.40248 -41533234.32846  20844334.7734                   20844334.0514
 -43655800.93447 -31854363.14543  23822138.4534                   23822141.3444
 -37927967.26247 -29327337.56645  21265657.6254                   21265655.9024
 -78189107.90247 -60875381.17644  21882176.8054                   21882176.4734
 -30046344.38747 -23280240.73846  21656243.8834                   21656243.4844
 -62899610.27047 -48957334.12146  20596144.6414                   20596141.1174
  -6021751.26646  -4343745.44143  23856952.7274                   23856954.5904
  -3370256.32846  -1864008.36743  23772803.8984                   23772804.6914
 11  8 24  0 12  0.0000000  0  9G17G10G09G12G04G05G02G25G30
 -98512999.65647 -76712985.48844  23266262.1484                   23266262.5664
 -53524897.37548 -41596156.36345  20828968.0864                   20828967.3874
 -43667990.55147 -31863861.62944  23819819.7504                   23819821.7854
 -38074128.64147 -29441229.53946  21237844.3594                   21237842.5354
 -78202334.40647 -60885687.56644  21879660.0474                   21879659.2584
 -30222419.21147 -23417441.80946  21622737.9384                   21622737.2274
 -62987131.44147 -49025532.41046  20579489.9614                   20579485.9024
  -6210337.00046  -4490695.32043  23821065.4844                   23821068.2384
  -3559646.39146  -2011584.93743  23736763.5944                   23736765.6054
 11  8 24  0 12 30.0000000  0  9G17G10G09G12G04G05G02G25G30
 -98550256.07846 -76742016.54344  23259172.5314                   23259173.3794
 -53604902.33248 -41658497.85945  20813744.0004                   20813742.8794
 -43679947.80947 -31873179.05144  23817544.0704                   23817546.7034
 -38219717.06648 -29554675.04346  21210139.5394                   21210137.9924
 -78215342.45347 -60895823.72744  21877185.1954                   21877183.9264
 -30398028.60547 -23554280.20346  21589320.3054                   21589320.2814
 -63074270.49247 -49093432.96146  20562907.9454                   20562904.1954
  -6398598.88346  -4637392.82443  23785241.0084                   23785242.8204
  -3748651.28546  -2158861.42242  23700798.2114                   23700798.6564
 11  8 24  0 13  0.0000000  0  9G17G10G09G12G04G05G02G25G30
 -98587226.15646 -76770824.46944  23252137.4534                   23252138.1994
 -53684157.02348 -41720254.73846  20798661.9924                   20798660.9454
 -43691670.65247 -31882313.80144  23815313.9384                   23815316.3524
 -38364724.65248 -29667667.93745  21182545.7664                   21182544.0124
 -78228128.43747 -60905786.83244  21874751.9534                   21874751.2304
 -30573164.43047 -23690749.57846  21555992.5474                   21555992.4024
 -63161022.76248 -49161032.10946  20546399.2734                   20546395.8634
  -6586528.87547  -4783831.72743  23749479.1024                   23749481.2034
  -3937262.80546  -2305831.38743  23664906.8834                   23664907.1524
 11  8 24  0 13 30.0000000  0  9G17G10G09G12G04G05G02G25G30
 -98623915.19946 -76799413.40244  23245155.5004                   23245156.8524
 -53762668.07048 -41781432.15646  20783721.9454                   20783720.9104
 -43703168.52047 -31891273.25844  23813125.0314                   23813128.5554
 -38509155.30948 -29780211.28146  21155061.6174                   21155059.6764
 -78240700.34447 -60915583.13745  21872359.6724                   21872359.0394
 -30747829.89147 -23826852.44546  21522755.2274                   21522755.0124
 -63247395.96147 -49228335.87546  20529963.3524                   20529959.4304
  -6774130.49247  -4930014.73843  23713779.4454                   23713781.9694
  -4125484.25846  -2452497.37543  23629088.8674                   23629089.8444
 11  8 24  0 14  0.0000000  0  9G17G10G09G12G04G05G02G25G30
 -98660317.22347 -76827778.69544  23238229.0784                   23238230.2584
 -53840430.36348 -41842026.11746  20768924.1884                   20768923.4964
 -43714439.34847 -31900055.80943  23810980.7734                   23810983.6724
 -38653001.60547 -29892299.27746  21127688.3984                   21127686.8554
 -78253054.64547 -60925209.87144  21870008.4774                   21870007.9304
 -30922017.18047 -23962582.71145  21489608.4454                   21489608.4534
 -63333385.96547 -49295341.06646  20513599.3594                   20513596.0044
  -6961395.76647  -5075935.64543  23678143.4844                   23678146.0704
  -4313307.60946  -2598853.14143  23593347.1174                   23593347.8134
 11  8 24  0 14 30.0000000  0  9G17G10G09G12G04G05G02G25G30
 -97121010.50847 -75628319.00844  23531149.2034                   23531149.9574
 -52342021.98848 -40674435.15246  21054061.6024                   21054061.0824
 -42150066.22346 -30681063.83643  24108669.9534                   24108674.8634
 -37220836.41847 -28776326.36745  21400220.3054                   21400218.6524
 -76689772.82847 -59707068.21945  22167490.9454                   22167491.3914
 -29520297.13747 -22870333.23445  21756346.6954                   21756346.2894
 -61843570.85248 -48134446.15246  20797102.1644                   20797098.7704
  -5572895.65247  -3993987.43443  23942366.6094                   23942369.0274
  -2925303.53146  -1517291.43743  23857476.0234                   23857475.6564
 11  8 24  0 15  0.0000000  0  9G17G10G09G12G04G05G02G25G30
 -97156839.65247 -75656237.90244  23524331.0864                   23524331.8554
 -52418290.96148 -40733865.50046  21039548.0084                   21039547.1804
 -42160895.80146 -30689502.57443  24106609.3364                   24106613.5474
 -37363510.30147 -28887500.78146  21373070.2974                   21373068.5864
 -76701700.09047 -59716362.22744  22165221.3054                   22165221.8244
 -29693521.88347 -23005313.47345  21723382.9694                   21723382.5084
 -61928800.55147 -48200858.88746  20780883.4304                   20780880.0164
  -5759482.94147  -4139380.03143  23906860.4304                   23906862.4184
  -3112324.69546  -1663022.14142  23821887.1954                   23821886.8594
 11  8 24  0 15 30.0000000  0  9G17G10G09G12G04G05G02G25G30
 -97192380.69546 -75683932.30144  23517568.1094                   23517568.5704
 -52493812.68448 -40792713.58646  21025177.0944                   21025176.1484
 -42171508.36746 -30697772.21943  24104590.2734                   24104593.8404
 -37505593.41447 -28998214.85546  21346032.4844                   21346031.2384
 -76713415.22347 -59725490.93045  22162992.7344                   22162992.4104
 -29866260.35547 -23139914.79345  21690511.9924                   21690511.6684
 -62013650.55547 -48266975.76246  20764736.9534                   20764733.2974
  -5945725.85947  -4284504.27343  23871419.7424                   23871421.5314
  -3298939.21946  -1808436.00443  23786374.5234                   23786375.0274
 11  8 24  0 16  0.0000000  0  9G17G10G09G12G04G05G02G25G30
 -97227638.82847 -75711406.24244  23510859.2274                   23510859.9224
 -52568593.51248 -40850984.34445  21010946.5554                   21010946.0314
 -42181913.03946 -30705879.88343  24102610.9384                   24102613.9964
 -37647089.70747 -29108471.67246  21319106.6954                   21319105.3874
 -76724926.18047 -59734460.54744  22160801.9924                   22160800.9414
 -30038515.55547 -23274139.53545  21657733.0474                   21657732.4264
 -62098128.16448 -48332802.44946  20748661.2894                   20748657.6454
  -6131627.76647  -4429362.80143  23836043.4924                   23836045.6644
  -3485150.21546  -1953535.38743  23750940.3134                   23750941.0864
 11  8 24  0 16 30.0000000  0  9G17G10G09G12G04G05G02G25G30
 -97262615.48446 -75738660.86344  23504202.7194                   23504203.9224
 -52642636.02348 -40908679.79745  20996856.8444                   20996855.8094
 -42192115.43046 -30713829.91843  24100669.4774                   24100672.2034
 -37787999.11747 -29218271.16446  21292292.8524                   21292290.8554
 -76736236.51647 -59743273.84844  22158649.4614                   22158649.0474
 -30210286.96947 -23407987.29745  21625045.3524                   21625045.5204
 -62182236.44548 -48398341.35546  20732655.8754                   20732652.5234
  -6317188.06247  -4573955.13344  23800732.6724                   23800734.2664
  -3670956.87146  -2098319.73443  23715582.0784                   23715583.0984
 11  8 24  0 17  0.0000000  0  9G17G10G09G12G04G05G02G25G30
 -97297306.71546 -75765693.05544  23497601.8444                   23497602.6644
 -52715937.05148 -40965797.46546  20982907.8754                   20982906.8834
 -42202115.30146 -30721622.16843  24098765.9614                   24098768.4614
 -37928315.90247 -29327608.87946  21265591.0864                   21265589.9534
 -76747344.35547 -59751929.35544  22156535.7114                   22156535.5514
 -30381568.32447 -23541453.19145  21592452.0084                   21592452.0434
 -62265973.19548 -48463590.75446  20716721.4064                   20716718.1024
  -6502400.36747  -4718276.31244  23765487.3284                   23765489.7274
  -3856352.78946  -2242784.03543  23680302.4844                   23680302.8984
 11  8 24  0 17 30.0000000  0  9G17G10G09G12G04G05G02G25G30
 -97331714.40646 -75792504.30944  23491054.0394                   23491054.6414
 -52788499.70348 -41022339.77345  20969099.4694                   20969099.1024
 -42211918.53546 -30729261.14543  24096900.3054                   24096903.7814
 -38068040.88347 -29436485.44946  21239002.3674                   21239000.8954
 -76758254.34047 -59760430.69144  22154460.2194                   22154459.3914
 -30552359.34447 -23674537.01246  21559951.7584                   21559951.1524
 -62349341.97747 -48528553.42646  20700857.1174                   20700853.6564
  -6687264.80547  -4862326.43043  23730308.6094                   23730310.4654
  -4041337.84446  -2386928.14143  23645101.2734                   23645101.5394
 11  8 24  0 18  0.0000000  0  9G17G10G09G12G04G05G02G25G30
 -97365835.37947 -75819092.14844  23484561.3364                   23484561.8134
 -52860321.55948 -41078304.84446  20955432.4694                   20955431.0634
 -42221525.42246 -30736747.16843  24095072.7814                   24095076.6294
 -38207169.15648 -29544897.05946  21212527.3674                   21212525.3794
 -76768965.30147 -59768776.92244  22152421.8444                   22152421.1764
 -30722654.84847 -23807234.72746  21527545.0634                   21527544.9304
 -62432341.35548 -48593228.24246  20685062.6884                   20685059.2504
  -6871775.85247  -5006101.18744  23695196.9064                   23695199.5274
  -4225906.35546  -2530747.64542  23609978.2274                   23609979.1094
 11  8 24  0 18 30.0000000  0  9G17G10G09G12G04G05G02G25G30
 -97399673.78547 -75845459.80144  23478121.8834                   23478122.8634
 -52931408.13348 -41133696.96945  20941905.4844                   20941903.9064
 -42230943.78146 -30744086.28143  24093280.4534                   24093284.6134
 -38345703.18047 -29652845.61346  21186165.1644                   21186163.2544
 -76779483.32847 -59776972.82844  22150420.2734                   22150420.0864
 -30892456.75447 -23939547.81245  21495233.0944                   21495232.2894
 -62514977.23048 -48657619.80946  20669337.5554                   20669333.9654
  -7055935.37147  -5149602.01644  23660152.8444                   23660154.7934
  -4410060.05146  -2674243.95343  23574935.9144                   23574935.6374
 11  8 24  0 19  0.0000000  0  9G17G10G09G12G04G05G02G25G30
 -97433231.20747 -75871608.52344  23471736.8284                   23471737.1524
 -53001762.12948 -41188518.27345  20928517.7734                   20928516.4104
 -42240179.30946 -30751282.94543  24091522.8204                   24091527.1764
 -38483643.14548 -29760331.27346  21159916.1094                   21159914.2624
 -76789812.57847 -59785021.65245  22148454.5474                   22148454.1644
 -31061764.71947 -24071475.99246  21463014.7114                   21463013.7464
 -62597252.96948 -48721730.75846  20653681.0394                   20653677.0904
  -7239742.78147  -5292828.48843  23625174.9144                   23625177.0474
  -4593798.18046  -2817416.47743  23539971.4144                   23539971.5354
 11  8 24  0 19 30.0000000  0  9G17G10G09G12G04G05G02G25G30
 -97466505.57047 -75897536.63744  23465405.3674                   23465404.8204
 -53071382.53548 -41242767.94145  20915268.8364                   20915267.6134
 -42249233.50046 -30758338.26243  24089800.0084                   24089804.6054
 -38620985.23447 -29867351.05946  21133780.5704                   21133778.6724
 -76799953.00447 -59792923.32445  22146525.4064                   22146524.8834
 -31230574.07047 -24203015.65645  21430891.6174                   21430890.6884
 -62679167.97748 -48785560.61346  20638093.3284                   20638089.7894
  -7423193.73046  -5435777.18443  23590265.9304                   23590267.4064
  -4777116.36746  -2960261.73843  23505086.5474                   23505086.9384
 11  8 24  0 20  0.0000000  0  9G17G10G09G12G04G05G02G25G30
 -97499496.10946 -75923243.58644  23459126.2734                   23459126.7384
 -53140269.60948 -41296446.18745  20902160.3284                   20902158.8834
 -42258109.38346 -30765254.67243  24088111.5864                   24088116.2664
 -38757727.40248 -29973903.36746  21107759.8134                   21107757.7274
 -76809905.85547 -59800678.82445  22144631.5314                   22144631.2894
 -31398882.00047 -24334164.58245  21398863.1024                   21398862.6724
 -62760723.10548 -48849110.03946  20622573.1954                   20622569.7734
  -7606285.34847  -5578445.87944  23555424.8674                   23555426.2974
  -4960011.42246  -3102777.28543  23470283.1254                   23470283.6884
 11  8 24  0 20 30.0000000  0  9G17G10G09G12G04G05G02G25G30
 -97532200.07446 -75948727.25444  23452902.3914                   23452903.9224
 -53208421.58248 -41349551.62145  20889191.2114                   20889190.0864
 -42266807.68447 -30772032.69943  24086456.4534                   24086460.3954
 -38893865.18747 -30079984.73446  21081853.3364                   21081851.6684
 -76819670.59447 -59808287.76245  22142772.8134                   22142773.1054
 -31566683.27047 -24464918.72745  21366931.4304                   21366931.1174
 -62841917.25848 -48912378.18446  20607122.9454                   20607119.1334
  -7789012.46547  -5720830.52744  23520653.2734                   23520654.2074
  -5142478.23046  -3244959.10543  23435561.2424                   23435560.1994
 11  8 24  0 21  0.0000000  0  9G17G10G09G12G04G05G02G25G30
 -97564621.10946 -75973990.46944  23446733.2664                   23446734.6174
 -53275843.60248 -41402088.26245  20876361.2734                   20876360.2504
 -42275336.14146 -30778678.35243  24084834.3054                   24084837.6134
 -39029401.24247 -30185597.22746  21056061.4224                   21056060.0274
 -76829252.94547 -59815754.55945  22140949.2504                   22140949.6484
 -31733980.18047 -24595279.86746  21335095.7194                   21335095.4884
 -62922755.88348 -48975369.30146  20591739.8284                   20591736.2114
  -7971376.76647  -5862932.46944  23485949.5634                   23485951.7234
  -5324518.15646  -3386808.32043  23400919.4844                   23400919.2034
 11  8 24  0 21 30.0000000  0  9G17G10G09G12G04G05G02G25G30
 -97596762.45346 -75999035.75444  23440617.7034                   23440618.8484
 -53342540.10547 -41454059.56645  20863669.2814                   20863668.2584
 -42283701.41446 -30785196.87543  24083243.1724                   24083246.2194
 -39164336.62547 -30290741.66446  21030384.4454                   21030382.1294
 -76838658.53547 -59823083.62145  22139159.6484                   22139159.7464
 -31900773.46947 -24725248.57445  21303355.8524                   21303355.2974
 -63003243.65248 -49038087.02046  20576423.4844                   20576419.5234
  -8153379.03946  -6004752.32444  23451316.0944                   23451317.6294
  -5506132.05546  -3528325.56243  23366359.4144                   23366359.5744
 11  8 24  0 22  0.0000000  0  9G17G10G09G12G04G05G02G25G30
 -97628624.44946 -76023863.35243  23434553.8444                   23434555.5354
 -53408513.21548 -41505467.17646  20851115.1954                   20851114.2584
 -42291908.19946 -30791591.89143  24081680.4614                   24081684.1414
 -39298670.91448 -30395417.71946  21004821.2034                   21004819.4884
 -76847890.01247 -59830277.01245  22137403.2034                   22137402.9104
 -32067061.79747 -24854823.80146  21271712.7274                   21271712.2544
 -63083383.25848 -49100533.44546  20561173.4844                   20561169.5744
  -8335017.88347  -6146288.96144  23416751.2344                   23416753.3134
  -5687318.21546  -3669509.46943  23331881.1484                   23331881.0354
 11  8 24  0 22 30.0000000  0  9G17G10G09G12G04G05G02G25G30
 -97660206.03146 -76048472.43044  23428544.8134                   23428545.6214
 -53473762.55547 -41556310.81245  20838698.5864                   20838697.4024
 -42299958.63346 -30797865.09043  24080149.2894                   24080151.9494
 -39432401.24248 -30499623.14846  20979373.4774                   20979371.4454
 -76856948.02747 -59837335.23845  22135679.6724                   22135679.7774
 -32232841.53947 -24984002.73046  21240165.8284                   21240165.1764
 -63163175.05548 -49162708.84446  20545989.8524                   20545985.9964
  -8516289.69147  -6287539.59444  23382257.0554                   23382258.5204
  -5868073.00446  -3810357.25443  23297484.1564                   23297483.8914
 11  8 24  0 23  0.0000000  0  9G17G10G09G12G04G05G02G25G30
 -97691510.10547 -76072865.23444  23422587.9694                   23422588.4774
 -53538292.04748 -41606593.53145  20826418.8594                   20826417.9734
 -42307858.89846 -30804021.26643  24078645.4144                   24078648.7974
 -39565528.95348 -30603359.01246  20954039.7504                   20954038.0554
 -76865837.42247 -59844262.07445  22133988.2974                   22133987.6094
 -32398113.33248 -25112785.85946  21208715.2814                   21208714.9804
 -63242623.26648 -49224616.52046  20530871.1564                   20530867.3674
  -8697194.94546  -6428504.61744  23347830.9454                   23347832.8164
  -6048396.81246  -3950869.23043  23263169.6804                   23263169.2854
 11  8 24  0 23 30.0000000  0  9G17G10G09G12G04G05G02G25G30
 -96147109.87547 -74869436.52044  23716477.2424                   23716478.1644
 -52026675.42647 -40428710.43045  21114070.0234                   21114068.8284
 -40740186.84446 -29582458.71143  24376963.6484                   24376966.4264
 -38122622.19547 -29479016.06646  21228615.9224                   21228613.6914
 -75299134.44947 -58623454.58645  22432122.0784                   22432121.3404
 -30987443.66447 -24013562.65646  21477156.9454                   21477156.2504
 -61746301.05148 -48058651.14146  20815611.7664                   20815608.2814
  -7302299.65646  -5341573.09444  23613270.6484                   23613272.3094
  -4652855.46946  -2863434.29343  23528732.0004                   23528732.2544
 11  8 24  0 24  0.0000000  0  9G17G10G09G12G04G05G02G25G30
 -96177847.77346 -74893388.16444  23710628.6724                   23710629.2074
 -52089758.62547 -40477866.15245  21102065.6254                   21102064.7774
 -40747787.34446 -29588381.29743  24375516.4384                   24375521.3284
 -38254529.10548 -29581800.66046  21203514.1564                   21203512.8754
 -75307682.00447 -58630115.02745  22430495.2664                   22430494.6254
 -31151682.24248 -24141540.68746  21445903.3984                   21445902.6604
 -61825055.75048 -48120018.42646  20800625.0164                   20800621.5784
  -7482453.99646  -5481952.96944  23578987.7664                   23578989.6994
  -4832298.93046  -3003260.25043  23494585.3364                   23494584.9844
 11  8 24  0 24 30.0000000  0  9G17G10G09G12G04G05G02G25G30
 -96208301.03546 -74917118.02044  23704832.5704                   23704834.1524
 -52152119.24647 -40526458.82045  21090198.7974                   21090198.1684
 -40755241.73446 -29594190.02043  24374098.3134                   24374102.6884
 -38385822.33647 -29684107.05146  21178530.4304                   21178528.3364
 -75316060.01247 -58636643.36344  22428900.8674                   22428901.0864
 -31315399.55948 -24269112.53546  21414748.8054                   21414748.0944
 -61903465.02748 -48181116.55146  20785704.0314                   20785700.8674
  -7662228.09046  -5622036.58244  23544778.6094                   23544779.9264
  -5011297.37946  -3142739.42643  23460524.0944                   23460522.5354
 11  8 24  0 25  0.0000000  0  9G17G10G09G12G04G05G02G25G30
 -96238467.51246 -74940624.40244  23699092.6644                   23699093.4224
 -52213756.57447 -40574487.87945  21078469.6644                   21078468.9024
 -40762551.96946 -29599886.38743  24372707.3444                   24372711.6214
 -38516498.31648 -29785932.47346  21153663.3984                   21153661.4654
 -75324268.78547 -58643039.83244  22427338.4774                   22427338.3554
 -31478591.81247 -24396275.25446  21383694.3524                   21383693.5864
 -61981528.41448 -48241945.15646  20770849.1804                   20770845.9694
  -7841617.71946  -5761820.61344  23510641.8834                   23510642.8954
  -5189846.38346  -3281868.40243  23426545.8444                   23426545.5704
 11  8 24  0 25 30.0000000  0  9G17G10G09G12G04G05G02G25G30
 -96268354.38746 -74963912.91844  23693405.0704                   23693406.3954
 -52274679.06647 -40621959.91845  21066876.7734                   21066876.0704
 -40769728.46146 -29605478.59043  24371341.6414                   24371345.6844
 -38646562.63748 -29887281.27046  21128913.1804                   21128911.0124
 -75332317.28147 -58649311.39144  22425806.8834                   22425806.6844
 -31641263.60247 -24523032.41446  21352738.8054                   21352738.1094
 -62059254.67248 -48302511.06246  20756058.1954                   20756054.8634
  -8020627.69146  -5901308.81644  23476577.1564                   23476578.7854
  -5367950.68746  -3420650.85943  23392654.1484                   23392653.3674
 11  8 24  0 26  0.0000000  0  9G17G10G09G12G04G05G02G25G30
 -96297965.19946 -74986986.32844  23687771.0634                   23687771.4844
 -52334891.94947 -40668879.01246  21055418.5554                   21055417.5944
 -40776778.54345 -29610972.25043  24369999.8984                   24370004.3754
 -38776017.46548 -29988155.14146  21104278.6334                   21104276.7114
 -75340211.04347 -58655462.37944  22424304.4224                   22424304.9734
 -31803416.78547 -24649385.46946  21321881.9064                   21321881.1954
 -62136648.55948 -48362817.98046  20741331.1954                   20741327.1954
  -8199259.21147  -6040502.15244  23442584.2894                   23442586.2704
  -5545611.46946  -3559087.69943  23358846.2194                   23358845.6334
 11  8 24  0 26 30.0000000  0  9G17G10G09G12G04G05G02G25G30
 -96327294.35246 -75009840.24644  23682189.5634                   23682190.7704
 -52394390.43748 -40715241.44145  21044096.3134                   21044095.0904
 -40783700.02346 -29616365.79342  24368683.1724                   24368687.0864
 -38904855.91048 -30088548.71146  21079761.4774                   21079759.3204
 -75347946.22747 -58661489.80544  22422832.8054                   22422833.0664
 -31965043.54347 -24775328.31646  21291125.3984                   21291124.8914
 -62213706.08648 -48422862.79746  20726667.1174                   20726663.8794
  -8377504.29347  -6179394.35944  23408665.2034                   23408666.8284
  -5722820.47346  -3697172.51643  23325124.5864                   23325123.6644
 11  8 24  0 27  0.0000000  0  9G17G10G09G12G04G05G02G25G30
 -96356340.05546 -75032473.33244  23676662.2504                   23676663.8674
 -52453174.73048 -40761047.35945  21032909.7344                   21032908.8054
 -40790494.64546 -29621660.49243  24367390.6564                   24367394.2274
 -39033074.93047 -30188459.60946  21055362.4454                   21055359.9924
 -75355523.16047 -58667393.93744  22421390.9924                   22421390.6884
 -32126140.12947 -24900858.05146  21260469.7194                   21260469.2704
 -62290427.60248 -48482645.78946  20712067.6804                   20712064.1604
  -8555359.06247  -6317982.46544  23374820.5784                   23374822.5354
  -5899573.84446  -3834902.32043  23291489.3984                   23291488.1414
 11  8 24  0 27 30.0000000  0  9G17G10G09G12G04G05G02G25G30
 -96385106.52346 -75054888.83644  23671188.2814                   23671190.0474
 -52511250.87148 -40806301.47745  21021858.6804                   21021857.3714
 -40797170.53846 -29626862.62343  24366120.1484                   24366123.7664
 -39160677.11748 -30287889.85546  21031080.4304                   21031078.2034
 -75362948.41047 -58673179.84844  22419978.0314                   22419977.7154
 -32286709.10247 -25025976.65246  21229914.6884                   21229914.1134
 -62366818.75848 -48542171.35246  20697531.2274                   20697527.5124
  -8732825.60246  -6456268.07044  23341049.9614                   23341051.6024
  -6075873.60246  -3972278.66043  23257940.1484                   23257939.4144
 11  8 24  0 28  0.0000000  0  9G17G10G09G12G04G05G02G25G30
 -96413589.09846 -75077083.15244  23665768.2664                   23665770.1454
 -52568614.87947 -40851000.66445  21010942.5944                   21010940.9454
 -40803726.25046 -29631971.11743  24364873.1804                   24364876.3984
 -39287656.44548 -30386834.76246  21006917.1334                   21006914.8444
 -75370218.29347 -58678844.69944  22418594.3444                   22418593.8714
 -32446742.80947 -25150678.16046  21199460.6414                   21199459.8554
 -62442876.05148 -48601436.77346  20683057.8284                   20683054.3754
  -8909896.31646  -6594245.27744  23307354.1564                   23307356.4304
  -6251712.12546  -4109295.62143  23224479.4144                   23224478.8954
 11  8 24  0 28 30.0000000  0  9G17G10G09G12G04G05G02G25G30
 -96441790.74246 -75099058.56644  23660400.9304                   23660403.4574
 -52625271.62947 -40895148.75845  21000160.7894                   21000159.4774
 -40810168.52346 -29636991.19543  24363647.8444                   24363649.8714
 -39414014.87548 -30485295.84846  20982872.0704                   20982869.9144
 -75377338.28147 -58684392.75844  22417238.9534                   22417239.4804
 -32606242.69148 -25274963.71146  21169109.1884                   21169108.4384
 -62518604.43748 -48660445.89846  20668647.4534                   20668643.6684
  -9086572.44146  -6731914.99644  23273734.5234                   23273735.9574
  -6427090.35546  -4245953.94143  23191106.1644                   23191105.1954
 11  8 24  0 29  0.0000000  0  9G17G10G09G12G04G05G02G25G30
 -96469714.45746 -75120817.36744  23655087.8134                   23655089.6134
 -52681225.29347 -40938748.99245  20989513.0394                   20989512.1484
 -40816503.41846 -29641927.57443  24362441.9384                   24362444.6604
 -39539753.57048 -30583274.03146  20958944.4694                   20958942.3324
 -75384312.71947 -58689827.39544  22415912.6644                   22415912.3244
 -32765208.81647 -25398833.34046  21138858.8364                   21138857.9804
 -62594007.98848 -48719201.91046  20654298.3284                   20654294.5984
  -9262854.07847  -6869277.33644  23240189.0704                   23240190.5434
  -6602008.54346  -4382253.78543  23157820.3754                   23157818.9964
 11  8 24  0 29 30.0000000  0  9G17G10G09G12G04G05G02G25G30
 -96497357.29746 -75142357.32843  23649827.9924                   23649829.0514
 -52736475.35947 -40981800.96945  20978999.5394                   20978998.4494
 -40822732.07046 -29646781.18043  24361256.9064                   24361260.2154
 -39664869.02748 -30680766.56646  20935135.7424                   20935133.8284
 -75391141.28947 -58695148.37144  22414613.1024                   22414612.2814
 -32923637.85548 -25522284.46546  21108710.8444                   21108709.9064
 -62669086.08648 -48777704.32046  20640011.7504                   20640007.9104
  -9438736.69947  -7006328.74644  23206719.9534                   23206721.0164
  -6776462.08646  -4518191.58243  23124622.2734                   23124622.0514
 11  8 24  0 30  0.0000000  0  9G17G10G09G12G04G05G02G25G30
 -96524722.26246 -75163680.72743  23644620.3754                   23644621.8164
 -52791025.81247 -41024307.79345  20968618.9304                   20968618.0434
 -40828860.69946 -29651556.87143  24360089.7274                   24360094.7384
 -39789362.69547 -30777774.59446  20911445.8054                   20911443.5784
 -75397828.57447 -58700359.25044  22413340.9224                   22413339.4304
 -33081529.92248 -25645317.16446  21078664.8914                   21078663.8054
 -62743842.91048 -48835956.39546  20625785.8754                   20625781.7424
  -9614220.66447  -7143069.50844  23173326.1724                   23173327.7894
  -6950451.15246  -4653767.48843  23091513.3674                   23091512.6724
 11  8 24  0 30 30.0000000  0  9G17G10G09G12G04G05G02G25G30
 -96551805.68746 -75184784.78544  23639466.7034                   23639468.0664
 -52844874.37947 -41066267.69145  20958371.5554                   20958371.1214
 -40834888.80946 -29656254.25043  24358943.9224                   24358948.4964
 -39913229.45747 -30874294.10946  20887874.5704                   20887872.2584
 -75404372.49647 -58705458.42644  22412095.7974                   22412094.7934
 -33238879.70747 -25767927.30546  21048722.0314                   21048721.1524
 -62818276.34848 -48893956.47346  20611621.4384                   20611617.9104
  -9789299.88746  -7279494.87144  23140009.5474                   23140011.3674
  -7123969.66446  -4788976.71943  23058493.9844                   23058493.2814
 11  8 24  0 31  0.0000000  0  9G17G10G09G12G04G05G02G25G30
 -96578607.93746 -75205669.70343  23634366.5004                   23634368.2854
 -52898023.29747 -41107682.42245  20948257.5864                   20948257.0124
 -40840820.59446 -29660876.54343  24357815.1024                   24357819.5434
 -40036468.79748 -30970324.74246  20864422.5474                   20864420.7544
 -75410775.57047 -58710447.84444  22410877.4064                   22410877.0904
 -33395685.36348 -25890113.46146  21018882.8594                   21018881.9304
 -62892388.42648 -48951706.14546  20597518.4844                   20597514.7704
  -9963972.60247  -7415603.44544  23106770.2504                   23106772.6684
  -7297015.78946  -4923817.83643  23025563.8834                   23025564.1334
 11  8 24  0 31 30.0000000  0  9G17G10G09G12G04G05G02G25G30
 -96605128.46546 -75226335.09844  23629319.8594                   23629321.8914
 -52950474.02047 -41148553.11345  20938276.8524                   20938275.9614
 -40846659.40246 -29665426.43443  24356703.0474                   24356708.5314
 -40159078.92248 -31065865.08246  20841090.5394                   20841088.3954
 -75417039.27747 -58715328.69944  22409685.4144                   22409684.6764
 -33551944.75848 -26011873.95746  20989147.7114                   20989146.9024
 -62966180.35548 -49009206.35246  20583476.2274                   20583472.8404
 -10138236.12147  -7551393.15244  23073609.2114                   23073611.0704
  -7469586.82846  -5058288.79343  22992725.2664                   22992725.2114
 11  8 24  0 32  0.0000000  0  9G17G10G09G12G04G05G02G25G30
 -96631368.61346 -75246782.01644  23624326.9694                   23624328.3094
 -53002229.60947 -41188882.13745  20928427.6564                   20928427.2114
 -40852409.63746 -29669907.23043  24355609.3364                   24355613.9774
 -40281059.67648 -31160914.98846  20817878.8134                   20817876.9064
 -75423166.63747 -58720103.28144  22408519.8754                   22408518.9844
 -33707657.13348 -26133208.20346  20959516.7114                   20959515.4534
 -63039654.99648 -49066459.32446  20569494.6024                   20569490.9454
 -10312089.41847  -7686863.18744  23040526.0864                   23040528.1764
  -7641681.57446  -5192388.56243  22959976.4694                   22959975.9734
 11  8 24  0 32 30.0000000  0  9G17G10G09G12G04G05G02G25G30
 -95081905.78946 -74039408.45344  23919179.6644                   23919180.8094
 -51477867.70747 -40001067.63345  21218504.0394                   21218503.9494
 -39282652.42646 -28446719.93043  24654324.0004                   24654329.2384
 -38826983.95348 -30027868.95746  21094579.5704                   21094578.1644
 -73853736.85547 -57497171.02744  22707171.4534                   22707171.5394
 -32287393.07048 -25026508.85546  21229783.5394                   21229782.7544
 -61537389.24648 -47895862.64546  20855366.4064                   20855362.6724
  -8910102.16047  -6594405.50844  23307315.8204                   23307316.9774
  -6237869.73846  -4098509.18043  23227113.3444                   23227112.7584
 11  8 24  0 33  0.0000000  0  9G17G10G09G12G04G05G02G25G30
 -95107584.78546 -74059418.12544  23914293.6024                   23914294.5664
 -51528236.55947 -40040316.07445  21208919.2894                   21208918.7464
 -39288234.87546 -28451069.98443  24653262.7734                   24653267.3094
 -38947701.96148 -30121934.92646  21071608.2974                   21071605.8484
 -73859595.43047 -57501736.18744  22706056.4064                   22706057.0904
 -32442004.22348 -25146985.01246  21200362.1174                   21200360.8554
 -61610232.67248 -47952623.76646  20841504.7194                   20841501.3834
  -9083126.92647  -6729229.92244  23274390.0394                   23274391.6254
  -6409003.71146  -4231860.28943  23194546.9534                   23194546.7814
 11  8 24  0 33 30.0000000  0  9G17G10G09G12G04G05G02G25G30
 -95132979.39846 -74079206.18444  23909460.7194                   23909461.8954
 -51577911.28147 -40079023.62945  21199466.4694                   21199465.9064
 -39293735.06246 -28455355.96143  24652215.9224                   24652220.5004
 -39067783.35548 -30215504.83246  21048757.6334                   21048755.9494
 -73865318.89147 -57506196.09044  22704968.1724                   22704967.9264
 -32596058.12948 -25267026.95746  21171046.5164                   21171045.5864
 -61682759.43048 -48009138.13746  20827703.1024                   20827699.5044
  -9255730.53547  -6863726.14844  23241544.5864                   23241545.9144
  -6579650.30146  -4364831.64843  23162074.3594                   23162074.2114
 11  8 24  0 34  0.0000000  0  9G17G10G09G12G04G05G02G25G30
 -95158092.16846 -74098774.62143  23904681.9144                   23904683.6374
 -51626895.85247 -40117193.41045  21190145.4924                   21190144.2504
 -39299158.62546 -28459582.20343  24651182.7814                   24651188.7234
 -39187228.60547 -30308579.04346  21026027.4064                   21026025.7854
 -73870911.30147 -57510553.84044  22703903.7894                   22703903.9534
 -32749555.84048 -25386635.49646  21141837.2034                   21141836.1214
 -61754973.31648 -48065408.70746  20813961.3054                   20813957.6174
  -9427912.94547  -6997894.17244  23208779.6954                   23208780.7154
  -6749809.48846  -4497423.16843  23129694.3524                   23129693.6174
 11  8 24  0 34 30.0000000  0  9G17G10G09G12G04G05G02G25G30
 -95182926.82446 -74118126.36743  23899955.6564                   23899957.1724
 -51675195.93447 -40154829.82445  21180954.4064                   21180953.1724
 -39304513.04346 -28463754.57443  24650165.0554                   24650169.3404
 -39306041.33248 -30401160.37946  21003418.3444                   21003416.3954
 -73876378.32447 -57514813.89144  22702863.3594                   22702863.7114
 -32902499.22748 -25505812.09846  21112733.0084                   21112732.1174
 -61826879.73848 -48121439.69146  20800278.2274                   20800274.2504
  -9599675.78947  -7131735.25044  23176094.1094                   23176094.8054
  -6919482.75046  -4629636.03144  23097406.4454                   23097405.7304
 11  8 24  0 35  0.0000000  0  9G17G10G09G12G04G05G02G25G30
 -95207479.33246 -74137258.25043  23895284.1644                   23895285.4064
 -51722808.95748 -40191930.88345  21171893.6724                   21171892.5944
 -39309797.27046 -28467872.25043  24649160.4534                   24649163.4104
 -39424216.21548 -30493244.69146  20980930.2584                   20980928.1214
 -73881717.02047 -57518973.95744  22701847.3984                   22701847.7114
 -33054881.98048 -25624551.84446  21083735.1644                   21083734.2584
 -61898475.71948 -48177228.77346  20786653.7274                   20786650.4534
  -9771012.23047  -7265244.06644  23143489.4534                   23143490.5664
  -7088663.37946  -4761465.04343  23065212.5004                   23065211.4614
 11  8 24  0 35 30.0000000  0  9G17G10G09G12G04G05G02G25G30
 -95231753.04746 -74156172.85543  23890665.1724                   23890665.6374
 -51769740.09848 -40228500.59445  21162963.0004                   21162961.6524
 -39315018.06646 -28471940.48843  24648166.8204                   24648169.5314
 -39541754.71148 -30584833.12546  20958563.4224                   20958561.5944
 -73886932.60947 -57523038.09844  22700854.7894                   22700855.3204
 -33206705.35548 -25742855.71146  21054844.0704                   21054842.8874
 -61969766.30148 -48232779.88746  20773087.4614                   20773084.3054
  -9941923.48047  -7398421.59044  23110966.3204                   23110967.3984
  -7257352.38346  -4892910.97343  23033111.5084                   23033110.9024
 11  8 24  0 36  0.0000000  0  9G17G10G09G12G04G05G02G25G30
 -95255751.32446 -74174872.86343  23886098.2974                   23886098.5824
 -51815995.03948 -40264543.39545  21154161.0474                   21154159.6884
 -39320182.02746 -28475964.43743  24647184.2274                   24647187.5824
 -39658659.84848 -30675928.02746  20936316.9844                   20936314.9964
 -73892030.44147 -57527010.49244  22699885.2504                   22699885.3834
 -33357970.98448 -25860724.95746  21026059.2894                   21026058.2154
 -62040756.30148 -48288096.77046  20759578.5554                   20759575.4104
 -10112410.64147  -7531268.64844  23078523.3284                   23078525.2734
  -7425551.03946  -5023974.78143  23001104.5634                   23001104.6374
 11  8 24  0 36 30.0000000  0  9G17G10G09G12G04G05G02G25G30
 -95279465.71546 -74193351.64843  23881585.8984                   23881586.3444
 -51861567.02348 -40300054.02745  21145489.1564                   21145487.6644
 -39325284.24646 -28479940.30143  24646212.8834                   24646216.9494
 -39774921.57848 -30766521.57046  20914193.4064                   20914190.8674
 -73897003.66047 -57530885.78544  22698938.2424                   22698938.8444
 -33508668.81648 -25978151.77746  20997382.3594                   20997380.8014
 -62111439.05948 -48343174.25046  20746127.8054                   20746124.8874
 -10282463.10247  -7663776.99244  23046163.3754                   23046164.9884
  -7593248.65246  -5154648.19543  22969192.6644                   22969192.3794
 11  8 24  0 37  0.0000000  0  9G17G10G09G12G04G05G02G25G30
 -95302899.71146 -74211611.97743  23877126.8914                   23877127.3874
 -51906461.06648 -40335036.38745  21136945.9224                   21136944.4384
 -39330331.69146 -28483873.48443  24645252.1414                   24645256.4384
 -39890542.87148 -30856616.07446  20892191.3834                   20892189.4344
 -73901857.15247 -57534667.77044  22698015.0314                   22698014.8094
 -33658800.34848 -26095137.31646  20968812.9614                   20968811.8954
 -62181819.37948 -48398016.05146  20732734.9224                   20732731.6134
 -10452081.84047  -7795947.37944  23013885.8984                   23013887.5554
  -7760446.05947  -5284931.82843  22937376.3914                   22937375.4104
 11  8 24  0 37 30.0000000  0  9G17G10G09G12G04G05G02G25G30
 -95326053.06246 -74229653.64843  23872720.5004                   23872721.8094
 -51950678.79347 -40369491.75045  21128531.7734                   21128530.6604
 -39335327.23446 -28487766.19943  24644301.9534                   24644306.3634
 -40005521.97748 -30946210.16846  20870311.1804                   20870309.1914
 -73906592.26247 -57538357.50444  22697113.9694                   22697113.7934
 -33808363.52348 -26211679.98046  20940352.4224                   20940350.9804
 -62251898.20748 -48452622.92246  20719399.5004                   20719396.3364
 -10621264.30947  -7927777.80544  22981691.6804                   22981693.3874
  -7927140.78546  -5414823.75844  22905654.6644                   22905654.6564
 11  8 24  0 38  0.0000000  0  9G17G10G09G12G04G05G02G25G30
 -95348926.60246 -74247477.30944  23868368.5004                   23868369.4534
 -51994222.99248 -40403422.28545  21120245.0944                   21120243.8404
 -39340274.60246 -28491621.37543  24643360.5864                   24643365.1684
 -40119858.80148 -31035303.78146  20848553.8364                   20848551.2854
 -73911211.44947 -57541956.93444  22696234.9844                   22696234.5474
 -33957357.27748 -26327778.94146  20911999.8594                   20911998.3754
 -62321677.98048 -48506996.75446  20706120.7194                   20706117.6024
 -10790008.91447  -8059267.07444  22949580.5784                   22949582.2114
  -8093331.21946  -5544322.74243  22874030.2894                   22874029.5354
 11  8 24  0 38 30.0000000  0  9G17G10G09G12G04G05G02G25G30
 -95371521.80146 -74265084.05144  23864068.6644                   23864070.2584
 -52037096.91447 -40436830.52745  21112086.3674                   21112085.3324
 -39345178.82846 -28495442.96943  24642427.1484                   24642431.6914
 -40233553.39848 -31123896.95746  20826918.6254                   20826916.3094
 -73915717.86347 -57545468.46544  22695376.8674                   22695376.9574
 -34105781.08247 -26443433.79346  20883755.3984                   20883754.5004
 -62391161.52348 -48561139.75846  20692898.5944                   20692895.0394
 -10958314.64547  -8190414.35244  22917552.7344                   22917554.3554
  -8259016.37147  -5673427.99244  22842501.0084                   22842500.4494
 11  8 24  0 39  0.0000000  0  9G17G10G09G12G04G05G02G25G30
 -95393838.21146 -74282473.54744  23859821.7664                   23859823.5554
 -52079302.27347 -40469717.80945  21104055.1254                   21104053.8054
 -39350042.52346 -28499232.97343  24641501.7584                   24641506.5434
 -40346604.46948 -31211988.68746  20805405.4304                   20805403.3674
 -73920112.16847 -57548892.65644  22694540.9224                   22694541.1994
 -34253632.61348 -26558642.71946  20855620.0704                   20855619.1914
 -62460349.63348 -48615052.55546  20679732.3984                   20679729.2274
 -11126178.74247  -8321217.50044  22885609.4144                   22885611.2664
  -8424193.38747  -5802137.28143  22811069.6564                   22811068.4884
 11  8 24  0 39 30.0000000  0  9G17G10G09G12G04G05G02G25G30
 -95415878.78546 -74299648.10943  23855627.2034                   23855629.2814
 -52120843.97347 -40502087.96145  21096149.8054                   21096148.7734
 -39354872.06246 -28502996.31643  24640583.0784                   24640586.5164
 -40459014.32848 -31299580.77746  20784014.6804                   20784012.7704
 -73924399.58647 -57552233.53144  22693725.8524                   22693725.1884
 -34400913.38748 -26673406.89546  20827593.5314                   20827592.5784
 -62529247.16048 -48668738.91846  20666622.0554                   20666618.2774
 -11293602.15247  -8451677.27044  22853749.6094                   22853751.2814
  -8588863.31246  -5930451.43743  22779733.3674                   22779732.7584
 11  8 24  0 40  0.0000000  0  9G17G10G09G12G04G05G02G25G30
 -95437637.30146 -74316602.86743  23851486.6254                   23851489.0594
 -52161717.49647 -40533937.45345  21088371.9614                   21088370.8364
 -39359664.13346 -28506730.42642  24639670.9534                   24639674.9694
 -40570775.55548 -31386667.43046  20762747.2274                   20762745.3364
 -73928574.92647 -57555487.05944  22692931.2034                   22692930.4264
 -34547615.10548 -26787719.86346  20799676.9534                   20799676.0164
 -62597849.25448 -48722195.07446  20653567.3444                   20653563.6954
 -11460576.00447  -8581786.73444  22821975.6884                   22821977.7584
  -8753017.25847  -6058363.53944  22748495.8754                   22748495.1024
 11  8 24  0 40 30.0000000  0  9G17G10G09G12G04G05G02G25G30
 -95459120.98446 -74333343.48843  23847399.2114                   23847400.4734
 -52201931.86347 -40565273.32045  21080719.2344                   21080718.4144
 -39364429.29746 -28510443.71542  24638763.3204                   24638768.7384
 -40681894.40248 -31473253.52046  20741601.8834                   20741599.9184
 -73932646.70347 -57558659.89544  22692156.0944                   22692156.7304
 -34693742.85248 -26901585.57846  20771869.5164                   20771868.8284
 -62666164.34048 -48775427.59046  20640567.3914                   20640563.9264
 -11627105.05947  -8711549.61744  22790285.8834                   22790287.5434
  -8916660.10546  -6185877.39144  22717355.5554                   22717354.7504
 11  8 24  0 41  0.0000000  0  9G17G10G09G12G04G05G02G25G30
 -95480329.93046 -74349869.99643  23843363.6484                   23843364.7114
 -52241489.66447 -40596097.56245  21073192.1484                   21073190.8834
 -39369170.91445 -28514138.50842  24637860.9384                   24637867.5314
 -40792369.65648 -31559338.12146  20720579.4694                   20720577.5274
 -73936616.97347 -57561753.63344  22691400.8364                   22691401.6294
 -34839295.60948 -27015003.25846  20744172.3134                   20744171.2464
 -62734193.88748 -48828437.59846  20627621.6484                   20627618.2624
 -11793187.33247  -8840964.34844  22758681.6724                   22758683.3134
  -9079789.77747  -6312991.36344  22686312.8364                   22686312.3284
 11  8 24  0 41 30.0000000  0  9G17G10G09G12G04G05G02G25G30
 -93925839.00846 -73138578.39843  24139172.1644                   24139174.1644
 -50704966.90247 -39398807.10245  21365582.5394                   21365581.5664
 -37798467.46546 -27290213.84043  24936755.9614                   24936761.9574
 -39326772.98448 -30417314.71546  20999472.9304                   20999470.9774
 -72365062.38747 -56337165.67644  22990457.5164                   22990458.1374
 -33408842.67248 -25900364.55146  21016378.1724                   21016377.0044
 -61226512.43048 -47653620.85546  20914523.9064                   20914520.5784
 -10383390.37547  -7742421.23444  23026957.1954                   23026958.6374
  -7666973.91047  -5212095.80944  22955162.7664                   22955162.4494
 11  8 24  0 42  0.0000000  0  9G17G10G09G12G04G05G02G25G30
 -93946491.72746 -73154671.49243  24135242.3524                   24135244.3054
 -50743210.05547 -39428606.95345  21358305.3984                   21358303.7974
 -37803164.41846 -27293873.92243  24935863.1564                   24935868.5204
 -39435952.13748 -30502389.36746  20978696.9534                   20978694.8594
 -72368826.55147 -56340098.81644  22989741.0474                   22989741.5864
 -33553233.09048 -26012876.50846  20988901.6414                   20988900.4654
 -61293967.99248 -47706183.60546  20901687.4694                   20901684.1024
 -10548564.74647  -7871128.51244  22995525.6954                   22995527.1054
  -7829063.00047  -5338398.94143  22924318.1174                   22924317.9224
 11  8 24  0 42 30.0000000  0  9G17G10G09G12G04G05G02G25G30
 -93966866.50046 -73170548.01644  24131365.2974                   24131367.6804
 -50780798.96147 -39457897.00445  21351152.1644                   21351151.2544
 -37807843.82446 -27297520.36343  24934973.3364                   24934977.9574
 -39544481.94548 -30586958.03146  20958044.6094                   20958042.2424
 -72372489.94546 -56342953.46544  22989044.0004                   22989044.0434
 -33697039.55148 -26124933.42646  20961536.2584                   20961534.3134
 -61361138.91048 -47758524.56246  20888905.5164                   20888901.9574
 -10713281.79347  -7999479.42644  22964180.7504                   22964182.6054
  -7990628.52747  -5464294.11343  22893573.6804                   22893572.7584
 11  8 24  0 43  0.0000000  0  9G17G10G09G12G04G05G02G25G30
 -93986966.62946 -73186210.49244  24127540.8524                   24127543.0594
 -50817739.13347 -39486681.55545  21344122.5554                   21344121.1054
 -37812511.99245 -27301157.97343  24934084.6174                   24934089.0314
 -39652364.81248 -30671022.59846  20937515.0314                   20937512.9454
 -72376057.48447 -56345733.38344  22988365.5314                   22988365.4304
 -33840263.86347 -26236536.73446  20934281.2114                   20934279.7734
 -61428029.68048 -47810647.22346  20876176.3984                   20876172.8834
 -10877542.48447  -8127474.71144  22932922.8444                   22932924.6094
  -8151671.38347  -5589782.00043  22862928.1094                   22862927.6254
 11  8 24  0 43 30.0000000  0  9G17G10G09G12G04G05G02G25G30
 -94006786.98046 -73201654.94944  24123769.2974                   24123771.4184
 -50854027.48047 -39514958.19945  21337217.0084                   21337216.4734
 -37817167.19146 -27304785.52042  24933198.7504                   24933203.7734
 -39759594.96948 -30754578.53946  20917109.5394                   20917107.9454
 -72379525.51247 -56348435.73444  22987706.0864                   22987705.6294
 -33982899.06648 -26347681.00846  20907138.9304                   20907137.3054
 -61494636.82048 -47862548.86346  20863501.7974                   20863498.3054
 -11041339.49647  -8255108.69544  22901753.7584                   22901755.0664
  -8312184.38347  -5714857.00844  22832383.3674                   22832383.1024
 11  8 24  0 44  0.0000000  0  8G17G10G12G04G05G02G25G30
 -94026324.55146 -73216879.06244  24120051.1414                   24120053.4804
 -50889663.51247 -39542726.54345  21330435.9304                   21330434.6994
 -39866168.51648 -30837622.85246  20896829.4454                   20896827.5864
 -72382892.37947 -56351059.29344  22987064.8204                   22987065.0514
 -34124940.85548 -26458362.86346  20880108.8914                   20880107.5944
 -61560958.84848 -47914228.34846  20850880.7424                   20850877.2114
 -11204667.63747  -8382377.30944  22870672.8914                   22870674.4344
  -8472162.38347  -5839515.14544  22801940.4224                   22801940.1294
 11  8 24  0 44 30.0000000  0  8G17G10G12G04G05G02G25G30
 -94045585.39546 -73231887.56244  24116385.9694                   24116387.8324
 -50924654.88347 -39569992.54345  21323777.1094                   21323775.9384
 -39972090.36348 -30920159.34446  20876673.1094                   20876670.9184
 -72386165.34446 -56353609.68744  22986442.1724                   22986442.5084
 -34266393.13748 -26568585.37146  20853191.5164                   20853190.0634
 -61627002.37948 -47965690.82046  20838313.1804                   20838309.4384
 -11367530.06247  -8509283.03144  22839681.6644                   22839682.6414
  -8631608.53146  -5963758.84844  22771598.6954                   22771598.5594
 11  8 24  0 45  0.0000000  0  8G17G10G12G04G05G02G25G30
 -94064565.57046 -73246677.33244  24112774.2344                   24112775.8754
 -50958999.51647 -39596754.59045  21317241.6954                   21317240.4844
 -40077355.82848 -31002184.36746  20856641.6724                   20856639.7034
 -72389341.55147 -56356084.69944  22985837.8984                   22985837.7114
 -34407250.19148 -26678344.05546  20826387.3984                   20826385.9964
 -61692765.20348 -48016934.56246  20825799.1644                   20825795.1134
 -11529920.62947  -8635821.05944  22808779.6334                   22808780.8094
  -8790516.81646  -6087583.43744  22741359.6414                   22741359.1564
 11  8 24  0 45 30.0000000  0  8G17G10G12G04G05G02G25G30
 -94083257.98046 -73261242.88343  24109218.1484                   24109218.8914
 -50992692.39847 -39623008.79345  21310829.8134                   21310828.8244
 -40181956.78948 -31083691.59846  20836736.6884                   20836734.7934
 -72392415.59447 -56358480.09844  22985252.6724                   22985253.2344
 -34547503.46148 -26787632.26246  20799697.8754                   20799696.3164
 -61758241.63348 -48067955.12946  20813338.9384                   20813335.2274
 -11691829.91847  -8761984.07044  22777969.3594                   22777970.4024
  -8948877.79347  -6210981.54744  22711224.3204                   22711223.4534
 11  8 24  0 46  0.0000000  0  8G17G10G12G04G05G02G25G30
 -94101664.36346 -73275585.55543  24105714.2664                   24105716.2504
 -51025737.56647 -39648758.27345  21304541.6954                   21304540.8364
 -40285894.44948 -31164681.96546  20816958.1414                   20816956.3324
 -72395390.45347 -56360798.22744  22984686.8524                   22984687.2034
 -34687153.18748 -26896450.18046  20773123.4844                   20773122.2814
 -61823434.68748 -48118754.89546  20800933.1174                   20800929.3444
 -11853257.51247  -8887771.74244  22747250.3364                   22747251.9694
  -9106691.06247  -6333952.87544  22681193.1174                   22681192.6374
 11  8 24  0 46 30.0000000  0  8G17G10G12G04G05G02G25G30
 -94119787.99246 -73289707.90943  24102265.4064                   24102267.2504
 -51058140.51647 -39674007.32445  21298375.6254                   21298374.4654
 -40389171.37948 -31245157.47346  20797305.2424                   20797302.6804
 -72398270.49646 -56363042.47344  22984138.2814                   22984139.3244
 -34826200.75848 -27004798.87946  20746663.5944                   20746662.1524
 -61888348.50448 -48169337.06246  20788580.5164                   20788576.8484
 -12014204.05147  -9013184.55144  22716622.7114                   22716624.8444
  -9263957.45346  -6456498.07444  22651266.2814                   22651265.6804
 11  8 24  0 47  0.0000000  0  8G17G10G12G04G05G02G25G30
 -94137629.78946 -73303610.61343  24098870.3984                   24098872.0634
 -51089903.89847 -39698757.98845  21292331.2734                   21292330.3674
 -40491787.30948 -31325117.93046  20777778.1174                   20777776.1214
 -72401057.92246 -56365214.57044  22983608.1484                   22983608.1334
 -34964645.36348 -27112677.73846  20720318.2974                   20720316.8404
 -61952985.34848 -48219703.41446  20776280.6724                   20776276.7034
 -12174667.85547  -9138221.20344  22686088.4454                   22686089.7114
  -9420675.23847  -6578615.75844  22621444.1024                   22621443.7734
 11  8 24  0 47 30.0000000  0  8G17G10G12G04G05G02G25G30
 -94155190.89146 -73317294.63343  24095528.4534                   24095530.2304
 -51121031.37947 -39723013.16845  21286407.7114                   21286407.1804
 -40593742.86348 -31404563.80546  20758376.0784                   20758374.3364
 -72403755.05946 -56367316.32044  22983095.3364                   22983094.7344
 -35102486.57848 -27220086.41846  20694087.8204                   20694086.3164
 -62017347.70748 -48269855.88346  20764032.6254                   20764028.9224
 -12334648.07447  -9262881.04345  22655644.6484                   22655646.2504
  -9576843.73447  -6700305.44544  22591726.0704                   22591725.7194
 11  8 24  0 48  0.0000000  0  8G17G10G12G04G05G02G25G30
 -94172466.97346 -73330756.57042  24092240.7584                   24092242.7274
 -51151520.94947 -39746771.27745  21280605.8364                   21280604.9964
 -40695032.69548 -31483490.93746  20739101.3524                   20739099.7624
 -72406359.21546 -56369345.59444  22982599.9454                   22982599.3404
 -35239718.76248 -27327020.54346  20667973.4144                   20667972.1844
 -62081432.64548 -48319792.17646  20751837.8984                   20751834.0044
 -12494138.10247  -9387158.92244  22625294.5474                   22625296.1294
  -9732456.40647  -6821562.02044  22562114.2814                   22562113.4614
 11  8 24  0 48 30.0000000  0  8G17G10G12G04G05G02G25G30
 -94189470.55146 -73344006.17242  24089005.7584                   24089007.3244
 -51181387.07047 -39770043.59445  21274922.8984                   21274921.3164
 -40795669.11348 -31561908.91846  20719950.9614                   20719948.6844
 -72408883.56647 -56371312.64544  22982119.4694                   22982119.1454
 -35376352.27048 -27433488.16046  20641972.7974                   20641971.5474
 -62145253.62948 -48369522.79346  20739693.1954                   20739689.5704
 -12653147.79347  -9511062.50444  22595035.8674                   22595037.3794
  -9887523.12946  -6942393.18744  22532606.2114                   22532605.5164
 11  8 24  0 49  0.0000000  0  8G17G10G12G04G05G02G25G30
 -94206196.96946 -73357039.79043  24085823.6174                   24085824.5664
 -51210627.15248 -39792828.07445  21269358.5084                   21269357.3204
 -40895646.35248 -31639813.25046  20700925.8754                   20700924.2114
 -72411324.73447 -56373214.91444  22981654.6804                   22981654.7814
 -35512381.09448 -27539484.59446  20616087.5784                   20616085.8404
 -62208807.34448 -48419045.15646  20727599.0474                   20727595.4844
 -12811670.24247  -9634586.44544  22564870.1334                   22564871.7154
 -10042037.10947  -7062793.63744  22503202.8594                   22503201.9884
 11  8 24  0 49 30.0000000  0  8G17G10G12G04G05G02G25G30
 -94222644.24646 -73369855.85243  24082692.5164                   24082694.6844
 -51239241.35247 -39815124.84045  21263913.8284                   21263912.4534
 -40994961.53148 -31717201.69946  20682026.8914                   20682024.9024
 -72413681.89546 -56375051.71544  22981206.7034                   22981207.1884
 -35647801.57448 -27645007.00046  20590317.4694                   20590316.4304
 -62272092.85948 -48468358.53946  20715556.1954                   20715552.4884
 -12969701.01647  -9757727.26644  22534797.6254                   22534799.1604
 -10195994.12147  -7182760.09044  22473905.6094                   22473905.1134
 11  8 24  0 50  0.0000000  0  8G17G10G12G04G05G02G25G30
 -94238818.47346 -73382459.17243  24079615.2894                   24079617.0274
 -51267238.34047 -39836940.67645  21258586.0004                   21258584.7194
 -41093620.52048 -31794078.83246  20663252.8134                   20663250.7544
 -72415962.69147 -56376828.98844  22980772.4144                   22980773.1334
 -35782618.46948 -27750059.07046  20564662.9454                   20564661.3834
 -62335117.80948 -48517468.87946  20703563.0554                   20703559.6254
 -13127244.13747  -9880488.09444  22504817.9614                   22504819.7234
 -10349398.10547  -7302295.61344  22444713.7894                   22444713.0864
 11  8 24  0 50 30.0000000  0  8G17G10G12G04G05G02G25G30
 -94254718.17646 -73394848.63743  24076590.2194                   24076590.9924
 -51294618.46947 -39858275.84045  21253375.3284                   21253374.3164
 -41191620.92648 -31870442.77346  20644604.0554                   20644602.0514
 -72418166.18446 -56378546.01643  22980352.2194                   22980353.8444
 -35916828.46148 -27854638.22746  20539123.6954                   20539121.8164
 -62397881.39148 -48566375.55546  20691619.7894                   20691616.1604
 -13284295.35947 -10002865.62144  22474932.0634                   22474933.4774
 -10502244.99647  -7421397.04744  22415627.3754                   22415627.3914
 11  8 24  0 51  0.0000000  0  8G17G10G12G04G05G02G25G30
 -92694924.69946 -72179425.16443  24373408.8674                   24373410.0944
 -49745965.00847 -38651532.88345  21548074.6724                   21548073.3164
 -39713540.84448 -30718692.05546  20925873.5084                   20925871.3284
 -70844875.54346 -55152605.29743  23279740.4924                   23279740.8984
 -34475007.82848 -26731141.57846  20813493.2194                   20813491.2194
 -60884965.06248 -47387479.71146  20979517.8364                   20979514.4144
 -11865429.15647  -8897255.55144  22744933.6804                   22744935.2074
  -9079109.60247  -6312460.32844  22686441.9454                   22686440.9384
 11  8 24  0 51 30.0000000  0  8G17G10G12G04G05G02G25G30
 -92710281.19546 -72191391.29343  24370486.1334                   24370487.7234
 -49772124.14547 -38671916.62945  21543096.6334                   21543095.3244
 -39810228.42648 -30794033.02046  20907474.2344                   20907472.2154
 -70846934.30546 -55154209.53943  23279348.6644                   23279348.8014
 -34608005.75848 -26834776.27746  20788184.3204                   20788182.6094
 -60947216.03148 -47435986.95346  20967672.0234                   20967668.4654
 -12021495.80147  -9018865.86744  22715235.3594                   22715236.6454
  -9230841.89147  -6430693.22744  22657567.8674                   22657567.5864
 11  8 24  0 52  0.0000000  0  8G17G10G12G04G05G02G25G30
 -92725367.07046 -72203146.55543  24367615.2424                   24367617.0784
 -49797677.09447 -38691828.02045  21538233.5004                   21538232.4184
 -39906259.57848 -30868862.48046  20889199.8984                   20889198.3204
 -70848923.35946 -55155759.48043  23278969.6564                   23278970.2664
 -34740396.60948 -26937937.91446  20762991.2894                   20762989.4344
 -61009213.33248 -47484296.53946  20955874.0944                   20955870.5704
 -12177067.59847  -9140090.59445  22685631.2664                   22685631.8834
  -9382014.47347  -6548490.00444  22628801.3364                   22628800.3134
 11  8 24  0 52 30.0000000  0  8G17G10G12G04G05G02G25G30
 -92740180.71146 -72214689.66043  24364797.1804                   24364798.5234
 -49822624.73847 -38711267.74245  21533486.4454                   21533485.5514
 -40001631.84848 -30943178.52346  20871051.2194                   20871049.1764
 -70850841.92246 -55157254.49243  23278604.5704                   23278604.1914
 -34872177.11348 -27040623.96546  20737914.0004                   20737912.2234
 -61070956.43748 -47532408.04346  20944124.9694                   20944121.8594
 -12332140.53547  -9260926.59444  22656121.0944                   22656122.5824
  -9532623.46147  -6665847.60944  22600140.7814                   22600140.2114
 11  8 24  0 53  0.0000000  0  8G17G10G12G04G05G02G25G30
 -92754723.79746 -72226021.95743  24362029.4384                   24362031.1024
 -49846970.95347 -38730238.82445  21528853.4534                   21528852.6374
 -40096346.52748 -31016982.16846  20853027.7274                   20853025.4454
 -70852692.85546 -55158696.76643  23278252.3594                   23278251.6764
 -35003347.31248 -27142834.46946  20712953.1094                   20712951.6134
 -61132448.06248 -47580323.60546  20932423.4144                   20932420.3914
 -12486714.05547  -9381373.45345  22626707.4454                   22626708.1914
  -9682668.46547  -6782765.75444  22571588.6334                   22571587.5984
 11  8 24  0 53 30.0000000  0  8G17G10G12G04G05G02G25G30
 -92768993.61746 -72237141.29743  24359313.6414                   24359316.1334
 -49870714.96947 -38748740.66445  21524335.8914                   21524333.9574
 -40190400.19548 -31090270.73046  20835130.2034                   20835128.0594
 -70854474.35946 -55160084.94543  23277913.6334                   23277913.0594
 -35133902.74648 -27244565.92646  20688109.0394                   20688107.4224
 -61193686.52347 -47628041.89146  20920770.2194                   20920766.6094
 -12640782.77747  -9501426.96945  22597389.0704                   22597389.8714
  -9832144.18747  -6899240.29744  22543143.6644                   22543143.2774
 11  8 24  0 54  0.0000000  0  8G17G10G12G04G05G02G25G30
 -92782995.03946 -72248051.49644  24356649.8674                   24356651.1024
 -49893864.09047 -38766778.95345  21519930.2274                   21519929.1094
 -40283797.55547 -31163047.87546  20817357.1724                   20817355.2624
 -70856192.44146 -55161423.73043  23277586.7034                   23277586.3284
 -35263847.18448 -27345821.28146  20663381.6884                   20663380.0474
 -61254678.00447 -47675567.72746  20909163.6954                   20909160.3524
 -12794349.63347  -9621089.41045  22568165.8364                   22568166.7504
  -9981053.77047  -7015273.67244  22514806.9384                   22514806.6804
 11  8 24  0 54 30.0000000  0  8G17G10G12G04G05G02G25G30
 -92796729.93046 -72258753.99643  24354035.9924                   24354037.4774
 -49916422.59047 -38784357.00045  21515637.7504                   21515636.6294
 -40376539.91048 -31235314.64146  20799708.8594                   20799706.7504
 -70857850.09046 -55162715.42243  23277271.3134                   23277271.2304
 -35393181.29748 -27446601.07446  20638769.7424                   20638768.1214
 -61315425.80947 -47722903.68446  20897604.0084                   20897600.0434
 -12947414.23447  -9740360.47745  22539038.6254                   22539039.7114
 -10129396.79347  -7130865.58644  22486578.2034                   22486577.7504
 11  8 24  0 55  0.0000000  0  8G17G10G12G04G05G02G25G30
 -92810195.93046 -72269247.00443  24351473.7114                   24351475.0594
 -49938389.86347 -38801474.35545  21511457.4534                   21511456.2624
 -40468623.85248 -31307068.34046  20782186.3134                   20782183.5124
 -70859445.16046 -55163958.39143  23276967.4774                   23276968.1334
 -35521900.52048 -27546901.72746  20614275.5944                   20614273.7074
 -61375927.56247 -47770047.91446  20886090.3754                   20886086.6644
 -13099971.07047  -9859235.89145  22510008.0704                   22510009.2814
 -10277168.07847  -7246011.97744  22458458.8204                   22458458.0434
 11  8 24  0 55 30.0000000  0  8G17G10G12G04G05G02G25G30
 -92823392.62946 -72279530.14143  24348962.1254                   24348963.7034
 -49959768.32447 -38818132.91445  21507389.5084                   21507388.2424
 -40560048.67648 -31378308.44946  20764788.2194                   20764785.8714
 -70860979.05947 -55165153.68444  23276676.1884                   23276676.8444
 -35650003.79348 -27646722.41846  20589897.8914                   20589896.8014
 -61436184.68748 -47817001.53546  20874624.0314                   20874620.1684
 -13252018.10247  -9977714.06244  22481074.3524                   22481074.9964
 -10424365.65647  -7360711.33244  22430447.7274                   22430446.7664
 11  8 24  0 56  0.0000000  0  9G17G10G29G12G04G05G02G25G30
 -92836326.66046 -72289608.62543  24346500.8914                   24346502.8954
 -49980566.64147 -38834339.39145  21503431.3914                   21503430.2584
   9224833.02715                  24611932.898
 -40650820.49248 -31449039.71546  20747515.1254                   20747513.1134
 -70862458.68446 -55166306.67244  23276394.5784                   23276395.3404
 -35777495.91048 -27746066.88346  20565637.0084                   20565635.3134
 -61496204.35248 -47863770.11746  20863202.8674                   20863199.1804
 -13403559.23447 -10095798.02345  22452237.5314                   22452237.6644
 -10570993.59846  -7474966.80544  22402545.0944                   22402544.4844
 11  8 24  0 56 30.0000000  0  9G17G10G29G12G04G05G02G25G30
 -92848992.50846 -72299478.14842  24344090.6094                   24344092.2894
 -50000781.98447 -38850091.61345  21499584.7114                   21499583.1604
   9062191.633 5                  24580983.313
 -40740933.77348 -31519257.82846  20730367.3364                   20730365.2194
 -70863879.97746 -55167414.22344  23276123.5784                   23276124.6644
 -35904370.01648 -27844929.78946  20541494.0474                   20541492.1374
 -61555982.50448 -47910350.50046  20851827.2584                   20851823.3594
 -13554586.96547 -10213481.93745  22423497.7274                   22423498.2734
 -10717044.61347  -7588772.74244  22374752.6724                   22374751.9024
 11  8 24  0 57  0.0000000  0  9G17G10G29G12G04G05G02G25G30
 -92861399.00446 -72309145.53542  24341728.5554                   24341732.0784
 -50020425.42647 -38865398.19145  21495846.8914                   21495845.2464
   8899539.516 5                  24550031.844
 -40830396.41448 -31588968.95346  20713342.8834                   20713340.6254
 -70865252.31246 -55168483.62944  23275863.0164                   23275863.7734
 -36030633.52748 -27943316.90646  20517466.6954                   20517465.1454
 -61615528.75048 -47956750.17246  20840496.1334                   20840492.2854
 -13705107.59047 -10330770.69545  22394854.2344                   22394855.3674
 -10862525.10547  -7702134.10244  22347068.1644                   22347067.9024
 11  8 24  0 57 30.0000000  0  9G17G10G29G12G04G05G02G25G30
 -92873546.92245 -72318611.45742  24339417.0394                   24339420.4304
 -50039500.00047 -38880261.50045  21492216.6334                   21492215.7034
   8736876.188 6                  24519077.383
 -40919209.05948 -31658173.59446  20696442.3524                   20696439.9734
 -70866577.54346 -55169516.30944  23275610.4924                   23275611.1374
 -36156286.27748 -28041228.10546  20493556.1884                   20493554.5314
 -61674845.12148 -48002970.73846  20829208.7974                   20829205.0514
 -13855119.76647 -10447663.25445  22366307.9224                   22366308.5434
 -11007433.90647  -7815050.00044  22319493.4064                   22319491.8244
 11  8 24  0 58  0.0000000  0  9G17G10G29G12G04G05G02G25G30
 -92885435.44946 -72327875.25043  24337156.2194                   24337158.3674
 -50058006.87947 -38894682.44945  21488694.8674                   21488694.2974
   8574203.422 5                  24488122.406
 -41007370.36348 -31726870.68746  20679665.8914                   20679663.3244
 -70867855.51246 -55170512.13744  23275367.5554                   23275368.3014
 -36281325.76648 -28138661.43746  20469761.3754                   20469759.6724
 -61733931.70348 -48049012.24646  20817965.0004                   20817961.4344
 -14004620.16847 -10564157.04345  22337858.8524                   22337859.9224
 -11151767.85947  -7927517.96144  22292027.2424                   22292026.3554
 11  8 24  0 58 30.0000000  0  9G17G10G29G12G04G05G02G25G30
 -92897060.37546 -72336933.59443  24334943.4064                   24334946.4064
 -50075944.86747 -38908660.11345  21485281.5314                   21485280.7194
   8411525.49645   7261629.77752  24457165.5004                   24457166.5594
 -41094876.26648 -31795057.08246  20663013.8524                   20663011.6524
 -70869083.31246 -55171468.92643  23275133.6564                   23275135.1094
 -36405746.66448 -28235612.73846  20446084.8914                   20446083.4144
 -61792785.71548 -48094872.52346  20806765.3204                   20806762.1524
 -14153602.78147 -10680247.36345  22309508.3364                   22309509.7424
 -11295521.21547  -8039533.52344  22264672.1644                   22264670.9804
 11  8 24  0 59  0.0000000  0  9G17G10G29G12G04G05G02G25G30
 -92908426.95345 -72345790.69942  24332780.0474                   24332782.9384
 -50093320.35547 -38922199.46545  21481975.1484                   21481973.6054
   8248838.60545   7134860.83642  24426207.2114                   24426208.4414
 -41181730.60947 -31862735.77046  20646485.8754                   20646483.8484
 -70870266.16846 -55172390.69544  23274908.8984                   23274909.6374
 -36529552.50048 -28332084.78546  20422525.5004                   20422524.3794
 -61851412.19947 -48140555.50846  20795609.0394                   20795605.4964
 -14302069.51647 -10795935.69945  22281256.0944                   22281256.9494
 -11438696.05547  -8151098.30544  22237426.8204                   22237425.4264
 11  8 24  0 59 30.0000000  0  9G17G10G29G12G04G05G02G25G30
 -92919536.96945 -72354447.86742  24330665.3674                   24330668.5634
 -50110137.92247 -38935304.09445  21478775.0164                   21478773.7854
   8086141.74245   7008084.13742  24395246.1564                   24395248.4384
 -41267935.01247 -31929908.02046  20630081.7194                   20630079.9614
 -70871406.94946 -55173279.68444  23274692.0394                   23274692.3794
 -36652743.78548 -28428077.95746  20399082.8364                   20399081.6994
 -61909814.25847 -48186063.60246  20784495.7974                   20784492.1804
 -14450020.17247 -10911221.89845  22253102.0784                   22253103.0514
 -11581292.25046  -8262212.16044  22210291.0944                   22210290.6094
 11  8 24  1  0  0.0000000  0  9G17G10G29G12G04G05G02G25G30
 -91354966.60946 -71135302.13342  24628394.0084                   24628396.8594
 -48550976.65647 -37720373.26245  21775473.5474                   21775472.7074
   9498863.94945   8108906.72342  24664079.7344                   24664081.0784
 -39778062.84847 -30768968.65646  20913595.2274                   20913593.0354
 -69297083.21946 -53946533.98443  23574276.2664                   23574276.3914
 -35199891.84448 -27295985.49246  20675551.5554                   20675550.2274
 -60392567.94947 -47003793.75446  21073217.8674                   21073214.2734
 -13022024.41047  -9798497.91045  22524840.4844                   22524841.6644
 -10147879.91047  -7145267.45744  22483060.5784                   22483060.0824
 11  8 24  1  0 30.0000000  0  9G17G10G29G12G04G05G02G25G30
 -91365563.02346 -71143559.07042  24626378.5784                   24626380.3554
 -48566686.33647 -37732614.59045  21772484.3674                   21772482.9804
   9336148.73445   7982115.82042  24633115.5314                   24633117.6724
 -39862966.79747 -30835127.56646  20897438.2584                   20897436.1564
 -69298142.13346 -53947359.18044  23574074.1884                   23574075.2504
 -35321850.44948 -27391018.13746  20652343.4694                   20652341.6334
 -60450524.25447 -47048954.50846  21062189.7664                   21062185.7504
 -13168936.25047  -9912974.64545  22496884.2114                   22496885.2504
 -10289312.93747  -7255474.96944  22456146.8284                   22456146.0124
 11  8 24  1  1  0.0000000  0  9G17G10G29G12G04G05G02G25G30
 -91375898.27746 -71151612.52343  24624411.0554                   24624412.7734
 -48581840.81647 -37744423.28945  21769600.4304                   21769598.9224
   9173429.88345   7855321.90242  24602150.8364                   24602153.2894
 -39947215.66048 -30900776.02346  20881406.0474                   20881404.1954
 -69299156.84847 -53948149.94144  23573881.5394                   23573881.9844
 -35443186.27048 -27485565.48046  20629253.7974                   20629252.2814
 -60508254.50047 -47093939.10246  21051203.6174                   21051199.7544
 -13315320.68447 -10027040.41045  22469028.2894                   22469029.1254
 -10430156.64547  -7365223.28144  22429345.0944                   22429344.5354
 11  8 24  1  1 30.0000000  0  8G10G29G12G04G05G02G25G30
 -48596448.12147 -37755805.62545  21766821.0314                   21766819.4024
   9010702.66445   7728521.55542  24571184.5704                   24571188.0274
 -40030814.53548 -30965918.00846  20865498.0164                   20865495.9694
 -69300133.46547 -53948911.01644  23573695.5704                   23573696.0594
 -35563903.64848 -27579630.93746  20606282.1564                   20606280.4104
 -60565765.11747 -47138752.55546  21040259.5084                   21040255.5744
 -13461181.03947 -10140697.80145  22441271.1884                   22441272.6644
 -10570414.57447  -7474515.15244  22402654.8834                   22402654.1604
 11  8 24  1  2  0.0000000  0  8G10G29G12G04G05G02G25G30
 -48610510.60547 -37766763.43045  21764144.4844                   21764143.4654
   8847967.668 5                  24540217.648
 -40113763.56248 -31030553.60946  20849713.6564                   20849711.6954
 -69301072.90246 -53949643.12143  23573516.9304                   23573517.1024
 -35684001.66048 -27673213.77046  20583428.2734                   20583426.7774
 -60623057.14147 -47183395.67646  21029357.1414                   21029353.8134
 -13606515.19947 -10253945.17245  22413615.6254                   22413616.8324
 -10710084.91047  -7583349.15244  22376076.3524                   22376075.6454
 11  8 24  1  2 30.0000000  0  8G10G29G12G04G05G02G25G30
 -48624029.41447 -37777297.57445  21761571.8444                   21761571.2624
   8685227.125 5                  24509249.289
 -40196060.75048 -31094681.28546  20834052.7734                   20834050.9224
 -69301974.57046 -53950345.82443  23573345.5394                   23573345.8164
 -35803477.23048 -27766311.57046  20560692.8364                   20560691.4024
 -60680129.87147 -47227867.93046  21018496.8134                   21018493.0314
 -13751319.50447 -10366779.67245  22386060.3204                   22386061.1804
 -10849164.09847  -7691722.53144  22349610.2734                   22349609.9024
 11  8 24  1  3  0.0000000  0  8G10G29G12G04G05G02G25G30
 -48637004.22747 -37787407.83245  21759103.0314                   21759102.0044
   8522484.316 5                  24478279.438
 -40277703.35548 -31158298.90246  20818516.6024                   20818514.5314
 -69302836.55146 -53951017.55943  23573181.1804                   23573181.3554
 -35922327.14148 -27858921.86346  20538076.4844                   20538074.4654
 -60736982.08247 -47272168.32846  21007678.0634                   21007674.8364
 -13895589.03547 -10479197.46945  22358606.6644                   22358607.8554
 -10987647.50447  -7799631.64544  22323258.2194                   22323257.6174
 11  8 24  1  3 30.0000000  0  8G10G29G12G04G05G02G25G30
 -48649438.39147 -37797096.80145  21756736.9224                   21756735.8714
   8359739.418 5                  24447310.219
 -40358691.75848 -31221406.75046  20803105.3444                   20803103.2034
 -69303659.92246 -53951659.22343  23573024.4144                   23573024.6884
 -36040550.60248 -27951044.00046  20515579.1884                   20515577.7234
 -60793614.96147 -47316297.84046  20996900.8284                   20996897.8984
 -14039322.21147 -10591197.32845  22331255.1804                   22331256.1914
 -11125533.76647  -7907075.45744  22297019.4224                   22297018.6604
 11  8 24  1  4  0.0000000  0  8G10G29G12G04G05G02G25G30
 -48661333.77747 -37806365.95745  21754472.6644                   21754471.8754
   8196993.879 5                  24416339.938
 -40439025.41848 -31284004.41446  20787818.1724                   20787816.4264
 -69304444.96546 -53952271.02343  23572875.5634                   23572875.1414
 -36158145.98848 -28042676.72746  20493201.6804                   20493199.8634
 -60850028.77047 -47360256.64546  20986165.9384                   20986162.5044
 -14182516.21547 -10702777.03545  22304005.8054                   22304006.9344
 -11262820.28547  -8014051.95344  22270894.5084                   22270893.4454
 11  8 24  1  4 30.0000000  0  8G10G29G12G04G05G02G25G30
 -48672697.09447 -37815220.50045  21752310.9774                   21752309.1604
   8034244.160 5                  24385371.039
 -40518708.66848 -31346095.27046  20772654.6174                   20772652.5864
 -69305196.47346 -53952856.66043  23572732.4534                   23572732.7114
 -36275116.58248 -28133822.61346  20470942.5784                   20470941.2034
 -60906228.71548 -47404048.81246  20975471.6884                   20975468.1094
 -14325173.13747 -10813938.26245  22276859.0634                   22276859.9734
 -11399509.45747  -8120562.98444  22244883.7344                   22244882.5784
 11  8 24  1  5  0.0000000  0  8G10G29G12G04G05G02G25G30
 -48683531.86347 -37823663.21145  21750249.3674                   21750248.0314
   7871489.879 5                  24354399.945
 -40597742.57448 -31407680.14846  20757615.2114                   20757612.8674
 -69305916.57046 -53953417.86743  23572594.6094                   23572595.8524
 -36391462.53948 -28224481.76246  20448802.5474                   20448801.2114
 -60962216.93748 -47447676.00046  20964817.6024                   20964814.0784
 -14467292.16847 -10924680.33245  22249814.7894                   22249816.4614
 -11535600.63747  -8226608.04344  22218985.8204                   22218985.2894
 11  8 24  1  5 30.0000000  0  8G10G29G12G04G05G02G25G30
 -48693838.90647 -37831694.68745  21748288.0704                   21748286.7974
   7708733.227 5                  24323428.289
 -40676125.38348 -31468757.67246  20742699.3524                   20742697.1334
 -69306604.27746 -53953953.77743  23572463.9304                   23572465.5124
 -36507181.25448 -28314652.15646  20426782.1724                   20426780.3324
 -61017992.49248 -47491137.47746  20954204.1484                   20954200.1374
 -14608869.46547 -11035000.28145  22222873.6644                   22222874.4694
 -11671090.27347  -8332184.37144  22193203.1564                   22193202.6484
 11  8 24  1  6  0.0000000  0  8G10G29G12G04G05G02G25G30
 -48703619.28947 -37839315.77745  21746426.6884                   21746425.6644
   7545976.965 5                  24292456.320
 -40753855.55948 -31529326.64846  20727908.0704                   20727905.9224
 -69307258.65246 -53954463.70743  23572340.0784                   23572340.7464
 -36622270.19948 -28404331.82046  20404881.6024                   20404879.6724
 -61073554.93448 -47534432.89546  20943631.0704                   20943626.8594
 -14749901.30547 -11144895.19545  22196036.0084                   22196037.1644
 -11805974.87947  -8437289.24645  22167535.4224                   22167534.8874
 11  8 24  1  6 30.0000000  0  8G10G29G12G04G05G02G25G30
 -48712882.95347 -37846534.23045  21744664.2584                   21744662.6334
   7383214.51245   7553516.68852  24261483.6804                   24261485.3484
 -40830940.24648 -31589392.65646  20713239.4844                   20713237.0514
 -69307887.63346 -53954953.84443  23572219.7734                   23572221.5944
 -36736735.55948 -28493525.57446  20383099.2114                   20383098.0354
 -61128912.34048 -47577568.54346  20933096.2584                   20933092.6484
 -14890392.84447 -11254369.09445  22169301.3364                   22169301.9454
 -11940259.90647  -8541926.90645  22141981.9534                   22141981.1024
 11  8 24  1  7  0.0000000  0  8G10G29G12G04G05G02G25G30
 -48721630.94547 -37853350.85245  21742998.9844                   21742998.2464
   7220448.12545   7426685.84442  24230510.4144                   24230512.5474
 -40907378.00848 -31648954.55946  20698693.7664                   20698691.6764
 -69308490.41047 -53955423.54743  23572106.1334                   23572106.6604
 -36850575.03547 -28582231.63346  20361436.3674                   20361434.6884
 -61184064.03948 -47620543.89146  20922601.6804                   20922597.7344
 -15030340.55947 -11363419.23445  22142670.1254                   22142671.2814
 -12073942.08647  -8646094.82044  22116542.9844                   22116542.3754
 11  8 24  1  7 30.0000000  0  8G10G29G12G04G05G02G25G30
 -48729868.62147 -37859769.83244  21741431.2664                   21741430.2854
   7057675.55145   7299850.04342  24199535.4384                   24199537.8284
 -40983171.83248 -31708014.69546  20684270.6174                   20684268.3014
 -69309070.44947 -53955875.48043  23571995.5164                   23571995.8914
 -36963790.44547 -28670451.40646  20339892.0864                   20339890.3054
 -61239014.03148 -47663362.06646  20912144.9144                   20912140.9844
 -15169745.37947 -11472046.32845  22116142.0314                   22116143.1484
 -12207022.63347  -8749793.93444  22091218.9534                   22091217.7464
 11  8 24  1  8  0.0000000  0  8G10G29G12G04G05G02G25G30
 -48737597.52747 -37865792.37544  21739960.6024                   21739958.9924
   6894898.87145   7173011.17642  24168559.8134                   24168562.5634
 -41058321.07848 -31766572.55546  20669970.1954                   20669968.1914
 -69309627.35547 -53956309.39843  23571889.6414                   23571890.3914
 -37076379.86348 -28758183.38346  20318467.2194                   20318465.8404
 -61293761.82847 -47706022.69546  20901726.6954                   20901722.9614
 -15308604.15647 -11580247.94545  22089718.3054                   22089719.2384
 -12339498.56647  -8853021.91045  22066009.3834                   22066008.3524
 11  8 24  1  8 30.0000000  0  8G10G29G12G04G05G02G25G30
 -48744818.92247 -37871419.43744  21738586.6334                   21738585.6054
   6732120.30945   7046170.82042  24137584.7894                   24137586.4614
 -41132824.18748 -31824626.94146  20655792.7584                   20655790.3714
 -69310160.50446 -53956724.82043  23571787.8834                   23571789.1414
 -37188341.21948 -28845425.95746  20297161.7584                   20297159.7504
 -61348306.72748 -47748525.21946  20891347.5234                   20891343.3014
 -15446913.35547 -11688021.32445  22063399.2664                   22063399.6254
 -12471366.73447  -8955776.30145  22040915.3054                   22040914.2544
 11  8 24  1  9  0.0000000  0  8G10G29G12G04G05G02G25G30
 -48751542.75847 -37876658.78145  21737306.9694                   21737306.2274
   6569333.25045   6919323.77742  24106606.4224                   24106608.5474
 -41206688.61748 -31882183.63346  20641736.6724                   20641734.4104
 -69310677.82847 -53957127.91843  23571690.1414                   23571690.0164
 -37299681.02348 -28932184.21546  20275974.4064                   20275972.9614
 -61402657.55948 -47790876.52346  20881004.4144                   20881000.8714
 -15584678.38747 -11795370.67245  22037183.4304                   22037184.1954
 -12602632.81247  -9058061.53944  22015936.3914                   22015935.8014
 11  8 24  1  9 30.0000000  0  8G10G29G12G04G05G02G25G30
 -48757768.97747 -37881510.39144  21736122.5944                   21736121.1414
   6406541.42245   6792473.04342  24075629.2274                   24075630.6214
 -41279912.23048 -31939241.00446  20627802.6954                   20627800.5554
 -69311177.20346 -53957517.04743  23571595.1024                   23571595.2774
 -37410396.13348 -29018455.68746  20254905.8524                   20254904.1724
 -61456812.27348 -47833075.00446  20870699.2664                   20870695.2584
 -15721894.68747 -11902292.42245  22011071.6484                   22011072.5004
 -12733292.55547  -9159874.29345  21991072.8834                   21991072.0554
 11  8 24  1 10  0.0000000  0  8G10G29G12G04G05G02G25G30
 -47188081.22747 -36658377.09845  22034824.4384                   22034822.4534
   7819169.55545   7893222.32042  24344442.9534                   24344444.7704
 -39777073.83648 -30768198.08246  20913783.6334                   20913781.2154
 -67736240.74246 -52730293.84443  23871295.9064                   23871296.0314
 -35945063.07048 -27876637.68746  20533749.7194                   20533747.9884
 -59935350.99248 -46647520.76646  21160223.8204                   21160219.8554
 -14283136.99647 -10781182.50845  22284858.2734                   22284859.2274
 -11287921.18447  -8033610.85944  22266117.7274                   22266116.5824
 11  8 24  1 10 30.0000000  0  8G10G29G12G04G05G02G25G30
 -47193320.08647 -36662459.33644  22033826.8914                   22033825.9614
   7656370.05545   7766365.58242  24313462.7734                   24313464.8014
 -39849016.47348 -30824257.27746  20900093.0554                   20900091.1524
 -67736706.51246 -52730656.82443  23871206.3834                   23871207.4024
 -36054526.14148 -27961933.55546  20512919.3444                   20512917.5434
 -59989116.20348 -46689415.73046  21149992.5394                   21149988.5234
 -14419250.05547 -10887244.59045  22258956.6804                   22258957.6764
 -11417363.28147  -8134474.80145  22241485.6884                   22241484.4184
 11  8 24  1 11  0.0000000  0  8G10G29G12G04G05G02G25G30
 -47198072.96147 -36666162.89844  22032922.8364                   22032922.1094
   7493564.57045   7639504.26642  24282482.0314                   24282483.7464
 -39920322.89548 -30879820.71546  20886523.8054                   20886521.9384
 -67737160.10546 -52731010.25843  23871120.6884                   23871120.9104
 -36163365.83647 -28046743.67646  20492207.9454                   20492206.3714
 -60042691.41048 -46731162.65246  21139797.4774                   21139793.7504
 -14554812.36347 -10992877.53145  22233160.0164                   22233161.0164
 -11546197.80547  -8234865.30944  22216969.4844                   22216968.1684
 11  8 24  1 11 30.0000000  0  8G10G29G12G04G05G02G25G30
 -47202339.59047 -36669487.54744  22032110.5004                   22032110.1294
   7330756.97745   7512641.25042  24251500.6414                   24251501.9804
 -39990989.89548 -30934885.89846  20873076.3444                   20873074.5984
 -67737598.91846 -52731352.24643  23871037.0944                   23871037.1414
 -36271578.22748 -28131064.98446  20471615.7664                   20471614.0164
 -60096074.43748 -46772759.82046  21129638.9614                   21129634.9614
 -14689818.73047 -11098077.26245  22207469.1954                   22207470.1294
 -11674420.02747  -8334778.70345  22192569.6564                   22192568.6884
 11  8 24  1 12  0.0000000  0  8G10G29G12G04G05G02G25G30
 -47206123.98847 -36672436.44144  22031390.3054                   22031389.5664
   7167946.83645   7385776.25842  24220519.2344                   24220520.4144
 -40061019.13748 -30989454.12946  20859750.2274                   20859748.3014
 -67738024.74646 -52731684.07843  23870954.8834                   23870956.4614
 -36379163.91848 -28214897.96946  20451142.6804                   20451141.0984
 -60149267.27048 -46814208.79346  21119516.8674                   21119513.1054
 -14824268.48047 -11202843.27745  22181883.9304                   22181884.9534
 -11802029.52047  -8434214.63745  22168286.3134                   22168285.3634
 11  8 24  1 12 30.0000000  0  8G10G29G12G04G05G02G25G30
 -47209426.80947 -36675010.07044  22030761.7034                   22030761.3404
   7005137.15245   7258911.66042  24189537.5474                   24189538.3324
 -40130409.46548 -31043524.50046  20846545.6484                   20846544.1484
 -67738436.50846 -52732005.00443  23870876.6884                   23870877.6174
 -36486120.87948 -28298241.02046  20430789.4454                   20430787.8914
 -60202269.17648 -46855508.97746  21109430.9304                   21109426.8484
 -14958158.19547 -11307172.89845  22156405.7814                   22156406.6914
 -11929023.16447  -8533170.69545  22144120.3134                   22144119.2074
 11  8 24  1 13  0.0000000  0  8G10G29G12G04G05G02G25G30
 -47212252.71547 -36677212.07045  22030224.6334                   22030223.3244
   6842326.50846   7132046.27742  24158555.1954                   24158556.5944
 -40199163.07448 -31097098.73446  20833462.4774                   20833460.6414
 -67738836.91846 -52732317.09443  23870800.9454                   23870801.5274
 -36592450.34048 -28381095.10546  20410555.7424                   20410554.0084
 -60255083.01648 -46896662.61746  21099380.7424                   21099376.9804
 -15091487.91847 -11411066.15645  22131034.3364                   22131035.1174
 -12055401.30947  -8631647.13345  22120070.7504                   22120070.3014
 11  8 24  1 13 30.0000000  0  8G10G29G12G04G05G02G25G30
 -47214609.16847 -36679048.23844  22029776.4774                   22029774.9064
   6679511.09045   7005177.18442  24127573.0164                   24127573.3874
 -40267285.15248 -31150180.85946  20820499.1954                   20820497.4494
 -67739230.96546 -52732624.19943  23870725.7344                   23870727.0084
 -36698155.92648 -28463463.07046  20390440.5474                   20390438.7734
 -60307714.23848 -46937673.96146  21089365.2734                   21089361.4844
 -15224260.41847 -11514525.22345  22105768.2274                   22105769.2304
 -12181167.12547  -8729646.44145  22096138.1564                   22096137.3554
 11  8 24  1 14  0.0000000  0  8G10G29G12G04G05G02G25G30
 -47216498.16847 -36680520.19945  22029416.7734                   22029415.5664
   6516692.81645   6878305.90242  24096588.7344                   24096590.3404
 -40334775.07848 -31202770.40246  20807656.0474                   20807654.5434
 -67739618.39546 -52732926.18043  23870652.0474                   23870652.6884
 -36803237.21948 -28545344.55946  20370444.3674                   20370442.2154
 -60360162.89547 -46978543.04746  21079384.5634                   21079381.0664
 -15356473.28948 -11617548.21945  22080608.9064                   22080610.3674
 -12306318.45347  -8827166.92645  22072322.6564                   22072322.0004
 11  8 24  1 14 30.0000000  0  8G10G29G12G04G05G02G25G30
 -47217926.57447 -36681633.25045  22029144.5394                   22029144.0944
   6353868.10245   6751429.54742  24065605.0864                   24065605.6174
 -40401638.28148 -31254871.58246  20794932.1644                   20794930.4964
 -67740004.08246 -52733226.80143  23870578.6884                   23870580.2384
 -36907697.38348 -28626742.05546  20350566.3204                   20350564.3094
 -60412433.96548 -47019273.75446  21069437.9454                   21069434.2234
 -15488128.80948 -11720136.91845  22055556.1954                   22055556.3874
 -12430858.00847  -8924210.70745  22048623.8204                   22048622.6884
 11  8 24  1 15  0.0000000  0  8G10G29G12G04G05G02G25G30
 -47218892.03547 -36682385.57445  22028961.2424                   22028960.3244
   6191043.09045   6624553.03142  24034619.6334                   24034621.1764
 -40467869.87948 -31306480.60546  20782329.3754                   20782327.3984
 -67740383.54746 -52733522.55143  23870507.3204                   23870507.0354
 -37011530.86348 -28707651.22746  20330807.1414                   20330805.7704
 -60464523.32847 -47059862.87546  21059525.5554                   21059522.0234
 -15619220.17647 -11822286.01245  22030609.9844                   22030610.9264
 -12554779.21147  -9020772.67245  22025042.2504                   22025041.2344
 11  8 24  1 15 30.0000000  0  8G10G29G12G04G05G02G25G30
 -47219403.52047 -36682784.14145  22028863.1094                   22028862.8444
   6028213.06345   6497672.55542  24003635.0004                   24003635.1294
 -40533475.83248 -31357602.12146  20769844.7894                   20769842.7854
 -67740763.29346 -52733818.50843  23870434.2424                   23870435.1914
 -37114743.56248 -28788076.67246  20311166.6644                   20311164.7774
 -60516437.73847 -47100315.66846  21049646.8674                   21049643.3554
 -15749751.66047 -11923998.84445  22005770.4774                   22005771.4064
 -12678086.83247  -9116856.50845  22001577.7194                   22001576.5274
 11  8 24  1 16  0.0000000  0  8G10G29G12G04G05G02G25G30
 -47219460.16047 -36682828.27744  22028853.3914                   22028852.0664
   5865382.06645   6370791.31342  23972648.8284                   23972649.4924
 -40598454.00448 -31408234.45346  20757479.8984                   20757477.8524
 -67741140.52046 -52734112.49243  23870363.1334                   23870362.5904
 -37217331.47748 -28868015.27346  20291644.5474                   20291643.1484
 -60568174.61747 -47140630.11746  21039801.2894                   21039798.1024
 -15879718.30948 -12025271.54345  21981038.9384                   21981039.9774
 -12800776.10547  -9212458.52345  21978230.5084                   21978229.7934
 11  8 24  1 16 30.0000000  0  8G10G29G12G04G05G02G25G30
 -47219066.08647 -36682521.24244  22028927.7894                   22028926.5474
   5702549.64145   6243908.98842  23941662.2114                   23941663.7344
 -40662805.94148 -31458378.81246  20745233.8444                   20745232.0044
 -67741517.00046 -52734405.91843  23870291.4384                   23870291.6524
 -37319295.35548 -28947467.62146  20272241.6564                   20272239.9694
 -60619735.93448 -47180807.76646  21029989.3594                   21029985.7544
 -16009119.56247 -12126103.66445  21956414.9774                   21956415.3134
 -12922846.96547  -9307578.65645  21955001.2894                   21955000.3054
 11  8 24  1 17  0.0000000  0  8G10G29G12G04G05G02G25G30
 -47218225.98847 -36681866.64544  22029087.2114                   22029086.5044
   5539715.18445   6117025.10542  23910675.3674                   23910677.2504
 -40726534.49648 -31508037.43046  20733106.8444                   20733104.6564
 -67741895.07846 -52734700.55943  23870219.5314                   23870219.8594
 -37420636.62948 -29026434.80546  20252957.0554                   20252955.2664
 -60671124.26648 -47220850.62546  21020210.4064                   21020207.3714
 -16137955.47748 -12226495.27045  21931897.7894                   21931898.7034
 -13044299.76647  -9402217.18445  21931889.5394                   21931888.9104
 11  8 24  1 17 30.0000000  0  8G10G29G12G04G05G02G25G30
 -47216940.43447 -36680864.92644  22029332.6254                   22029330.9224
   5376881.93045   5990142.11742  23879689.0314                   23879690.9414
 -40789637.60948 -31557208.69146  20721098.6024                   20721096.6094
 -67742272.74246 -52734994.88743  23870148.0704                   23870148.5554
 -37521352.66047 -29104914.79346  20233791.3594                   20233789.6844
 -60722338.47748 -47260757.79746  21010464.6174                   21010460.9964
 -16266222.04347 -12326443.22345  21907489.6724                   21907490.6254
 -13165130.79747  -9496371.22744  21908896.0554                   21908895.0124
 11  8 24  1 18  0.0000000  0  8G10G29G12G04G05G02G25G30
 -47215215.80147 -36679521.05544  22029660.2194                   22029659.2664
   5214047.38746   5863258.11743  23848703.0164                   23848704.5354
 -40852119.49248 -31605895.87546  20709208.6724                   20709206.5314
 -67742654.42246 -52735292.32843  23870075.1024                   23870075.9304
 -37621446.92248 -29182910.28546  20214743.9224                   20214742.2274
 -60773382.45748 -47300532.32446  21000751.6564                   21000747.7034
 -16393921.43448 -12425949.21545  21883189.0784                   21883190.1214
 -13285342.68447  -9590042.82045  21886020.8204                   21886019.9454
 11  8 24  1 18 30.0000000  0  8G10G29G12G04G05G02G25G30
 -47213055.68747 -36677837.86345  22030071.6174                   22030070.7734
   5051211.23446   5736372.84042  23817716.6724                   23817717.6564
 -40913981.98848 -31654100.42646  20697436.8594                   20697434.6024
 -67743041.47346 -52735594.00043  23870001.7274                   23870002.8284
 -37720919.75448 -29260421.54746  20195814.7814                   20195812.9844
 -60824258.03948 -47340175.62146  20991070.3674                   20991066.6884
 -16521052.77047 -12525012.57045  21858996.7034                   21858997.4614
 -13404934.96947  -9683231.59844  21863263.0234                   21863261.8244
 11  8 24  1 19  0.0000000  0  8G10G29G12G04G05G02G25G30
 -47210458.23847 -36675813.89145  22030565.8284                   22030565.2304
   4888379.26646   5609490.85942  23786731.5164                   23786731.2934
 -40975221.27748 -31701819.36746  20685783.2344                   20685781.2774
 -67743429.66446 -52735896.53143  23869927.7814                   23869928.4844
 -37819766.46148 -29337444.92646  20177004.8914                   20177003.0864
 -60874961.44548 -47379684.76646  20981421.6094                   20981418.1764
 -16647609.93448 -12623628.51645  21834914.0234                   21834914.9494
 -13523901.82847  -9775933.03545  21840624.4844                   21840623.6374
 11  8 24  1 19 30.0000000  0  8G10G29G12G04G05G02G25G30
 -45632010.12147 -35445854.32444  22330934.6174                   22330934.0354
   6300974.14846   6710214.14843  24055538.2664                   24055538.6914
 -39460419.71148 -30521454.52046  20974040.6174                   20974038.3204
 -66168403.30146 -51508603.32043  24169644.8984                   24169646.1524
 -36342567.43048 -28186380.71546  20458106.4924                   20458104.7664
 -59350075.74248 -46191462.13346  21271598.0004                   21271594.3164
 -15198170.91448 -11494195.49245  22110732.7424                   22110733.5784
 -12066821.95747  -8640546.11345  22117897.3914                   22117896.4694
 11  8 24  1 20  0.0000000  0  8G10G29G12G04G05G02G25G30
 -45628553.36747 -35443160.77345  22331592.4844                   22331591.3754
   6138146.34446   6583335.43442  24024553.0394                   24024553.7544
 -39520421.96148 -30568209.52746  20962622.7424                   20962620.2814
 -66168802.23446 -51508914.25043  24169569.3054                   24169570.1914
 -36440168.25048 -28262433.27746  20439533.4224                   20439531.6604
 -59400444.32448 -46230710.37546  21262013.0084                   21262009.0824
 -15323581.94147 -11591918.33645  22086867.8984                   22086868.7664
 -12184541.41447  -8732275.55545  22095496.8364                   22095494.9344
 11  8 24  1 20 30.0000000  0  8G10G29G12G04G05G02G25G30
 -45624675.56647 -35440139.11745  22332330.4224                   22332330.0124
   5975317.94546   6456456.19143  23993568.7034                   23993568.5664
 -39579810.89548 -30614486.63346  20951321.1804                   20951319.0044
 -66169211.74646 -51509233.37143  24169491.2814                   24169492.7424
 -36537150.18748 -28338003.58646  20421078.3134                   20421076.2704
 -59450650.90648 -46269832.37946  21252459.3364                   21252455.2034
 -15448421.95348 -11689196.23045  22063111.7114                   22063112.5164
 -12301639.71147  -8823520.96145  22073213.4774                   22073211.8524
 11  8 24  1 21  0.0000000  0  8G10G29G12G04G05G02G25G30
 -45620376.73447 -35436789.39145  22333148.4384                   22333147.9264
   5812493.10946   6329579.72343  23962582.9304                   23962584.0514
 -39638584.78148 -30660284.48046  20940136.8364                   20940134.8204
 -66169629.19546 -51509558.72743  24169412.7114                   24169413.7774
 -36633510.23048 -28413089.30146  20402741.6564                   20402739.9454
 -59500693.41848 -46308826.54346  21242936.3444                   21242932.8754
 -15572686.53548 -11786025.75045  22039464.8284                   22039465.7974
 -12418112.95347  -8914279.31645  22051049.1884                   22051047.8674
 11  8 24  1 21 30.0000000  0  8G10G29G12G04G05G02G25G30
 -45615662.32847 -35433115.85545  22334045.6954                   22334044.4734
   5649670.28946   6202704.84443  23931599.5084                   23931600.0594
 -39696747.19948 -30705605.84846  20929069.1564                   20929066.6724
 -66170057.73046 -51509892.70743  24169330.5704                   24169332.0944
 -36729250.80547 -28487692.32846  20384523.0394                   20384521.3404
 -59550575.21948 -46347695.47746  21233444.0394                   21233440.3594
 -15696376.79347 -11882407.72746  22015926.8364                   22015928.2194
 -12533962.60947  -9004551.74645  22029003.3914                   22029002.4344
 11  8 24  1 22  0.0000000  0  8G10G29G12G04G05G02G25G30
 -45610537.42247 -35429122.42645  22335021.3524                   22335020.0434
   5486848.19146   6075830.54743  23900615.9454                   23900615.8794
 -39754300.96148 -30750452.94546  20918116.6254                   20918114.7234
 -66170500.05946 -51510237.43043  24169247.2344                   24169247.9734
 -36824373.68048 -28561814.02746  20366421.5864                   20366420.1024
 -59600299.16048 -46386441.39546  21223981.9384                   21223978.1374
 -15819493.48848 -11978342.78946  21992499.2894                   21992499.6134
 -12649189.86347  -9094339.18745  22007076.5864                   22007075.9884
 11  8 24  1 22 30.0000000  0  8G10G29G12G04G05G02G25G30
 -45604999.95347 -35424807.54744  22336073.7814                   22336074.2664
   5324032.45746   5948961.21943  23869632.9144                   23869632.6604
 -39811242.25848 -30794822.78946  20907281.3984                   20907279.3014
 -66170951.72746 -51510589.44943  24169161.4694                   24169161.9734
 -36918874.53948 -28635451.03946  20348439.0944                   20348436.8794
 -59649860.83647 -46425060.87545  21214550.6024                   21214546.5164
 -15942030.33648 -12073826.01646  21969180.9224                   21969181.8244
 -12763788.77747  -9183637.01245  21985269.2504                   21985268.1684
 11  8 24  1 23  0.0000000  0  8G10G29G12G04G05G02G25G30
 -45599058.75047 -35420178.06644  22337205.1484                   22337204.3794
   5161218.50446   5822093.26643  23838650.7114                   23838650.0864
 -39867577.94548 -30838720.74246  20896561.4924                   20896559.4804
 -66171419.10546 -51510953.71543  24169071.4224                   24169073.2234
 -37012758.99248 -28708607.73446  20330573.0784                   20330571.3484
 -59699267.45748 -46463559.53545  21205148.7974                   21205145.2234
 -16063991.83648 -12168860.91845  21945972.6094                   21945972.9454
 -12877764.29747  -9272449.08245  21963580.0554                   21963579.0124
 11  8 24  1 23 30.0000000  0  8G10G29G12G04G05G02G25G30
 -45592719.27747 -35415238.23844  22338411.3524                   22338410.4964
   4998404.64846   5695225.37143  23807667.4064                   23807667.3404
 -39923311.52348 -30882149.51646  20885955.2344                   20885953.2974
 -66171905.11746 -51511332.47743  24168978.6484                   24168979.8204
 -37106029.58248 -28781286.09446  20312823.8914                   20312822.8484
 -59748522.16447 -46501939.81645  21195775.9454                   21195772.2344
 -16185379.11348 -12263448.37146  21922873.5474                   21922873.5354
 -12991117.97347  -9360776.59445  21942009.5634                   21942008.5354
 11  8 24  1 24  0.0000000  0  8G10G29G12G04G05G02G25G30
 -45585982.30146 -35409988.66444  22339693.1954                   22339692.7034
   4835594.32446   5568360.28143  23776686.4614                   23776685.4414
 -39978442.27748 -30925108.55546  20875464.0634                   20875462.1804
 -66172408.18746 -51511724.51643  24168883.3834                   24168884.4884
 -37198684.39848 -28853484.62946  20295192.7194                   20295190.8914
 -59797623.61748 -46540200.67645  21186432.3284                   21186428.6684
 -16306188.84848 -12357585.78945  21899883.8834                   21899884.8364
 -13103846.90647  -9448617.28145  21920557.8984                   21920557.3594
 11  8 24  1 24 30.0000000  0  8G10G29G12G04G05G02G25G30
 -45578849.54746 -35404430.70744  22341050.5164                   22341050.4884
   4672789.90246   5441499.74643  23745705.0634                   23745705.0664
 -40032969.62148 -30967597.39146  20865088.0394                   20865086.0824
 -66172927.36746 -51512129.10243  24168784.2664                   24168784.7664
 -37290722.04348 -28925202.25046  20277678.6094                   20277676.6764
 -59846571.03548 -46578341.50846  21177117.4384                   21177114.3094
 -16426418.31247 -12451271.06645  21877004.9144                   21877005.4884
 -13215948.83647  -9535969.39845  21899225.9614                   21899224.2234
 11  8 24  1 25  0.0000000  0  8G10G29G12G04G05G02G25G30
 -45571326.13346 -35398568.34044  22342482.5314                   22342481.8014
   4509989.97346   5314642.73043  23714725.8754                   23714725.4454
 -40086896.93048 -31009618.67646  20854825.9454                   20854824.0354
 -66173465.29746 -51512548.31243  24168681.8914                   24168682.9924
 -37382144.89848 -28996440.82046  20260281.0784                   20260279.0984
 -59895367.56647 -46616364.77345  21167832.3674                   21167828.4304
 -16546068.42648 -12544504.90645  21854236.2504                   21854237.0824
 -13327425.10947  -9622833.99645  21878012.7344                   21878011.4224
 11  8 24  1 25 30.0000000  0  8G10G29G12G04G05G02G25G30
 -45563412.55146 -35392401.92244  22343988.5234                   22343987.1334
   4347197.68046   5187791.64843  23683747.2114                   23683746.6724
 -40140222.78948 -31051171.30146  20844678.4144                   20844676.5634
 -66174020.34846 -51512980.87543  24168576.0784                   24168577.7664
 -37472950.73048 -29067198.58246  20243001.3204                   20242999.2854
 -59944011.87947 -46654269.41446  21158575.6094                   21158571.9064
 -16665135.78548 -12637284.63345  21831578.5084                   21831578.9494
 -13438272.70747  -9709208.71545  21856918.9064                   21856918.2544
 11  8 24  1 26  0.0000000  0  9G26G10G29G12G04G05G02G25G30
  13965723.54756  10917834.17652  24781623.3054                   24781624.7274
 -45555109.54346 -35385932.06244  22345568.2894                   22345567.6884
   4184416.37146   5060949.12143  23652770.9144                   23652770.6564
 -40192946.78948 -31092254.94146  20834645.3134                   20834643.5514
 -66174590.69146 -51513425.33643  24168468.3754                   24168469.5004
 -37563137.66848 -29137474.09846  20225839.4304                   20225837.4454
 -59992501.93747 -46692053.85546  21149348.1884                   21149344.7154
 -16783616.89848 -12729607.55945  21809032.3754                   21809032.7974
 -13548488.58647  -9795091.19545  21835946.2274                   21835944.5514
 11  8 24  1 26 30.0000000  0  9G26G10G29G12G04G05G02G25G30
  13794695.39546  10784565.62142  24749077.3364                   24749079.4024
 -45546433.71947 -35379171.72344  22347219.9304                   22347218.6294
   4021634.05146   4934105.79343  23621794.7274                   23621793.8554
 -40245083.54748 -31132881.00046  20824724.0004                   20824721.9304
 -66175190.43445 -51513892.73843  24168353.2974                   24168355.4574
 -37652719.50048 -29207278.10546  20208792.7424                   20208790.6804
 -60040852.85948 -46729729.89546  21140147.3134                   21140144.0354
 -16901524.18748 -12821483.35245  21786595.1414                   21786595.6804
 -13658085.70747  -9880491.53145  21815090.3364                   21815088.5554
 11  8 24  1 27  0.0000000  0  9G26G10G29G12G04G05G02G25G30
  13623554.21946  10651209.00042  24716509.7344                   24716513.1564
 -45537390.15647 -35372124.81244  22348940.4924                   22348939.8594
   3858849.42246   4807260.68843  23590817.2584                   23590817.5944
 -40296636.14548 -31173051.85546  20814914.1254                   20814911.8324
 -66175821.84045 -51514384.74242  24168232.9924                   24168235.5904
 -37741698.37948 -29276612.27346  20191860.5394                   20191858.4774
 -60089067.13348 -46767299.44546  21130972.1094                   21130969.2194
 -17018858.46148 -12912912.64145  21764266.8984                   21764268.0004
 -13767065.23047  -9965410.59845  21794351.3524                   21794350.6254
 11  8 24  1 27 30.0000000  0  9G26G10G29G12G04G05G02G25G30
  13452305.70346  10517768.66842  24683922.2814                   24683926.7624
 -45527978.91447 -35364791.42644  22350731.5084                   22350730.1054
   3696066.42646   4680416.79343  23559841.4224                   23559840.5354
 -40347603.21547 -31212766.46546  20805215.1884                   20805213.3204
 -66176482.53945 -51514899.65242  24168107.4614                   24168110.4694
 -37830071.62948 -29345474.53147  20175043.3444                   20175041.5784
 -60137142.70747 -46804760.92646  21121824.1644                   21121820.9264
 -17135615.71148 -13003892.30145  21742048.9384                   21742050.0084
 -13875423.59047 -10049845.67645  21773731.9454                   21773730.2074
 11  8 24  1 28  0.0000000  0  9G26G10G29G12G04G05G02G25G30
  13280950.96945  10384245.70342  24651314.5164                   24651319.0904
 -45518204.34847 -35357174.89544  22352591.8914                   22352589.6294
   3533284.55946   4553573.80943  23528864.6804                   23528863.7624
 -40397987.09848 -31252026.64146  20795627.3134                   20795625.3094
 -66177174.57446 -51515438.93442  24167976.4064                   24167978.2894
 -37917841.13348 -29413866.33646  20158341.5004                   20158339.1724
 -60185081.49247 -46842115.81646  21112701.4144                   21112697.8094
 -17251796.25848 -13094422.58245  21719940.4384                   21719941.1564
 -13983161.60247 -10133797.35945  21753229.9694                   21753228.5124
 11  8 24  1 28 30.0000000  0  9G26G10G29G12G04G05G02G25G30
  13109497.86345  10250645.96942  24618687.2894                   24618692.5514
 -45508064.61747 -35349273.83244  22354521.4384                   22354519.5004
   3370510.36746   4426736.79343  23497890.1174                   23497888.7114
 -40447784.40248 -31290829.74246  20786151.4614                   20786149.3284
 -66177893.30546 -51515999.00442  24167839.7664                   24167841.8834
 -38005002.63748 -29481784.36746  20141755.1484                   20141753.5474
 -60232879.33647 -46879360.87145  21103605.8754                   21103602.2664
 -17367394.14148 -13184498.84446  21697943.0944                   21697943.8094
 -14090273.76647 -10217261.37145  21732847.6564                   21732846.3134
 11  8 24  1 29  0.0000000  0  9G26G10G29G12G04G05G02G25G30
  12937951.01645  10116973.33642  24586043.7734                   24586048.3324
 -45497560.48447 -35341088.83244  22356519.9384                   22356518.6914
   3207746.53946   4299907.84843  23466916.6484                   23466916.0904
 -40496994.31648 -31329175.12946  20776786.9454                   20776784.5784
 -66178637.23446 -51516578.68742  24167698.0474                   24167700.4414
 -38091553.85248 -29549226.85246  20125285.1804                   20125283.2624
 -60280534.98848 -46916495.12945  21094537.1564                   21094533.5594
 -17482406.17648 -13274118.59845  21676057.1174                   21676057.9924
 -14196757.31247 -10300235.55545  21712583.9064                   21712582.7934
 11  8 24  1 29 30.0000000  0  9G26G10G29G12G04G05G02G25G30
  14341736.27345  11210832.17242  24853174.7344                   24853178.6024
 -43911277.88347 -34105024.52044  22658379.0084                   22658378.4304
   4620417.17646   5400690.18043  23735738.8134                   23735738.6094
 -38970199.19547 -30139464.65246  21067326.5784                   21067324.7704
 -64603989.15746 -50289580.23342  24467343.4694                   24467345.9804
 -36602075.13748 -28388594.06646  20408723.1414                   20408721.2344
 -58752630.26647 -45725920.00445  21385287.6484                   21385283.8794
 -16021410.05148 -12135680.05945  21954075.3754                   21954076.1094
 -12727190.79347  -9155118.76645  21992233.3524                   21992231.5354
 11  8 24  1 30  0.0000000  0  9G26G10G29G12G04G05G02G25G30
  14170003.16446  11077014.30943  24820495.0784                   24820498.2464
 -43900061.23447 -34096284.31644  22660513.6954                   22660512.9614
   4457670.60946   5273874.70343  23704769.5004                   23704768.9734
 -39018245.66848 -30176903.46546  21058183.5314                   21058181.7234
 -64604791.43046 -50290205.40642  24467191.2344                   24467193.4454
 -36687414.50848 -28455092.26646  20392484.0864                   20392481.7344
 -58800010.85247 -45762839.94145  21376271.4304                   21376267.7974
 -16135254.28548 -12224389.84445  21932411.8674                   21932412.2774
 -12832422.57847  -9237117.55945  21972208.0944                   21972207.3404
 11  8 24  1 30 30.0000000  0  9G26G10G29G12G04G05G02G25G30
  13998181.34046  10943127.31643  24787798.7974                   24787800.7464
 -43888492.85246 -34087269.98844  22662714.9454                   22662714.3284
   4294934.40646   5147067.27343  23673801.8594                   23673801.6764
 -39065712.34448 -30213890.48446  21049150.7424                   21049149.1524
 -64605623.39546 -50290853.70342  24467032.4384                   24467034.7854
 -36772148.12548 -28521118.44546  20376359.9064                   20376357.7734
 -58847254.99648 -45799653.55145  21367281.2274                   21367277.1374
 -16248513.08648 -12312643.45345  21910859.0554                   21910859.6994
 -12937027.61747  -9318627.96545  21952302.5084                   21952301.0394
 11  8 24  1 31  0.0000000  0  9G26G10G29G12G04G05G02G25G30
  13826274.42246  10809174.01643  24755085.5784                   24755087.4734
 -43876574.63746 -34077983.12944  22664983.0944                   22664982.6604
   4132210.87146   5020269.75043  23642836.2664                   23642835.9144
 -39112599.87947 -30250426.24246  21040228.5784                   21040226.5704
 -64606484.63346 -50291524.83642  24466868.7504                   24466871.0274
 -36856276.04348 -28586672.66046  20360350.7274                   20360348.2114
 -58894362.27347 -45836360.51245  21358317.0554                   21358313.3404
 -16361184.43748 -12400439.30945  21889418.4774                   21889418.9454
 -13041004.32847  -9399648.78945  21932516.4454                   21932515.8674
 11  8 24  1 31 30.0000000  0  9G26G10G29G12G04G05G02G25G30
  13654283.72746  10675155.45743  24722357.0084                   24722358.5474
 -43864311.18446 -34068427.22744  22667317.2734                   22667316.1804
   3969499.53146   4893481.75843  23611873.1254                   23611872.5634
 -39158911.10248 -30286512.91846  21031415.7814                   21031413.9964
 -64607376.87146 -50292220.15242  24466698.9614                   24466701.0004
 -36939800.02048 -28651756.26646  20344456.7114                   20344454.6454
 -58941334.91047 -45872962.55545  21349378.6254                   21349374.5634
 -16473268.95347 -12487777.90245  21868089.3984                   21868090.3874
 -13144353.85547  -9480180.89545  21912849.6884                   21912848.8674
 11  8 24  1 32  0.0000000  0  9G26G10G29G12G04G05G02G25G30
  13482214.09046  10541075.35243  24689612.5634                   24689614.6024
 -43851703.29347 -34058602.92644  22669715.9064                   22669715.3794
   3806803.62946   4766705.78543  23580913.1254                   23580912.3874
 -39204645.62948 -30322150.20746  21022712.7274                   21022710.5784
 -64608298.51246 -50292938.32443  24466523.9144                   24466525.4264
 -37022718.40248 -28716367.96546  20328677.8834                   20328675.8634
 -58988171.58648 -45909458.65645  21340466.0554                   21340462.0164
 -16584763.58647 -12574656.83645  21846872.9774                   21846873.3554
 -13247073.70347  -9560222.33245  21893302.9694                   21893302.0234
 11  8 24  1 32 30.0000000  0  9G26G10G29G12G04G05G02G25G30
  13310063.81646  10406932.44142  24656853.6024                   24656855.0944
 -43838758.43746 -34048516.03944  22672178.9844                   22672179.1174
   3644119.94146   4639939.33643  23549955.6024                   23549955.1684
 -39249809.02048 -30357342.46946  21014118.5784                   21014116.5474
 -64609254.23046 -50293683.11342  24466341.7814                   24466343.0784
 -37105036.36748 -28780511.81246  20313012.9304                   20313010.7894
 -59034877.26248 -45945852.68746  21331577.6804                   21331574.7974
 -16695671.94548 -12661078.94146  21825767.4224                   21825768.1994
 -13349167.88747  -9639776.25045  21873874.9534                   21873873.6054
 11  8 24  1 33  0.0000000  0  9G26G10G29G12G04G05G02G25G30
  13137838.85546  10272731.26242  24624080.6024                   24624081.5594
 -43825476.70346 -34038166.68044  22674707.0944                   22674706.9264
   3481452.55146   4513185.59443  23519001.5314                   23519000.5784
 -39294400.23847 -30392088.87946  21005633.2584                   21005631.0394
 -64610241.53146 -50294452.48843  24466155.1334                   24466156.1764
 -37186751.49248 -28844185.91446  20297463.1804                   20297461.2304
 -59081449.96548 -45982143.10246  21322715.3754                   21322712.0984
 -16805990.16847 -12747041.19546  21804775.0704                   21804775.7734
 -13450633.00847  -9718839.98045  21854567.2114                   21854565.4454
 11  8 24  1 33 30.0000000  0  9G26G10G29G12G04G05G02G25G30
  12965541.21545  10138473.44142  24591292.7504                   24591294.4264
 -43811861.67646 -34027557.60944  22677297.8594                   22677297.7774
   3318802.14846   4386445.12544  23488049.4614                   23488048.8364
 -39338421.33647 -30426391.04746  20997255.9924                   20997254.1484
 -64611261.59046 -50295247.39143  24465960.3284                   24465961.7704
 -37267864.82847 -28907391.09046  20282028.1094                   20282025.6334
 -59127891.02347 -46018330.93746  21313877.8444                   21313874.2854
 -16915718.09448 -12832543.47746  21783894.1564                   21783894.7194
 -13551469.51247  -9797413.87545  21835378.1484                   21835377.0824
 11  8 24  1 34  0.0000000  0  9G26G10G29G12G04G05G02G25G30
  12793175.66445  10004162.74242  24558492.1644                   24558494.3164
 -43797914.41046 -34016689.67244  22679951.8134                   22679951.0204
   3156171.56346   4259720.09044  23457101.8914                   23457101.6844
 -39381871.89848 -30460248.62946  20988987.4144                   20988985.9964
 -64612312.44146 -50296066.27343  24465760.4924                   24465761.8554
 -37348375.14548 -28970126.38746  20266707.5634                   20266704.6454
 -59174198.83647 -46054414.94146  21305065.9064                   21305062.2504
 -17024852.89147 -12917583.57445  21763126.6174                   21763127.1764
 -13651675.01647  -9875496.09445  21816309.6884                   21816308.7464
 11  8 24  1 34 30.0000000  0  9G26G10G29G12G04G05G02G25G30
  12620743.13345   9869799.80942  24525680.1094                   24525682.4454
 -43783640.41846 -34005567.11744  22682667.8284                   22682667.0044
   2993560.02346   4133009.89143  23426157.6254                   23426157.5514
 -39424755.85948 -30493664.71546  20980827.2734                   20980825.6134
 -64613396.90646 -50296911.33643  24465554.0944                   24465555.7504
 -37428285.19548 -29032393.93746  20251500.8204                   20251498.3634
 -59220376.79347 -46090397.75846  21296278.5704                   21296274.9184
 -17133395.97748 -13002162.60545  21742471.3054                   21742472.2734
 -13751251.41847  -9953088.10545  21797360.9064                   21797360.0314
 11  8 24  1 35  0.0000000  0  9G26G10G29G12G04G05G02G25G30
  12448249.45346   9735389.24642  24492855.2034                   24492857.2074
 -43769039.10946 -33994189.48843  22685447.0554                   22685445.7704
   2830972.01646   4006318.03544  23395218.4064                   23395217.3014
 -39467071.71547 -30526638.10946  20972774.9534                   20972773.0594
 -64614511.95746 -50297780.23443  24465342.0164                   24465343.5554
 -37507592.41048 -29094191.74246  20236409.1174                   20236406.8134
 -59266422.09047 -46126277.21145  21287516.6564                   21287512.9774
 -17241343.36747 -13086277.45745  21721930.0634                   21721930.5274
 -13850195.28947 -10030187.22745  21778532.9844                   21778531.7854
 11  8 24  1 35 30.0000000  0  9G26G10G29G12G04G05G02G25G30
  12275694.56646   9600930.96942  24460018.7734                   24460021.4384
 -43754116.48846 -33982561.51244  22688286.6884                   22688285.4384
   2668405.46946   3879642.89544  23364282.8204                   23364281.9804
 -39508823.84848 -30559172.24646  20964830.1094                   20964827.9574
 -64615661.10246 -50298675.69543  24465123.4694                   24465124.7584
 -37586300.64848 -29155522.81246  20221431.5004                   20221429.3634
 -59312338.00447 -46162055.82445  21278778.9774                   21278775.1564
 -17348697.43747 -13169929.96946  21701500.8754                   21701501.4304
 -13948509.43747 -10106795.64845  21759824.0554                   21759823.3554
 11  8 24  1 36  0.0000000  0  9G26G10G29G12G04G05G02G25G30
  12103083.49646   9466428.94143  24427171.6024                   24427174.8284
 -43738873.59446 -33970683.97344  22691186.9224                   22691185.9104
   2505863.88746   3752987.19544  23333352.0084                   23333351.6174
 -39550011.92248 -30591266.85546  20956991.7424                   20956990.0554
 -64616842.46146 -50299596.28943  24464899.2504                   24464900.8094
 -37664408.28147 -29216385.87146  20206568.1024                   20206566.2504
 -59358123.18047 -46197732.57845  21270066.6174                   21270062.6954
 -17455455.08648 -13253117.75045  21681185.6334                   21681186.1954
 -14046191.33647 -10182911.41445  21741235.7274                   21741234.6294
 11  8 24  1 36 30.0000000  0  9G26G10G29G12G04G05G02G25G30
  11930416.92646   9331883.68043  24394315.2974                   24394316.9184
 -43723315.63746 -33958560.92644  22694147.9924                   22694146.4494
   2343346.30146   3626350.18444  23302425.9064                   23302425.3674
 -39590640.14148 -30622925.21146  20949260.3204                   20949258.6214
 -64618058.52746 -50300543.91443  24464666.9224                   24464668.7544
 -37741918.61347 -29276783.50846  20191818.3284                   20191816.1914
 -59403780.82447 -46233309.97345  21261377.6564                   21261374.3954
 -17561618.14148 -13335842.20745  21660983.1334                   21660984.1024
 -14143243.35547 -10258536.35545  21722767.6884                   21722766.0864
 11  8 24  1 37  0.0000000  0  9G26G10G29G12G04G05G02G25G30
  11757696.65646   9197296.56343  24361447.2664                   24361449.3554
 -43707446.81246 -33946195.60544  22697168.5084                   22697166.5044
   2180852.94546   3499732.05944  23271504.1094                   23271503.8984
 -39630710.87948 -30654149.17646  20941635.5944                   20941633.7034
 -64619310.76246 -50301519.71143  24464428.7424                   24464429.8874
 -37818833.30548 -29336717.00446  20177181.9774                   20177179.8404
 -59449312.53147 -46268789.22346  21252713.1724                   21252709.8244
 -17667186.74647 -13418103.46145  21640894.1884                   21640895.0434
 -14239666.07047 -10333670.93745  21704418.7344                   21704417.5084
 11  8 24  1 37 30.0000000  0  9G26G10G29G12G04G05G02G25G30
  11584922.82046   9062667.69543  24328568.5864                   24328571.4454
 -43691272.89847 -33933592.59044  22700245.3674                   22700244.8054
   2018382.18446   3373131.52344  23240587.0784                   23240586.4104
 -39670228.96948 -30684942.50046  20934115.3524                   20934113.6054
 -64620602.10546 -50302525.95743  24464181.9454                   24464184.0234
 -37895155.69548 -29396188.95746  20162658.3444                   20162655.6454
 -59494721.80147 -46304173.08245  21244072.3054                   21244068.7704
 -17772163.15248 -13499903.25046  21620917.9924                   21620918.6724
 -14335462.36347 -10408317.39545  21686189.2814                   21686188.5434
 11  8 24  1 38  0.0000000  0  9G26G10G29G12G04G05G02G25G30
  11412099.52346   8928000.30943  24295682.0314                   24295683.9694
 -43674795.88746 -33920753.39544  22703381.2584                   22703380.8524
   1855936.44546   3246550.48044  23209674.3594                   23209673.4774
 -39709195.08248 -30715305.71546  20926700.6954                   20926698.4884
 -64621931.80946 -50303562.16042  24463929.7504                   24463930.1054
 -37970885.65648 -29455199.28946  20148247.3134                   20148244.8834
 -59540008.06647 -46339461.08645  21235454.5704                   21235450.8754
 -17876545.63348 -13581240.24245  21601054.4384                   21601055.2154
 -14430630.94147 -10482474.71945  21668079.3284                   21668078.4064
 11  8 24  1 38 30.0000000  0  9G26G10G29G12G04G05G02G25G30
  11239230.38346   8793297.23443  24262785.4694                   24262787.9104
 -43658017.93446 -33907679.67244  22706573.6804                   22706573.1724
   1693517.79746   3119990.52044  23178767.1564                   23178766.8244
 -39747610.33648 -30745239.68446  20919390.1564                   20919388.3834
 -64623299.52746 -50304627.94142  24463671.3754                   24463670.7234
 -38046023.38748 -29513748.13346  20133949.1334                   20133946.6254
 -59585171.25047 -46374653.19145  21226860.1414                   21226856.7894
 -17980332.87148 -13662113.40245  21581304.7424                   21581305.1564
 -14525171.08647 -10556142.37145  21650088.7424                   21650087.7664
 11  8 24  1 39  0.0000000  0  9G26G10G29G12G04G05G02G25G30
  11066313.30946   8658556.78943  24229880.9384                   24229882.1414
 -43640946.84846 -33894377.54344  22709821.6094                   22709821.3524
   1531122.54746   2993448.78944  23147864.3674                   23147864.1684
 -39785481.11748 -30774749.38746  20912183.9224                   20912181.8094
 -64624710.25846 -50305727.21143  24463401.4924                   24463402.2704
 -38120574.60548 -29571839.96546  20119762.2974                   20119760.2504
 -59630216.79747 -46409753.62945  21218288.5784                   21218284.8204
 -18083529.19548 -13742526.11345  21561667.2584                   21561667.8444
 -14619087.59447 -10629324.05545  21632217.3054                   21632215.9534
 11  8 24  1 39 30.0000000  0  9G26G10G29G12G04G05G02G25G30
  12468784.13346   9751391.28542  24496761.7034                   24496763.6174
 -42048159.35946 -32653244.45744  23012918.9304                   23012918.9614
   2944184.56646   4094536.11744  23416761.2194                   23416760.6334
 -38247381.30948 -29576230.07046  21204874.3834                   21204872.3324
 -63050737.53546 -49079254.98842  24762918.1884                   24762919.8754
 -36619110.77748 -28401868.11746  20405481.2584                   20405479.2344
 -58099716.89147 -45217156.30545  21509532.6254                   21509529.3164
 -16610703.69948 -12594869.87545  21841936.5004                   21841937.0634
 -13136950.46947  -9474411.99645  21914258.5944                   21914257.4264
 11  8 24  1 40  0.0000000  0  9G26G10G29G12G04G05G02G25G30
  12295794.48046   9616594.35542  24463842.6024                   24463845.0164
 -42030496.98846 -32639481.60544  23016280.3754                   23016279.9654
   2781854.33646   3968045.05944  23385871.2274                   23385870.5354
 -38284155.04348 -29604884.92646  21197876.5234                   21197874.6914
 -63052221.44146 -49080411.35542  24762635.5944                   24762638.2774
 -36692477.60547 -28459037.04346  20391520.1414                   20391517.9804
 -58144514.67247 -45252063.68745  21501008.3524                   21501004.5164
 -16712702.45747 -12674349.39846  21822526.7734                   21822527.2704
 -13229605.64547  -9546610.82045  21896627.0784                   21896625.6724
 11  8 24  1 40 30.0000000  0  9G26G10G29G12G04G05G02G25G30
  12122770.56346   9481770.66042  24430917.3674                   24430919.6414
 -42012546.12146 -32625493.95344  23019696.2194                   23019696.1884
   2619556.29746   3841579.10244  23354986.8754                   23354986.1884
 -38320385.52748 -29633116.48046  21190981.9774                   21190980.1484
 -63053744.75446 -49081598.41842  24762346.8834                   24762349.4844
 -36765256.13348 -28515747.55546  20377671.0004                   20377668.8284
 -58189192.11347 -45286877.28145  21492506.5084                   21492502.1214
 -16814104.09048 -12753363.64846  21803230.6414                   21803231.0554
 -13321632.69547  -9618320.19945  21879114.3834                   21879113.5274
 11  8 24  1 41  0.0000000  0  9G26G10G29G12G04G05G02G25G30
  11949718.91046   9346925.37543  24397986.3984                   24397989.0634
 -41994305.92647 -32611280.84443  23023167.6094                   23023166.7854
   2457295.09046   3715141.80144  23324109.7894                   23324108.5004
 -38356070.87548 -29660923.24646  21184191.3674                   21184189.4304
 -63055303.91446 -49082813.40642  24762049.6724                   24762052.4344
 -36837443.39548 -28571997.34446  20363933.7974                   20363931.8874
 -58233746.09847 -45321594.68045  21484028.1254                   21484024.4654
 -16914904.61348 -12831909.48446  21784048.8054                   21784049.2544
 -13413028.01647  -9689537.32445  21861722.6254                   21861721.7934
 11  8 24  1 41 30.0000000  0  8G26G10G29G12G05G02G25G30
  11776636.66846   9212056.28142  24365049.8444                   24365052.1374
 -41975785.33647 -32596849.24644  23026692.5234                   23026691.6914
   2295066.52746   3588729.99644  23293238.1254                   23293237.3484
 -38391218.62548 -29688311.11346  21177503.1334                   21177501.4224
 -36909046.41448 -28627791.87946  20350308.0784                   20350305.9344
 -58278182.87147 -45356220.73845  21475571.9924                   21475568.5354
 -17015109.34848 -12909991.06646  21764980.6024                   21764981.1134
 -13503797.61748  -9760266.88345  21844449.8984                   21844448.3244
 11  8 24  1 42  0.0000000  0  8G26G10G29G12G05G02G25G30
  11603526.86346   9077165.65243  24332108.9384                   24332109.6914
 -41956987.27747 -32582201.44544  23030269.8594                   23030268.6054
   2132871.49246   3462344.28944  23262373.9614                   23262372.5744
 -38425831.64148 -29715282.30546  21170916.3914                   21170914.2934
 -36980066.02748 -28683131.81646  20336793.6954                   20336791.3054
 -58322502.98047 -45390755.87945  21467138.0084                   21467134.4264
 -17114717.87948 -12987608.08246  21746025.7734                   21746026.4734
 -13593941.61347  -9830508.95345  21827295.5314                   21827294.2854
 11  8 24  1 42 30.0000000  0  8G26G10G29G12G05G02G25G30
  11430394.59446   8942257.50043  24299162.4384                   24299163.5394
 -41937912.80546 -32567338.25844  23033898.7114                   23033898.7774
   1970713.57846   3335987.52744  23231515.7424                   23231515.2384
 -38459909.42648 -29741836.42646  21164431.3754                   21164429.2814
 -37050501.59448 -28738016.66446  20323390.2894                   20323387.8594
 -58366705.14547 -45425199.11745  21458726.8444                   21458723.4654
 -17213727.80948 -13064758.65246  21727184.8444                   21727185.6914
 -13683458.06247  -9900262.02045  21810261.3364                   21810260.5904
 11  8 24  1 43  0.0000000  0  8G26G10G29G12G05G02G25G30
  11257248.05946   8807338.24243  24266213.8594                   24266215.4144
 -41918559.53146 -32552257.82444  23037581.8674                   23037581.1174
   1808599.82046   3209665.16044  23200666.9534                   23200666.0274
 -38493448.73848 -29767970.96146  21158049.5634                   21158047.3014
 -37120348.72348 -28792442.98046  20310099.1724                   20310096.7624
 -58410784.49647 -45459546.66045  21450338.8754                   21450335.5514
 -17312133.51648 -13141438.39846  21708458.6724                   21708459.6134
 -13772341.98448  -9969522.21145  21793347.5944                   21793346.5744
 11  8 24  1 43 30.0000000  0  8G26G10G29G12G05G02G25G30
  11084088.81646   8672409.08643  24233262.8134                   24233263.5164
 -41898932.00846 -32536963.68443  23041316.9384                   23041316.0904
   1646529.74246   3083376.83644  23169825.1484                   23169824.8484
 -38526452.76648 -29793688.39846  21151768.8594                   21151766.7234
 -37189609.88748 -28846412.69946  20296918.7894                   20296916.7234
 -58454742.98447 -45493800.01245  21441973.6024                   21441970.2734
 -17409936.03148 -13217648.12946  21689847.4304                   21689848.4964
 -13860594.94148 -10038290.71945  21776553.8524                   21776552.6804
 11  8 24  1 44  0.0000000  0  8G26G10G29G12G05G02G25G30
  10910916.53546   8537469.77343  24200308.6564                   24200310.3444
 -41879036.90646 -32521461.00443  23045102.5164                   23045101.4264
   1484500.99246   2957120.71944  23138993.2894                   23138991.6254
 -38558927.35248 -29818993.28946  21145589.1564                   21145587.2234
 -37258289.82848 -28899929.53146  20283849.6094                   20283847.2894
 -58498585.17648 -45527962.75446  21433630.6334                   21433627.4774
 -17507138.93048 -13293390.62146  21671350.1884                   21671351.2504
 -13948221.13347 -10106570.86345  21759879.1024                   21759877.2114
 11  8 24  1 44 30.0000000  0  8G26G10G29G12G05G02G25G30
  10737736.42646   8402524.32443  24167354.3364                   24167354.7934
 -41858874.72346 -32505750.21943  23048939.0944                   23048938.7664
   1322517.81347   2830900.12144  23108168.3984                   23108167.3364
 -38590871.98048 -29843885.22346  21139510.5164                   21139508.5664
 -37326387.19948 -28952992.40246  20270890.9144                   20270888.5904
 -58542308.75848 -45562033.07046  21425310.7114                   21425307.6024
 -17603739.12948 -13368663.48446  21652968.0944                   21652968.8364
 -14035217.93747 -10174360.56645  21743323.9614                   21743322.8164
 11  8 24  1 45  0.0000000  0  8G26G10G29G12G05G02G25G30
  10564550.14846   8267574.13743  24134397.0234                   24134397.8714
 -41838450.14846 -32489834.99643  23052825.2974                   23052826.1254
   1160579.79746   2704714.71944  23077352.0944                   23077351.4304
 -38622290.39548 -29868367.12946  21133531.4614                   21133529.8714
 -37393904.76248 -29005603.47346  20258042.8524                   20258040.6524
 -58585915.98048 -45596012.71546  21417012.6094                   21417009.0234
 -17699738.05948 -13443467.83246  21634700.0004                   21634700.6134
 -14121587.39848 -10241661.43745  21726888.1724                   21726886.4804
 11  8 24  1 45 30.0000000  0  8G26G10G29G12G05G02G25G30
  10391362.53546   8132622.86343  24101440.3754                   24101442.1884
 -41817764.08246 -32473716.01243  23056762.8204                   23056762.7234
    998689.97347   2578566.85544  23046546.2664                   23046545.0984
 -38653182.62148 -29892439.01246  21127653.0634                   21127651.3094
 -37460841.83248 -29057762.22346  20245305.1334                   20245302.9614
 -58629405.46948 -45629900.61746  21408736.5704                   21408733.5084
 -17795133.87548 -13517802.22746  21616546.8444                   21616547.5824
 -14207328.20348 -10308472.44145  21710572.3364                   21710571.1334
 11  8 24  1 46  0.0000000  0  8G26G10G29G12G05G02G25G30
  10218169.62946   7997667.44143  24068483.6484                   24068483.8594
 -41796826.54746 -32457401.09443  23060746.6724                   23060747.0044
    836843.50846   2452452.77344  23015747.7504                   23015746.7704
 -38683558.03148 -29916108.18746  21121872.8594                   21121870.6994
 -37527206.46548 -29109474.91846  20232676.5004                   20232673.8794
 -58672784.69548 -45663702.58646  21400481.9924                   21400478.6844
 -17889932.98848 -13591671.64546  21598507.2274                   21598507.9024
 -14292447.39547 -10374799.07845  21694374.7034                   21694373.2734
 11  8 24  1 46 30.0000000  0  8G26G10G29G12G05G02G25G30
  10044977.24246   7862712.43043  24035526.0474                   24035526.8524
 -41775638.12546 -32440890.67243  23064778.4304                   23064778.3364
    675043.75847   2326375.10244  22984957.9144                   22984956.7114
 -38713416.35548 -29939374.43746  21116190.8594                   21116189.1054
 -37592997.59048 -29160740.72346  20220156.6644                   20220154.7154
 -58716051.59448 -45697417.03946  21392248.8054                   21392244.8634
 -17984133.00848 -13665074.24646  21580581.4454                   21580582.1844
 -14376943.11347 -10440639.88745  21678295.5784                   21678294.2734
 11  8 24  1 47  0.0000000  0  8G26G10G29G12G05G02G25G30
   9871791.23846   7727762.37543  24002569.5474                   24002570.5704
 -41754198.83646 -32424184.73443  23068858.8834                   23068858.1414
    513295.05147   2200337.19544  22954178.2894                   22954176.9734
 -38742756.82048 -29962237.16046  21110607.8984                   21110605.9804
 -37658213.36748 -29211558.19546  20207746.5554                   20207744.1174
 -58759203.80948 -45731042.12545  21384036.5234                   21384033.2344
 -18077730.78148 -13738007.57046  21562770.3524                   21562770.9804
 -14460812.76247 -10505992.85245  21662335.5704                   21662334.6294
 11  8 24  1 47 30.0000000  0  8G26G10G29G12G05G02G25G30
   9698614.15646   7592819.33643  23969615.2114                   23969615.8134
 -41732512.04746 -32407285.97743  23072985.6024                   23072984.6254
    351598.41847   2074339.86344  22923408.0164                   22923406.9654
 -38771581.94948 -29984698.32046  21105122.6254                   21105120.5314
 -37722855.98048 -29261929.05946  20195444.9534                   20195443.3714
 -58802242.70348 -45764578.91846  21375847.1414                   21375843.1374
 -18170726.74248 -13810471.94946  21545073.7504                   21545074.2974
 -14544057.31647 -10570858.74645  21646494.6484                   21646493.7304
 11  8 24  1 48  0.0000000  0  8G26G10G29G12G05G02G25G30
   9525449.60246   7457886.02043  23936662.3204                   23936663.7894
 -41710580.79346 -32390196.69543  23077158.9454                   23077157.5594
    189955.68046   1948384.52344  22892648.7894                   22892647.4884
 -38799893.62948 -30006759.37946  21099734.7894                   21099732.9104
 -37786925.93047 -29311853.68446  20183253.5084                   20183251.1524
 -58845168.07047 -45798027.25446  21367677.9774                   21367674.5044
 -18263120.48048 -13882467.06646  21527491.8054                   21527492.5434
 -14626677.06647 -10635237.77045  21630772.8444                   21630771.3984
 11  8 24  1 48 30.0000000  0  8G26G10G29G12G05G02G25G30
   9352296.54346   7322961.66043  23903711.2504                   23903713.1024
 -41688411.64546 -32372922.06243  23081377.1484                   23081376.5004
     28364.41847   1822469.28544  22861898.9454                   22861897.6564
 -38827697.73448 -30028424.92646  21094443.9694                   21094442.5044
 -37850428.51648 -29361336.20346  20171169.2814                   20171167.0554
 -58887984.34448 -45831390.58245  21359530.3444                   21359526.8014
 -18354915.80148 -13953995.87946  21510023.6954                   21510024.0124
 -14708676.29347 -10699133.26645  21615168.8984                   21615167.7504
 11  8 24  1 49  0.0000000  0  8G26G10G29G12G05G02G25G30
   9179157.75446   7188048.43843  23870765.2274                   23870766.2344
 -41666008.06247 -32355464.75044  23085640.7274                   23085640.4064
   -133174.14547   1696595.11344  22831159.6174                   22831158.0274
 -38854997.73447 -30049697.66446  21089248.8134                   21089247.5124
 -37913365.33648 -29410377.86746  20159192.8204                   20159190.4964
 -58930692.38747 -45864669.56645  21351403.7974                   21351399.7774
 -18446113.11748 -14025058.72746  21492669.7274                   21492669.9184
 -14790056.03547 -10762546.05945  21599682.4224                   21599681.9614
 11  8 24  1 49 30.0000000  0  8G26G10G29G12G05G02G25G30
  10581467.24646   8280757.25043  24137615.7664                   24137616.5634
 -40067948.88747 -31110223.83244  23389741.3754                   23389741.7344
   1280771.68047   2798371.10244  23100223.9774                   23100223.2114
 -37306369.29748 -28842974.21946  21383942.9924                   21383941.4104
 -36400311.00848 -28231374.48046  20447117.3594                   20447115.0554
 -57397866.17248 -44670259.52345  21643090.4774                   21643087.0784
 -16961284.35248 -12868049.29346  21775222.5704                   21775223.6254
 -13295389.06247  -9597870.48845  21884108.8984                   21884107.4804
 11  8 24  1 50  0.0000000  0  8G26G10G29G12G05G02G25G30
  10408376.50846   8145881.42243  24104678.1334                   24104678.3204
 -40045075.52046 -31092400.45344  23394093.6564                   23394094.9414
   1119352.60247   2672590.02344  23069506.6804                   23069505.8554
 -37332656.90648 -28863458.08646  21378941.1414                   21378938.9734
 -36462110.98448 -28279530.28546  20435357.4384                   20435355.0354
 -57440349.28948 -44703363.25045  21635006.4384                   21635002.9384
 -17051275.70348 -12938172.42646  21758098.5634                   21758099.0394
 -13375521.61747  -9660311.44545  21868859.8444                   21868858.7304
 11  8 24  1 50 30.0000000  0  8G26G10G29G12G05G02G25G30
  10235308.24246   8011023.16843  24071743.6884                   24071744.3204
 -40021978.03946 -31074402.44143  23398489.3984                   23398489.6954
    957989.00447   2546852.18444  23038800.5554                   23038799.2424
 -37358448.20348 -28883555.19946  21374033.0474                   21374030.8674
 -36523350.80147 -28327249.60946  20423703.3364                   20423701.5704
 -57482726.90248 -44736384.75445  21626942.4384                   21626938.6094
 -17140670.44947 -13007830.65646  21741086.8674                   21741087.9024
 -13455037.80547  -9722272.09445  21853728.1414                   21853727.5744
 11  8 24  1 51  0.0000000  0  8G26G10G29G12G05G02G25G30
  10062264.68046   7876184.13743  24038814.4384                   24038814.8594
 -39998660.24646 -31056232.75043  23402926.7194                   23402927.0164
    796681.59047   2421158.09844  23008104.9304                   23008103.9024
 -37383746.25047 -28903267.97346  21369218.8674                   21369216.9414
 -36584033.14848 -28374534.53546  20412155.7734                   20412153.9304
 -57525000.51248 -44769325.22745  21618897.9614                   21618894.4694
 -17229469.53548 -13077024.74246  21724188.7424                   21724189.5824
 -13533939.19147  -9783753.69145  21838713.9844                   21838712.8984
 11  8 24  1 51 30.0000000  0  8G26G10G29G12G05G02G25G30
   9889254.49246   7741371.11743  24005891.7114                   24005891.9144
 -39975119.55947 -31037889.36343  23407406.1564                   23407405.8134
    635437.60947   2295513.43844  22977421.0944                   22977420.3054
 -37408547.52048 -28922593.65646  21364499.1414                   21364497.5164
 -36644153.65648 -28421381.65646  20400715.3594                   20400713.1414
 -57567164.93748 -44802180.63345  21610874.2974                   21610870.9304
 -17317667.46948 -13145750.39846  21707405.4774                   21707406.3984
 -13612220.81647  -9844752.34445  21823817.1094                   21823816.3914
 11  8 24  1 52  0.0000000  0  8G26G10G29G12G05G02G25G30
   9716276.81346   7606583.42643  23972974.4304                   23972975.0554
 -39951362.65647 -31019377.48443  23411926.8444                   23411926.3794
    474254.46947   2169916.19144  22946748.4304                   22946747.5274
 -37432859.14548 -28941537.78146  21359872.9304                   21359871.2304
 -36703717.61748 -28467795.11346  20389380.8524                   20389378.5044
 -57609224.72348 -44834954.49645  21602870.6804                   21602867.0394
 -17405268.51648 -13214010.94146  21690735.7814                   21690736.0864
 -13689887.59047  -9905271.89845  21809038.2194                   21809037.0554
 11  8 24  1 52 30.0000000  0  8G26G10G29G12G05G02G25G30
   9543333.26246   7471822.32443  23940064.9384                   23940065.7504
 -39927394.49247 -31000701.00443  23416488.2584                   23416487.1054
    313132.21947   2044366.40644  22916088.5864                   22916086.8794
 -37456684.81247 -28960103.25046  21355339.0164                   21355337.2584
 -36762728.10248 -28513777.29746  20378151.7344                   20378149.5474
 -57651181.52347 -44867648.11345  21594886.3834                   21594883.1454
 -17492274.30948 -13281807.64846  21674178.6334                   21674179.9574
 -13766941.69147  -9965314.05545  21794374.8834                   21794374.0594
 11  8 24  1 53  0.0000000  0  8G26G10G29G12G05G02G25G30
   9370429.67246   7337092.34043  23907162.4694                   23907162.6294
 -39903215.53947 -30981860.29343  23421089.4454                   23421088.0554
    152074.73047   1918867.08644  22885439.5864                   22885439.1954
 -37480024.39848 -28978289.94946  21350897.5314                   21350895.5784
 -36821184.50448 -28559327.72746  20367027.8914                   20367025.7234
 -57693033.83248 -44900260.31245  21586922.1884                   21586918.5984
 -17578682.66448 -13349138.82846  21657736.2114                   21657736.5594
 -13843381.65247 -10024877.65245  21779829.2664                   21779827.7974
 11  8 24  1 53 30.0000000  0  8G26G10G29G12G05G02G25G30
   9197571.30946   7202397.62943  23874268.9454                   23874269.2234
 -39878826.34847 -30962855.76643  23425730.5474                   23425729.2384
     -8914.14547   1793421.21544  22854805.3524                   22854803.5824
 -37502877.80547 -28996097.81246  21346548.8444                   21346547.1174
 -36879085.76248 -28604445.57046  20356009.4694                   20356007.8914
 -57734779.20348 -44932789.16845  21578978.3284                   21578974.7974
 -17664491.40248 -13416002.75846  21641407.1644                   21641407.9964
 -13919205.67248 -10083961.30145  21765400.3364                   21765398.8444
 11  8 24  1 54  0.0000000  0  8G26G10G29G12G05G02G25G30
   9024760.78146   7067740.19543  23841384.0864                   23841384.7304
 -39854230.70746 -30943690.35243  23430410.9534                   23430409.9574
   -169833.64147   1668029.41044  22824182.7664                   22824181.5744
 -37525248.41047 -29013529.48046  21342291.7974                   21342290.0634
 -36936434.49248 -28649132.87946  20345096.1334                   20345094.0204
 -57776419.18047 -44965235.91445  21571054.5784                   21571050.7504
 -17749701.62548 -13482400.32446  21625192.3524                   21625192.9884
 -13994415.65247 -10142566.48445  21751087.7894                   21751086.6954
 11  8 24  1 54 30.0000000  0  8G26G10G29G12G05G02G25G30
   8851997.00846   6933119.22343  23808508.1564                   23808508.1454
 -39829435.52746 -30924369.44943  23435129.2194                   23435128.6374
   -330685.94547   1542689.97344  22793574.0004                   22793572.3914
 -37547143.00447 -29030590.21946  21338125.3054                   21338123.8134
 -36993236.11347 -28693393.86346  20334287.2274                   20334284.8794
 -57817958.32047 -44997604.08645  21563149.7344                   21563146.1914
 -17834317.60547 -13548334.85246  21609090.0634                   21609090.6724
 -14069016.35247 -10200696.91045  21736892.3674                   21736891.0664
 11  8 24  1 55  0.0000000  0  8G26G10G29G12G05G02G25G30
   8679285.40246   6798538.85243  23775641.8204                   23775642.3794
 -39804441.23846 -30904893.41843  23439885.0704                   23439884.8054
   -491467.71547   1417405.50044  22762977.7274                   22762976.8134
 -37568561.68048 -29047280.10546  21334049.4614                   21334047.8524
 -37049489.92248 -28737227.98846  20323582.4384                   20323580.5634
 -57859394.57047 -45029892.08645  21555265.2424                   21555261.5594
 -17918337.50447 -13613804.89546  21593101.6884                   21593102.2464
 -14143006.52047 -10258351.58245  21722812.0474                   21722810.8874
 11  8 24  1 55 30.0000000  0  8G26G10G29G12G05G02G25G30
   8506630.27046   6664002.48043  23742785.5634                   23742787.3014
 -39779250.14846 -30885264.02343  23444679.3754                   23444679.0314
   -652176.46147   1292177.94944  22732396.0234                   22732395.2424
 -37589506.06247 -29063600.41846  21330064.1954                   21330062.0204
 -37105196.83648 -28780635.96546  20312981.5554                   20312979.5784
 -57900727.44947 -45062099.53145  21547399.6024                   21547396.1844
 -18001760.87548 -13678810.10946  21577227.1254                   21577227.5904
 -14216386.37147 -10315530.68445  21708848.5474                   21708847.1414
 11  8 24  1 56  0.0000000  0  8G26G10G29G12G05G02G25G30
   8334032.24246   6529510.62543  23709941.4774                   23709942.1094
 -39753867.96546 -30865485.75043  23449509.3284                   23449509.2154
   -812812.74247   1167006.86344  22701827.8914                   22701826.7854
 -37609980.83247 -29079554.80146  21326167.7584                   21326166.1254
 -37160361.00848 -28823621.02046  20302484.6414                   20302482.4344
 -57941959.98447 -45094228.77345  21539553.2424                   21539549.3364
 -18084590.37948 -13743352.57446  21561464.6174                   21561465.6454
 -14289159.16047 -10372236.76645  21695000.1724                   21694999.0234
 11  8 24  1 56 30.0000000  0  8G26G10G29G12G05G02G25G30
   8161497.39846   6395067.97743  23677109.2814                   23677110.2074
 -39728294.53146 -30845558.43043  23454375.8754                   23454375.4924
   -973372.42247   1041895.47344  22671274.6484                   22671273.5314
 -37629986.23447 -29095143.44946  21322360.9924                   21322359.2424
 -37214981.25448 -28866182.25046  20292090.2584                   20292088.3984
 -57983089.73848 -45126277.94545  21531726.7734                   21531722.8444
 -18166823.74247 -13807430.51646  21545816.2814                   21545816.7734
 -14361323.18447 -10428468.46545  21681267.8834                   21681266.5554
 11  8 24  1 57  0.0000000  0  8G26G10G29G12G05G02G25G30
   7989029.14846   6260677.21543  23644289.5634                   23644290.5944
 -39702532.63746 -30825484.25443  23459278.3284                   23459277.9304
  -1133853.68447    916845.19144  22640735.9144                   22640734.5274
 -37649524.19547 -29110367.85246  21318643.3524                   21318641.1294
 -37269059.12548 -28908320.82846  20281800.1954                   20281797.8674
 -58024116.93047 -45158247.18745  21523919.5234                   21523915.9144
 -18248461.05147 -13871043.99246  21530281.1334                   21530281.8634
 -14432879.12547 -10484226.34045  21667651.2504                   21667650.2114
 11  8 24  1 57 30.0000000  0  9G26G10G29G12G15G05G02G25G30
   7816631.21546   6126341.25843  23611483.1884                   23611484.1054
 -39676584.19146 -30805264.71143  23464216.7664                   23464215.8164
  -1294254.21147    791857.82444  22610212.6884                   22610211.4774
 -37668596.76247 -29125229.61746  21315013.9224                   21315012.0984
  18654679.26656  14572454.57852  24516097.5864                   24516097.7154
 -37322595.65647 -28950037.60246  20271612.1254                   20271609.9844
 -58065041.21547 -45190136.23845  21516131.3594                   21516128.0044
 -18329502.21947 -13934192.95746  21514859.7194                   21514860.2114
 -14503827.49647 -10539510.77745  21654150.3524                   21654148.9024
 11  8 24  1 58  0.0000000  0  9G26G10G29G12G15G05G02G25G30
   7644303.54746   5992060.03943  23578690.2194                   23578690.9104
 -39650456.30946 -30784905.33243  23469188.4924                   23469188.1024
  -1454575.75047    666932.00844  22579704.4774                   22579703.6804
 -37687210.34047 -29139733.72346  21311471.8674                   21311470.1564
  18483839.66845  14439332.89842  24483587.7664                   24483588.1214
 -37375596.25448 -28991336.75446  20261526.5084                   20261524.2974
 -58105866.75047 -45221948.35545  21508362.7114                   21508359.1804
 -18409951.31248 -13996880.55946  21499550.6254                   21499551.4104
 -14574172.99247 -10594325.44945  21640763.8914                   21640762.9574
 11  8 24  1 58 30.0000000  0  9G26G10G29G12G15G05G02G25G30
   7472047.06646   5857834.32043  23545910.3444                   23545911.5474
 -39624154.01646 -30764410.02743  23474193.0474                   23474192.7194
  -1614819.53147    542066.76644  22549210.6024                   22549209.9774
 -37705369.53147 -29153883.75045  21308015.8594                   21308014.3484
  18312881.82445  14306119.15642  24451054.9144                   24451056.3244
 -37428064.76247 -29032221.29746  20251542.2504                   20251540.2424
 -58146595.93047 -45253685.36745  21500612.4534                   21500608.2584
 -18489811.10247 -14059108.96146  21484353.9614                   21484354.6804
 -14643918.96547 -10648672.95345  21627491.9144                   21627490.7664
 11  8 24  1 59  0.0000000  0  9G26G10G29G12G15G05G02G25G30
   7299863.23446   5723665.16443  23513145.4774                   23513145.9694
 -39597681.67546 -30743782.25543  23479230.5004                   23479230.2584
  -1774985.39147    417262.25445  22518732.0944                   22518731.2074
 -37723078.85247 -29167683.23845  21304645.8984                   21304643.8874
  18141806.13745  14172813.55143  24418500.9844                   24418501.2814
 -37480004.56248 -29072693.85946  20241658.1094                   20241655.8984
 -58187231.01247 -45285349.06645  21492879.3364                   21492875.7664
 -18569083.84047 -14120879.92246  21469268.7894                   21469269.5904
 -14713068.21547 -10702555.48045  21614333.1954                   21614332.1024
 11  8 24  1 59 30.0000000  0  9G26G10G29G12G15G05G02G25G30
   8703182.02346   6817160.39543  23780188.1094                   23780188.6294
 -37995622.03146 -29495424.14843  23784092.4384                   23784091.8014
   -359645.32047   1520124.68045  22788062.6024                   22788061.7974
 -36164919.34847 -27953532.99645  21601154.4384                   21601152.3014
  19546041.63746  15267023.15243  24685717.7194                   24685718.6214
 -35955994.75848 -27885153.74646  20531667.7274                   20531665.3634
 -56652349.96547 -44089337.85245  21784957.5944                   21784953.9964
 -17072346.39848 -12954591.01246  21754088.4064                   21754088.8324
 -13206198.68447  -9528371.43045  21901080.6024                   21901079.5044
 11  8 24  2  0  0.0000000  0  9G26G10G29G12G15G05G02G25G30
   8531155.61746   6683113.94143  23747452.9304                   23747453.0474
 -37968816.24246 -29474536.51642  23789193.3754                   23789192.9104
   -519647.82447   1395447.46944  22757614.6804                   22757614.1214
 -36181734.35247 -27966635.60246  21597954.3204                   21597952.1334
  19374739.31646  15133540.97743  24653119.5234                   24653120.7194
 -36006880.50048 -27924804.96946  20521984.3754                   20521982.1884
 -56692795.21547 -44120853.63745  21777261.5634                   21777257.5634
 -17150444.23448 -13015446.47746  21739226.7274                   21739227.5004
 -13274155.66047  -9581324.91445  21888148.5164                   21888147.8284
 11  8 24  2  0 30.0000000  0  9G26G10G29G12G15G05G02G25G30
   8359212.16446   6549132.12543  23714732.2344                   23714734.0634
 -37941848.68746 -29453522.86743  23794325.3834                   23794324.6024
   -679566.71547   1270835.37545  22727183.3364                   22727182.3164
 -36198106.98847 -27979393.52346  21594838.6174                   21594836.8834
  19203326.57046  14999972.73843  24620502.1724                   24620502.0634
 -36057242.78147 -27964048.29346  20512400.9924                   20512398.6604
 -56733146.88347 -44152296.48445  21769582.7114                   21769578.7234
 -17227956.30548 -13075845.49246  21724476.6414                   21724477.3634
 -13341519.07047  -9633815.89145  21875330.1334                   21875329.0904
 11  8 24  2  1  0.0000000  0  9G26G10G29G12G15G05G02G25G30
   8187357.40246   6415219.41043  23682029.6254                   23682030.3404
 -37914719.80946 -29432383.57043  23799487.5084                   23799487.1884
   -839398.26247   1146291.34845  22696768.1954                   22696767.6024
 -36214037.46547 -27991806.89846  21591807.5634                   21591805.4264
  19031808.43846  14866322.43043  24587862.0004                   24587863.0354
 -36107080.93047 -28002883.20746  20502916.9614                   20502914.9024
 -56773402.91847 -44183664.82045  21761922.3914                   21761918.4384
 -17304880.80148 -13135786.66446  21709838.5864                   21709839.6644
 -13408287.73047  -9685843.42245  21862624.3284                   21862623.7464
 11  8 24  2  1 30.0000000  0  9G26G10G29G12G15G05G02G25G30
   8015595.92646   6281379.36343  23649344.6954                   23649344.8014
 -37887431.18046 -29411119.72743  23804681.0234                   23804680.5554
   -999139.34847   1021817.80145  22666370.7504                   22666369.7344
 -36229527.02747 -28003876.71146  21588859.9224                   21588858.3794
  18860188.20746  14732592.51243  24555204.0234                   24555204.5434
 -36156395.35247 -28041310.01646  20493532.6724                   20493530.5984
 -56813562.11747 -44214957.68745  21754279.9454                   21754275.9184
 -17381217.09048 -13195269.49246  21695312.3834                   21695312.9804
 -13474461.55947  -9737407.44545  21850031.8834                   21850030.8674
 11  8 24  2  2  0.0000000  0  9G26G10G29G12G15G05G02G25G30
   7843931.66846   6147615.11343  23616678.0004                   23616678.4024
 -37859985.14847 -29389733.23043  23809903.8754                   23809903.7974
  -1158787.73047    897416.48045  22635990.7734                   22635989.5164
 -36244578.00048 -28015604.75446  21585995.8284                   21585994.1024
  18688468.75446  14598785.31642  24522525.6804                   24522527.5084
 -36205187.48047 -28079329.85546  20484247.6254                   20484245.4964
 -56853624.73847 -44246175.30545  21746656.6174                   21746652.5904
 -17456965.42648 -13254294.18046  21680898.1484                   21680898.9264
 -13540041.44947  -9788508.65645  21837552.6954                   21837551.7114
 11  8 24  2  2 30.0000000  0  9G26G10G29G12G15G05G02G25G30
   7672365.37946   6013927.16843  23584030.2974                   23584030.6094
 -37832387.11347 -29368228.28944  23815155.7894                   23815155.5164
  -1318344.34447    773086.69545  22605628.1954                   22605626.9344
 -36259195.20347 -28026994.80146  21583214.2194                   21583212.3404
  18516650.22345  14464900.85542  24489829.4144                   24489831.0394
 -36253461.66848 -28116946.10246  20475061.5164                   20475059.5164
 -56893593.07047 -44277319.45745  21739050.5864                   21739047.1374
 -17532128.78948 -13312863.04346  21666595.0634                   21666595.6334
 -13605031.01647  -9839149.87545  21825185.7664                   21825184.4614
 11  8 24  2  3  0.0000000  0  9G26G10G29G12G15G05G02G25G30
   7500901.27746   5880318.84043  23551401.9774                   23551402.1134
 -37804638.90247 -29346606.30543  23820435.5164                   23820435.8874
  -1477806.29747    648830.66445  22575282.9614                   22575282.3404
 -36273380.98848 -28038048.68446  21580514.7034                   21580512.7704
  18344735.46946  14330941.48442  24457114.9774                   24457116.2304
 -36301218.87948 -28154159.50846  20465973.7344                   20465971.3524
 -56933466.69947 -44308389.82045  21731463.3594                   21731459.7384
 -17606707.07448 -13370976.00846  21652403.1644                   21652403.9304
 -13669430.68047  -9889331.43045  21812929.9534                   21812929.3914
 11  8 24  2  3 30.0000000  0  9G26G10G29G12G15G05G02G25G30
   7329545.45346   5746794.93843  23518793.9064                   23518793.7974
 -37776740.53546 -29324867.33243  23825744.0634                   23825744.4494
  -1637169.17647    524651.85545  22544957.2194                   22544956.3244
 -36287135.20747 -28048766.27345  21577897.5084                   21577895.2344
  18172730.07846  14196911.43042  24424383.8754                   24424384.7074
 -36348458.40248 -28190969.52346  20456984.1414                   20456982.4264
 -56973243.05147 -44339384.36745  21723894.2344                   21723890.6414
 -17680698.41448 -13428631.61746  21638323.0474                   21638323.5594
 -13733239.24647  -9939052.39845  21800788.2034                   21800786.7304
 11  8 24  2  4  0.0000000  0  9G26G10G29G12G15G05G02G25G30
   7158302.35246   5613358.81644  23486206.5084                   23486207.1684
 -37748693.69946 -29303012.67643  23831081.6334                   23831081.9964
  -1796430.36347    400552.27745  22514650.7814                   22514649.9024
 -36300459.28947 -28059148.68745  21575361.7194                   21575359.9064
  18000637.06346  14062813.11343  24391636.5004                   24391636.0004
 -36395181.00448 -28227376.73446  20448093.2274                   20448091.3954
 -57012921.42247 -44370302.56645  21716343.4224                   21716339.8054
 -17754102.35548 -13485829.50846  21624354.7034                   21624354.9694
 -13796456.84447  -9988312.86345  21788758.7274                   21788757.5084
 11  8 24  2  4 30.0000000  0  9G26G10G29G12G15G05G02G25G30
   6987173.14846   5480011.49244  23453642.2114                   23453642.2304
 -37720503.73446 -29281046.48443  23836446.3754                   23836446.0004
  -1955590.12547    276531.74245  22484363.5314                   22484362.4494
 -36313358.66447 -28069200.16445  21572907.5084                   21572905.2464
  17828456.94546  13928646.92243  24358871.0234                   24358871.5354
 -36441390.76647 -28263384.34846  20439299.7424                   20439297.8404
 -57052504.39147 -44401146.43445  21708811.1254                   21708807.6764
 -17826922.00848 -13542572.10245  21610497.2894                   21610497.8634
 -13859087.15647 -10037115.71145  21776840.4304                   21776839.2814
 11  8 24  2  5  0.0000000  0  9G26G10G29G12G15G05G02G25G30
   6816159.55147   5346754.22744  23421099.8834                   23421099.1884
 -37692175.03146 -29258972.21543  23841837.7194                   23841836.0474
  -2114648.31247    152590.35945  22454096.0234                   22454094.7234
 -36325837.52047 -28078923.96545  21570532.8914                   21570530.9064
  17656190.55146  13794413.47743  24326090.0864                   24326090.4734
 -36487091.55148 -28298995.34046  20430603.2584                   20430601.0704
 -57091993.70747 -44431917.32845  21701296.2734                   21701292.8954
 -17899159.84848 -13598861.34846  21596751.0084                   21596751.9534
 -13921133.31647 -10085463.36745  21765033.4844                   21765032.3364
 11  8 24  2  5 30.0000000  0  9G26G10G29G12G15G05G02G25G30
   6645264.79347   5213589.55544  23388579.0864                   23388579.1254
 -37663710.60546 -29236792.20743  23847253.0234                   23847252.4844
  -2273603.59847     28729.17245  22423847.8284                   22423846.7774
 -36337898.39847 -28088322.07045  21568237.1724                   21568235.3364
  17483839.92246  13660114.38343  24293292.4144                   24293293.2424
 -36532285.24648 -28334211.20346  20422003.1724                   20422000.7154
 -57131389.99647 -44462615.73045  21693799.4224                   21693796.1684
 -17970816.93748 -13654698.05145  21583115.0944                   21583116.1484
 -13982596.91447 -10133357.07845  21753337.4534                   21753336.3874
 11  8 24  2  6  0.0000000  0  9G26G10G29G12G15G05G02G25G30
   6474490.32847   5080518.63343  23356081.5864                   23356081.5084
 -37635114.76646 -29214509.74243  23852694.5164                   23852694.3874
  -2432455.86747    -95051.75045  22393619.2344                   22393618.4024
 -36349546.28547 -28097398.36345  21566020.8834                   21566019.3834
  17311405.70346  13525750.15643  24260479.3134                   24260479.8054
 -36576975.52047 -28369034.78946  20413498.6174                   20413496.6054
 -57170695.13347 -44493243.11345  21686319.6804                   21686316.6884
 -18041895.93747 -13710084.30546  21569589.4384                   21569590.4144
 -14043481.28147 -10180799.44945  21741750.8054                   21741749.7704
 11  8 24  2  6 30.0000000  0  9G26G10G29G12G15G05G02G25G30
   6303841.87547   4947545.90244  23323607.7034                   23323607.5704
 -37606387.92246 -29192125.23442  23858161.7504                   23858161.9534
  -2591200.76247   -218748.98045  22363411.0394                   22363409.9224
 -36360781.53947 -28106153.12145  21563883.0634                   21563880.9654
  17138892.85546  13391324.66843  24227650.8134                   24227651.5594
 -36621162.35248 -28403466.07846  20405090.5554                   20405088.4384
 -57209906.73847 -44523797.59045  21678858.0164                   21678854.6884
 -18112395.24248 -13765018.83646  21556173.7424                   21556174.7114
 -14103785.40247 -10227789.68445  21730276.2194                   21730274.5704
 11  8 24  2  7  0.0000000  0  9G26G10G29G12G15G05G02G25G30
   6133324.48446   4814675.30543  23291159.6174                   23291159.0434
 -37577531.84446 -29169639.99643  23863652.8754                   23863652.8164
  -2749835.45747   -342360.35945  22333224.0164                   22333222.4884
 -36371605.91447 -28114587.71145  21561823.2114                   21561821.4304
  16966305.05946  13256840.80943  24194808.6334                   24194808.7664
 -36664846.14847 -28437505.39846  20396777.5234                   20396775.4774
 -57249024.15647 -44554278.68445  21671414.1484                   21671410.8244
 -18182314.68747 -13819501.52046  21542868.7114                   21542869.2114
 -14163509.74648 -10274328.14545  21718911.0944                   21718909.6564
 11  8 24  2  7 30.0000000  0  9G26G10G29G12G15G05G02G25G30
   5962942.47347   4681910.17643  23258737.1644                   23258736.6724
 -37548547.79746 -29147055.04343  23869168.1174                   23869167.9734
  -2908356.66047   -465883.29345  22303057.8754                   22303056.9184
 -36382020.59047 -28122703.07045  21559841.2504                   21559839.4804
  16793646.09446  13122301.52042  24161953.0944                   24161952.7424
 -36708027.86748 -28471153.48046  20388560.7424                   20388558.8634
 -57288046.12947 -44584685.40645  21663988.6564                   21663984.5274
 -18251653.83248 -13873532.03146  21529673.7194                   21529674.6334
 -14222654.41447 -10320414.91045  21707655.8364                   21707655.1254
 11  8 24  2  8  0.0000000  0  9G26G10G29G12G15G05G02G25G30
   5792696.12147   4549250.77043  23226340.9384                   23226339.8364
 -37519441.83246 -29124375.09443  23874706.7584                   23874707.0474
  -3066765.96547   -589319.03145  22272913.9304                   22272912.4574
 -36392031.82847 -28130504.05545  21557936.4844                   21557934.3914
  16620915.24646  12987706.22342  24129082.4844                   24129082.9414
 -36750712.57047 -28504414.28546  20380437.7504                   20380435.5124
 -57326976.10947 -44615020.45345  21656580.1334                   21656576.0124
 -18320416.82048 -13927113.59446  21516588.6564                   21516589.5634
 -14281224.18747 -10366053.71545  21696510.6254                   21696508.7854
 11  8 24  2  8 30.0000000  0  9G26G10G29G12G15G05G02G25G30
   5622593.84447   4416703.62943  23193971.4614                   23193970.2704
 -37490211.62146 -29101598.32843  23880268.0474                   23880269.4694
  -3225056.64847   -712662.35245  22242792.1334                   22242790.6724
 -36401637.36347 -28137988.89145  21556108.5704                   21556106.4414
  16448120.01246  12853060.76243  24096201.0944                   24096200.4344
 -36792897.68448 -28537285.79346  20372410.1954                   20372408.2894
 -57365809.53147 -44645280.25045  21649190.5944                   21649186.7704
 -18388599.82847 -13980243.23446  21503613.9614                   21503614.6954
 -14339215.89547 -10411242.08245  21685475.0394                   21685473.8164
 11  8 24  2  9  0.0000000  0  9G26G10G29G12G15G05G02G25G30
   5452636.19946   4284269.16843  23161629.2894                   23161628.7934
 -37460863.00446 -29078729.31243  23885853.8134                   23885854.6644
  -3383229.44547   -835913.80945  22212693.1094                   22212691.2274
 -36410843.22347 -28145162.30545  21554356.4774                   21554354.8054
  16275259.71946  12718364.55542  24063307.4844                   24063306.1954
 -36834588.07047 -28569771.79346  20364476.9774                   20364474.9844
 -57404549.20747 -44675466.99645  21641818.8594                   21641815.0864
 -18456206.77748 -14032923.98446  21490748.7274                   21490749.5354
 -14396633.91848 -10455983.41845  21674548.7424                   21674547.5234
 11  8 24  2  9 30.0000000  0  9G26G10G29G12G15G05G02G25G30
   6858253.62946   5379555.57843  23429108.8594                   23429108.6764
 -35855978.03946 -27828169.66443  24191253.3364                   24191253.5634
  -1965856.17247    268532.97345  22482409.4614                   22482408.4694
 -34844230.64847 -26924425.25045  21852472.9384                   21852471.2624
  17677764.46546  13811225.56643  24330194.9534                   24330194.3164
 -35300362.75048 -27374271.52746  20656430.2424                   20656428.4774
 -55867772.74647 -43477978.82845  21934258.2194                   21934254.1294
 -16947815.00848 -12857553.78946  21777786.3364                   21777786.7544
 -12878056.64848  -9272676.48445  21963524.4774                   21963523.3594
 11  8 24  2 10  0.0000000  0  9G26G10G29G12G15G05G02G25G30
   6688596.18046   5247355.03543  23396823.9694                   23396823.9024
 -35826399.47747 -27805121.50443  24196883.2424                   24196882.1174
  -2123787.23847    145469.87545  22452356.5234                   22452355.0274
 -34852644.82847 -26930981.77745  21850871.6724                   21850870.1294
  17504782.94546  13676434.91843  24297277.3364                   24297277.0204
 -35341068.70748 -27405990.44146  20648684.2504                   20648682.2304
 -55906324.77047 -43508019.35545  21926921.6724                   21926917.8914
 -17014272.09048 -12909338.54346  21765139.6414                   21765140.7624
 -12934331.52048  -9316527.05945  21952815.7424                   21952814.4804
 11  8 24  2 10 30.0000000  0  9G26G10G29G12G15G05G02G25G30
   6519095.53946   5115276.69943  23364569.1564                   23364568.8954
 -35796708.55947 -27781985.76643  24202532.6254                   24202531.2384
  -2281593.34047     22504.14545  22422326.8444                   22422325.7934
 -34860666.05547 -26937232.09045  21849345.1174                   21849343.7544
  17331745.77046  13541600.88743  24264348.8204                   24264349.1724
 -35381284.38748 -27437327.32446  20641031.4774                   20641029.2934
 -55944781.77747 -43537985.84845  21919603.3754                   21919599.5434
 -17080154.54348 -12960675.53546  21752602.7894                   21752603.4844
 -12990035.98448  -9359933.14845  21942215.6644                   21942214.4224
 11  8 24  2 11  0.0000000  0  9G26G10G29G12G15G05G02G25G30
   6349749.29746   4983318.64543  23332343.2344                   23332343.8204
 -35766913.67246 -27758768.99243  24208201.1484                   24208201.1054
  -2439277.84447   -100366.85245  22392320.6174                   22392319.1174
 -34868302.26647 -26943182.40245  21847892.2894                   21847891.0744
  17158649.94946  13406721.12143  24231409.9534                   24231409.9064
 -35421017.46547 -27468288.14146  20633470.2894                   20633468.3164
 -55983149.74647 -43567882.96545  21912302.4384                   21912298.6214
 -17145469.04748 -13011569.96546  21740173.7734                   21740174.2344
 -13045177.35547  -9402900.47745  21931722.4844                   21931721.0354
 11  8 24  2 11 30.0000000  0  9G26G10G29G12G15G05G02G25G30
   6180561.00446   4851483.70343  23300148.4694                   23300148.3244
 -35737017.56246 -27735473.34842  24213890.6484                   24213890.3594
  -2596839.58247   -223142.18745  22362337.3674                   22362335.8874
 -34875557.32847 -26948835.71545  21846512.0474                   21846510.1914
  16985497.92246  13271797.58243  24198459.1644                   24198460.1374
 -35460270.19947 -27498874.68046  20626000.8364                   20625998.8054
 -56021428.85947 -43597710.84845  21905018.2734                   21905014.5394
 -17210216.87148 -13062022.83246  21727852.8984                   21727853.2114
 -13099757.54347  -9445430.50845  21921335.8524                   21921334.6604
 11  8 24  2 12  0.0000000  0  9G26G10G29G12G15G05G02G25G30
   6011540.93846   4719779.81343  23267984.2504                   23267984.7704
 -35707016.27346 -27712095.75842  24219600.4224                   24219599.5394
  -2754269.33247   -345814.68445  22332379.9224                   22332378.3244
 -34882427.08247 -26954188.78545  21845204.4774                   21845202.7424
  16812299.12946  13136837.60943  24165501.4224                   24165501.5274
 -35499037.85548 -27529083.22746  20618623.6804                   20618621.0474
 -56059612.22347 -43627464.12545  21897752.0084                   21897748.5744
 -17274392.36348 -13112029.70346  21715641.0944                   21715641.4924
 -13153771.34447  -9487519.18745  21911057.4774                   21911056.6334
 11  8 24  2 12 30.0000000  0  9G26G10G29G12G15G05G02G25G30
   5842692.21946   4588209.43643  23235853.5554                   23235853.8204
 -35676912.82046 -27688638.53942  24225327.1884                   24225329.0554
  -2911565.99247   -468383.47745  22302447.0314                   22302445.9304
 -34888914.78547 -26959244.15245  21843969.6954                   21843967.8794
  16639055.76646  13001842.91843  24132534.1174                   24132533.8554
 -35537323.23048 -27558915.96946  20611337.8914                   20611335.7304
 -56097700.55147 -43657143.35245  21890504.1414                   21890500.1724
 -17337997.07048 -13161591.81246  21703536.8054                   21703537.4264
 -13207221.06647  -9529168.33245  21900886.1484                   21900884.9614
 11  8 24  2 13  0.0000000  0  9G26G10G29G12G15G05G02G25G30
   5674012.64546   4456770.89143  23203755.2344                   23203755.0044
 -35646715.20746 -27665107.97742  24231075.4844                   24231076.0904
  -3068732.89847   -590851.16445  22272538.9844                   22272538.2464
 -34895028.83647 -26964008.35245  21842806.4454                   21842804.5514
  16465764.92646  12866811.23843  24099557.8364                   24099557.5944
 -35575133.38748 -27588378.40646  20604143.1884                   20604141.2154
 -56135699.50847 -43686752.92645  21883273.0634                   21883269.3594
 -17401037.79348 -13210714.46546  21691541.0084                   21691541.6294
 -13260113.96147  -9570383.59445  21890821.3054                   21890820.5704
 11  8 24  2 13 30.0000000  0  9G26G10G29G12G15G05G02G25G30
   5505509.06346   4325469.45743  23171689.5234                   23171689.8094
 -35616422.57446 -27641503.32842  24236839.9454                   24236841.0164
  -3225764.59847   -713213.49645  22242656.8594                   22242655.7464
 -34900768.66047 -26968480.94945  21841714.2194                   21841712.2384
  16292432.56346  12731747.21543  24066574.0784                   24066573.1724
 -35612467.64848 -27617470.02746  20597038.6024                   20597036.5394
 -56173605.76647 -43716290.27345  21876059.8524                   21876056.6804
 -17463512.34048 -13259395.93046  21679652.3444                   21679653.3054
 -13312448.48847  -9611163.75045  21880862.0704                   21880860.8444
 11  8 24  2 14  0.0000000  0  9G26G10G29G12G15G05G02G25G30
   5337186.35246   4194308.95743  23139659.5634                   23139658.4104
 -35586036.14146 -27617825.64842  24242621.6334                   24242622.9064
  -3382658.14547   -835468.19545  22212800.7584                   22212799.9384
 -34906136.13747 -26972663.41045  21840692.4384                   21840691.0824
  16119062.48046  12596653.78543  24033582.1954                   24033582.0554
 -35649326.73447 -27646191.37546  20590024.4694                   20590022.3324
 -56211418.13347 -43745754.46145  21868864.6254                   21868860.8594
 -17525420.69148 -13307636.20746  21667871.4304                   21667872.4534
 -13364225.22747  -9651509.27345  21871009.6094                   21871008.2424
 11  8 24  2 14 30.0000000  0  9G26G10G29G12G15G05G02G25G30
   5169045.02046   4063289.81343  23107662.9384                   23107662.8954
 -35555561.62946 -27594079.26243  24248421.6254                   24248421.7424
  -3539414.44147   -957615.96545  22182971.3364                   22182969.7274
 -34911137.07047 -26976560.25445  21839741.4064                   21839740.1174
  15945654.42646  12461530.73843  24000584.0784                   24000583.4184
 -35685715.88748 -27674546.54346  20583099.9304                   20583097.9614
 -56249139.63747 -43775147.83645  21861686.2034                   21861682.6994
 -17586767.11348 -13355438.60546  21656197.8444                   21656198.4884
 -13415449.04347  -9691423.95345  21861262.3134                   21861260.8794
 11  8 24  2 15  0.0000000  0  9G26G10G29G12G15G05G02G25G30
   5001089.48446   3932415.45343  23075701.6414                   23075702.1524
 -35525001.10946 -27570265.89843  24254237.5944                   24254237.1174
  -3696030.57447  -1079654.50445  22153168.2584                   22153166.9774
 -34915773.61347 -26980173.14545  21838859.0554                   21838857.6254
  15772211.71546  12326380.68843  23967578.7734                   23967578.5784
 -35721636.45748 -27702536.59046  20576264.4064                   20576262.4534
 -56286769.69547 -43804469.95345  21854525.5004                   21854521.6844
 -17647552.03948 -13402803.47746  21644630.9144                   21644631.9384
 -13466120.84047  -9730908.50045  21851619.8054                   21851618.3094
 11  8 24  2 15 30.0000000  0  9G26G10G29G12G15G05G02G25G30
   4833325.58646   3801690.42643  23043777.5944                   23043777.2814
 -35494354.70746 -27546385.62543  24260069.6484                   24260068.1214
  -3852502.45347  -1201580.63745  22123392.5004                   22123391.2234
 -34920046.30947 -26983502.50845  21838045.8364                   21838044.6334
  15598739.47346  12191207.62542  23934567.0474                   23934567.6174
 -35757088.28148 -27730161.37946  20569518.3754                   20569516.1094
 -56324305.85547 -43833718.92645  21847382.5554                   21847378.7194
 -17707774.61348 -13449730.15646  21633170.5234                   21633170.8484
 -13516240.46147  -9769962.76245  21842082.5004                   21842081.0864
 11  8 24  2 16  0.0000000  0  9G26G10G29G12G15G05G02G25G30
   4665752.84446   3671114.32843  23011890.3834                   23011889.4884
 -35463628.85546 -27522443.42243  24265916.8444                   24265915.2894
  -4008831.82847  -1323395.73045  22093644.0474                   22093642.9844
 -34923962.01647 -26986553.72345  21837300.3754                   21837299.2584
  15425236.68046  12056010.76242  23901550.0394                   23901551.7074
 -35792077.26247 -27757425.50046  20562860.3054                   20562857.8834
 -56361752.05947 -43862897.80145  21840256.6174                   21840253.1334
 -17767439.83248 -13496222.53146  21621816.4064                   21621818.0044
 -13565813.44147  -9808591.08645  21832648.9144                   21832647.3164
 11  8 24  2 16 30.0000000  0  9G26G10G29G12G15G05G02G25G30
   4498379.10546   3540693.28943  22980039.0554                   22980038.8834
 -35432821.86346 -27498437.99643  24271778.5394                   24271777.8404
  -4165012.48847  -1445094.94145  22063923.7274                   22063922.6294
 -34927519.80547 -26989326.03545  21836623.6024                   21836622.0664
  15251709.75046  11920795.13343  23868529.8594                   23868530.2304
 -35826601.69148 -27784327.64146  20556290.3284                   20556287.8674
 -56399104.04747 -43892003.25045  21833148.5704                   21833145.4384
 -17826544.95748 -13542278.47346  21610569.3674                   21610570.2424
 -13614837.60947  -9846791.73845  21823319.8284                   21823318.6564
 11  8 24  2 17  0.0000000  0  9G26G10G29G12G15G05G02G25G30
   4331205.57846   3410428.25843  22948227.0944                   22948226.5824
 -35401938.56246 -27474373.09443  24277654.4774                   24277654.7774
  -4321044.68047  -1566678.45745  22034232.0004                   22034230.3914
 -34930724.85247 -26991823.49245  21836014.4694                   21836012.1604
  15078159.02746  11785560.94143  23835504.4844                   23835504.4774
 -35860666.21548 -27810871.41046  20549808.0634                   20549805.3244
 -56436364.35247 -43921037.26245  21826058.3914                   21826054.5904
 -17885093.64148 -13587900.81646  21599428.0164                   21599428.4614
 -13663317.25847  -9884568.10545  21814094.2424                   21814093.4654
 11  8 24  2 17 30.0000000  0  9G26G10G29G12G15G05G02G25G30
   4164236.40246   3280322.49643  22916453.8754                   22916454.1174
 -35370981.09446 -27450250.41443  24283545.0164                   24283546.2704
  -4476925.90647  -1688144.32445  22004568.7424                   22004567.3364
 -34933579.31247 -26994047.75845  21835470.9224                   21835468.8444
  14904588.25846  11650311.10543  23802474.8444                   23802475.2154
 -35894272.36748 -27837057.99646  20543412.7584                   20543410.3874
 -56473532.38747 -43949999.37545  21818985.1254                   21818981.1764
 -17943086.76648 -13633090.25446  21588392.4064                   21588392.7894
 -13711253.75847  -9921921.21945  21804972.2584                   21804971.2894
 11  8 24  2 18  0.0000000  0  9G26G10G29G12G15G05G02G25G30
   3997472.61746   3150376.75443  22884719.7114                   22884719.1644
 -35339954.36346 -27426073.77343  24289450.1334                   24289449.6174
  -4632656.68047  -1809492.95345  21974933.8054                   21974932.4964
 -34936088.62947 -26996003.09045  21834993.5784                   21834991.1484
  14730997.28146  11515045.51244  23769441.7034                   23769441.6174
 -35927424.71948 -27862890.99246  20537103.7814                   20537101.8874
 -56510610.71947 -43978891.58245  21811929.7034                   21811925.5314
 -18000528.19148 -13677849.80146  21577461.4844                   21577462.0354
 -13758651.67247  -9958854.65645  21795952.8984                   21795951.2814
 11  8 24  2 18 30.0000000  0  9G26G10G29G12G15G05G02G25G30
   3830921.85946   3020597.01643  22853025.8524                   22853025.6214
 -35308856.50046 -27401841.71542  24295368.3284                   24295366.9654
  -4788230.79347  -1930719.50445  21945329.2274                   21945327.9774
 -34938251.66447 -26997688.58245  21834581.4454                   21834579.6954
  14557393.07046  11379769.60243  23736406.1094                   23736405.8524
 -35960121.37548 -27888368.89546  20530882.2344                   20530879.7774
 -56547595.00447 -44007710.51245  21804891.9304                   21804887.7704
 -18057415.25848 -13722177.38746  21566636.2814                   21566636.8984
 -13805508.77747  -9995366.67245  21787036.5004                   21787034.9454
 11  8 24  2 19  0.0000000  0  9G26G10G29G12G15G05G02G25G30
   3664584.69946   2890983.73843  22821373.0004                   22821372.7274
 -35277692.81245 -27377558.34842  24301297.3914                   24301297.9614
  -4943649.02747  -2051824.58245  21915754.1724                   21915752.8444
 -34940074.39147 -26999108.91445  21834235.2274                   21834233.1994
  14383775.67246  11244483.38343  23703367.3134                   23703366.9534
 -35992367.78948 -27913495.96546  20524745.8674                   20524743.9924
 -56584488.34847 -44036458.58645  21797871.5394                   21797867.6994
 -18113752.31648 -13766076.39146  21555915.6884                   21555916.0164
 -13851830.07047 -10031461.18445  21778222.0004                   21778220.5904
 11  8 24  2 19 30.0000000  0  9G26G10G29G12G15G05G02G25G30
   3498465.56646   2761540.31643  22789760.9224                   22789761.1684
 -35246465.48845 -27353225.44142  24307240.6174                   24307240.3134
  -5098908.55547  -2172805.98445  21886208.9454                   21886207.8554
 -34941559.28147 -27000265.99245  21833952.1804                   21833950.4064
  14210147.95746  11109189.13743  23670326.6954                   23670326.5594
 -36024165.37948 -27938273.30546  20518695.0944                   20518692.9304
 -56621290.33247 -44065135.46145  21790868.1174                   21790864.3014
 -18169540.32448 -13809547.56646  21545299.8834                   21545300.1954
 -13897617.02347 -10067139.32045  21769508.7194                   21769507.3054
 11  8 24  2 20  0.0000000  0  9G26G10G29G12G15G05G02G25G30
   4907993.64146   3859873.93843  23057985.3834                   23057985.1724
 -33639757.65645 -26101245.45742  24612988.1174                   24612986.8754
  -3678582.11347  -1066058.05945  22156488.7584                   22156486.7154
 -33367289.01247 -25773561.91045  22133525.9844                   22133523.8954
  15611939.02046  12201493.97743  23937077.7894                   23937078.3674
 -34480095.28148 -26735101.78946  20812521.9844                   20812519.6564
 -55082579.05147 -42866139.66045  22083675.1884                   22083671.3754
 -16649358.60548 -12624990.37946  21834580.7344                   21834581.0664
 -12367449.92647  -8874801.30145  22060689.2894                   22060687.8714
 11  8 24  2 20 30.0000000  0  9G26G10G29G12G15G05G02G25G30
   4742320.44146   3730778.01643  23026459.2504                   23026458.9264
 -33608410.91846 -26076819.42243  24618952.6024                   24618952.8484
  -3833519.15247  -1186788.16845  22127004.8984                   22127003.4344
 -33368107.85547 -25774200.00045  22133370.0004                   22133367.8204
  15438298.89146  12066190.08643  23904035.6954                   23904035.7854
 -34511002.82848 -26759185.58646  20806640.3754                   20806637.7464
 -55119198.18447 -42894674.05145  22076706.8674                   22076703.1954
 -16704053.50448 -12667609.77746  21824172.3204                   21824172.7974
 -12412174.97347  -8909651.97745  22052178.9844                   22052177.5984
 11  8 24  2 21  0.0000000  0  9G26G10G29G12G15G05G02G25G30
   4576879.00046   3601862.68043  22994976.3914                   22994976.6844
 -33577004.59445 -26052347.03542  24624928.7664                   24624928.6914
  -3988288.46547  -1307387.56245  22097553.1414                   22097551.7664
 -33368594.70347 -25774579.37545  22133277.5394                   22133275.5744
  15264660.32046  11930887.35943  23870994.1174                   23870993.0824
 -34541465.48848 -26782922.71546  20800843.3364                   20800841.1914
 -55155722.28147 -42923134.39145  22069756.8204                   22069753.2974
 -16758200.77748 -12709802.44546  21813868.6254                   21813869.4884
 -12456368.80547  -8944088.71945  22043769.1334                   22043767.6334
 11  8 24  2 21 30.0000000  0  9G26G10G29G12G15G05G02G25G30
   4411666.62546   3473125.85243  22963537.7274                   22963537.2034
 -33545547.67245 -26027835.13742  24630913.7814                   24630915.4494
  -4142894.05947  -1427859.39145  22068132.4304                   22068130.8594
 -33368758.74247 -25774707.21545  22133246.3984                   22133244.5164
  15091019.39846  11795582.84043  23837951.3524                   23837950.7664
 -34571491.85948 -26806319.87546  20795129.4614                   20795127.1054
 -55192158.03547 -42951525.90245  22062823.0164                   22062819.9344
 -16811808.28148 -12751574.52045  21803667.3204                   21803668.2424
 -12500039.92247  -8978118.14845  22035458.4064                   22035456.8874
 11  8 24  2 22  0.0000000  0  9G26G10G29G12G15G05G02G25G30
   4246693.04346   3344575.04743  22932144.3834                   22932143.7544
 -33514036.24646 -26003280.84042  24636910.6024                   24636911.8984
  -4297327.45347  -1548197.02045  22038744.8364                   22038743.4774
 -33368596.91847 -25774581.12945  22133277.4774                   22133275.1054
  14917385.32046  11660283.68843  23804908.8754                   23804908.7504
 -34601077.80948 -26829373.85246  20789499.1254                   20789497.1764
 -55228498.62147 -42979843.24245  22055907.3134                   22055904.3524
 -16864871.34848 -12792922.35945  21793569.5704                   21793570.6134
 -12543184.15247  -9011737.02345  22027248.6564                   22027247.2774
 11  8 24  2 22 30.0000000  0  9G26G10G29G12G15G05G02G25G30
   4081957.04746   3216209.42243  22900795.9774                   22900795.4414
 -33482477.28946 -25978689.45342  24642916.8204                   24642916.8554
  -4451591.65647  -1668402.82445  22009389.2194                   22009387.8014
 -33368117.07048 -25774207.22345  22133368.5704                   22133366.7584
  14743755.92646  11524988.12943  23771868.5394                   23771868.1764
 -34630230.38748 -26852090.13346  20783952.2894                   20783949.6334
 -55264749.14547 -43008090.41045  22049009.1644                   22049005.8164
 -16917396.37148 -12833850.93745  21783574.3754                   21783575.2664
 -12585808.41447  -9044950.72745  22019137.6024                   22019136.1414
 11  8 24  2 23  0.0000000  0  8G26G29G12G15G05G02G25G30
   3917467.94946   3088036.16043  22869494.9064                   22869494.1844
  -4605678.96147  -1788470.77745  21980067.6644                   21980066.2304
 -33367316.50448 -25773583.42245  22133520.7734                   22133519.3134
  14570139.61346  11389702.80943  23738829.7734                   23738829.2934
 -34658946.42648 -26874466.26646  20778487.8594                   20778485.0824
 -55300903.80547 -43036262.86345  22042129.0314                   22042125.6684
 -16969379.53548 -12874357.28545  21773682.7194                   21773683.2034
 -12627909.50847  -9077756.75845  22011125.6174                   22011125.2154
 11  8 24  2 23 30.0000000  0  9G26G21G29G12G15G05G02G25G30
   3753227.16446   2960056.37943  22838240.9064                   22838240.1134
                                  23438878.77316                  25209523.773
  -4759589.19147  -1908400.73445  21950779.2584                   21950777.8284
 -33366200.60948 -25772713.91445  22133733.3984                   22133731.5394
  14396537.19946  11254428.25443  23705794.5084                   23705794.3674
 -34687230.46148 -26896505.75846  20773105.0394                   20773103.1914
 -55336964.71547 -43064362.27345  22035266.8204                   22035263.3244
 -17020824.50448 -12914444.28545  21763892.8594                   21763893.3714
 -12669491.68047  -9110158.44545  22003212.8914                   22003211.7854
 11  8 24  2 24  0.0000000  0  9G26G21G29G12G15G05G02G25G30
   3589238.11347   2832272.77343  22807035.2814                   22807033.9804
  23305916.10546  18323676.17652  25184221.7814                   25184220.6994
  -4913320.29747  -2028191.14545  21921524.8444                   21921523.3284
 -33364772.24648 -25771600.91845  22134005.3984                   22134003.2854
  14222951.55546  11119166.77744  23672762.7734                   23672762.5274
 -34715084.76248 -26918210.39546  20767804.6174                   20767802.1454
 -55372931.95347 -43092388.71145  22028422.7584                   22028419.0664
 -17071732.98448 -12954113.21946  21754205.4614                   21754206.4104
 -12710557.12947  -9142157.49645  21995399.0084                   21995397.0234
 11  8 24  2 24 30.0000000  0  9G26G21G29G12G15G05G02G25G30
   3425504.28146   2704688.01243  22775877.5944                   22775875.7114
  23172968.77346  18220080.92243  25158922.2114                   25158921.6174
  -5066870.33647  -2147840.45745  21892305.5864                   21892304.0394
 -33363034.69947 -25770246.98445  22134335.7664                   22134333.8094
  14049384.89146  10983920.08644  23639734.4694                   23639734.0904
 -34742512.18447 -26939582.41046  20762585.5394                   20762583.1484
 -55408805.54347 -43120342.16045  22021596.6334                   22021592.5044
 -17122107.00448 -12993365.71546  21744619.2504                   21744620.3444
 -12751108.51247  -9173755.96945  21987681.7274                   21987681.2704
 11  8 24  2 25  0.0000000  0  9G26G21G29G12G15G05G02G25G30
   3262026.21546   2577302.55943  22744768.5234                   22744767.3554
  23040033.21946  18116494.83243  25133625.0084                   25133625.3984
  -5220240.05547  -2267349.25445  21863119.9454                   21863118.4964
 -33360994.18047 -25768656.98445  22134723.8054                   22134722.1644
  13875837.12546  10848688.11744  23606709.0164                   23606708.7194
 -34769518.26648 -26960626.10246  20757446.0634                   20757443.9844
 -55444588.52047 -43148225.00045  22014787.2894                   22014783.2464
 -17171951.39148 -13032205.50446  21735134.3754                   21735135.3134
 -12791151.05947  -9204957.94545  21980062.1954                   21980060.6994
 11  8 24  2 25 30.0000000  0  9G26G21G29G12G15G05G02G25G30
   3098806.94547   2450118.80144  22713708.8364                   22713707.4734
  22907108.10946  18012916.84443  25108330.2734                   25108330.4064
  -5373428.19947  -2386716.57445  21833969.7194                   21833967.6294
 -33358654.25847 -25766833.68745  22135169.0164                   22135167.5274
  13702310.60546  10713472.73844  23573687.6334                   23573687.8364
 -34796105.89148 -26981343.73446  20752386.7114                   20752384.6254
 -55480281.47747 -43176037.68045  22007995.2814                   22007991.0204
 -17221268.29348 -13070634.27046  21725749.6804                   21725750.5784
 -12830687.57847  -9235765.62145  21972538.2584                   21972537.3054
 11  8 24  2 26  0.0000000  0  9G26G21G29G12G15G05G02G25G30
   2935853.28147   2323141.97344  22682699.5634                   22682698.4614
  22774195.98846  17909349.01642  25083038.3984                   25083038.0514
  -5526429.44147  -2505938.24245  21804854.2344                   21804852.4804
 -33356015.03547 -25764777.16445  22135671.4304                   22135669.9804
  13528811.32446  10578278.58643  23540671.7974                   23540671.5944
 -34822273.54748 -27001734.11346  20747407.4144                   20747405.0904
 -55515881.23447 -43203777.72745  22001220.9064                   22001216.6094
 -17270056.49648 -13108651.05546  21716465.4384                   21716467.0784
 -12869717.29747  -9266178.39145  21965111.0314                   21965110.5084
 11  8 24  2 26 30.0000000  0  9G26G21G29G12G15G05G02G25G30
   2773167.58647   2196373.97344  22651741.6024                   22651740.6094
  22641295.12546  17805789.91043  25057747.7584                   25057747.6604
  -5679242.39147  -2625013.21145  21775774.6094                   21775773.2384
 -33353080.54347 -25762490.55945  22136229.5394                   22136227.8954
  13355341.02746  10443107.01644  23507662.0554                   23507661.0314
 -34848025.18048 -27021800.31646  20742507.0394                   20742505.0314
 -55551388.16047 -43231445.43745  21994463.6024                   21994460.5204
 -17318318.79348 -13146258.03946  21707281.4774                   21707282.3524
 -12908243.62147  -9296198.90645  21957780.0234                   21957779.0704
 11  8 24  2 27  0.0000000  0  9G26G21G29G12G15G05G02G25G30
   2610755.25047   2069818.95743  22620835.2894                   22620834.3014
  22508406.92246  17702240.72742  25032460.1024                   25032459.6174
  -5831863.34847  -2743938.55945  21746731.8914                   21746730.3554
 -33349852.35247 -25759975.09045  22136844.6804                   22136842.2624
  13181904.39547  10307961.64844  23474657.5784                   23474656.7974
 -34873361.49648 -27041542.89546  20737685.5704                   20737683.4064
 -55586800.48047 -43259039.45345  21987725.0004                   21987721.6914
 -17366055.14548 -13183455.19946  21698197.6564                   21698198.2504
 -12946266.98047  -9325827.50845  21950544.6804                   21950543.0704
 11  8 24  2 27 30.0000000  0  9G26G21G29G12G15G05G02G25G30
   2448616.81647   1943477.37944  22589981.0784                   22589980.6174
  22375527.42646  17598698.30543  25007173.9614                   25007173.9414
  -5984293.33647  -2862715.12945  21717725.3284                   21717723.7624
 -33346336.01247 -25757235.10945  22137513.4304                   22137511.6454
  13008501.16046  10172842.33644  23441660.0554                   23441659.2154
 -34898287.99648 -27060966.15246  20732942.3524                   20732939.9304
 -55622121.43447 -43286562.25445  21981003.8134                   21981000.3794
 -17413270.58248 -13220246.45746  21689212.9304                   21689213.8914
 -12983793.02347  -9355068.58645  21943403.5864                   21943402.3834
 11  8 24  2 28  0.0000000  0  9G26G21G29G12G15G05G02G25G30
   2286760.85947   1817355.92644  22559180.6254                   22559180.8714
  22242660.52346  17495165.71143  24981890.0004                   24981889.8014
  -6136525.10247  -2981337.22745  21688756.6484                   21688754.7734
 -33342529.99247 -25754269.41045  22138237.6334                   22138235.7854
  12835138.90247  10037754.96944  23408669.7504                   23408669.2584
 -34922802.00448 -27080067.98046  20728277.3834                   20728275.2664
 -55657346.23847 -43314010.14145  21974300.2034                   21974296.9144
 -17459962.11748 -13256629.48446  21680327.5784                   21680328.5784
 -13020819.28147  -9383920.23845  21936358.0004                   21936356.6414
 11  8 24  2 28 30.0000000  0  9G26G21G29G12G15G05G02G25G30
   2125189.89847   1691456.52744  22528434.8054                   22528434.5554
  22109804.69546  17391641.75442  24956609.2974                   24956607.7424
  -6288557.56647  -3099804.03545  21659825.8524                   21659823.9454
 -33338438.58647 -25751081.32845  22139016.4144                   22139014.4884
  12661819.53146   9902701.00844  23375688.5944                   23375687.4884
 -34946907.37148 -27098851.38746  20723690.3524                   20723688.3714
 -55692475.42647 -43341383.51645  21967615.4844                   21967612.3094
 -17506132.52348 -13292606.42246  21671541.9064                   21671542.7814
 -13057348.96947  -9412384.95345  21929406.2114                   21929405.1564
 11  8 24  2 29  0.0000000  0  9G26G21G29G12G15G05G02G25G30
   1963903.61747   1565778.98844  22497743.2664                   22497742.2894
  21976955.11346  17288122.64142  24931327.8054                   24931327.9534
  -6440392.44947  -3218116.88345  21630932.6174                   21630931.2584
 -33334068.77047 -25747676.30945  22139847.5704                   22139845.9924
  12488542.23446   9767679.82844  23342715.0164                   23342714.1174
 -34970610.04748 -27117321.00846  20719179.7424                   20719177.6884
 -55727513.07047 -43368685.55945  21960947.4454                   21960944.9264
 -17551787.75048 -13328181.93446  21662853.8984                   21662855.0434
 -13093388.63747  -9440467.82445  21922548.0394                   21922547.0634
 11  8 24  2 29 30.0000000  0  9G26G21G29G12G15G05G02G25G30
   1802907.87547   1440327.82044  22467107.2584                   22467105.7544
  21844113.95346  17184610.09442  24906049.0394                   24906048.9144
  -6592024.97347  -3336272.05945  21602077.6564                   21602076.0594
 -33329421.03547 -25744054.71545  22140732.3054                   22140730.5124
  12315312.00047   9632695.32844  23309750.1484                   23309749.5744
 -34993910.25048 -27135477.01646  20714745.9614                   20714743.4184
 -55762456.31647 -43395914.04345  21954297.8754                   21954295.5354
 -17596927.27348 -13363355.60546  21654264.5004                   21654265.0314
 -13128938.21147  -9468168.80545  21915783.1954                   21915782.0204
 11  8 24  2 30  0.0000000  0  9G26G21G29G12G15G05G02G25G30
   3217630.33247   2542709.01644  22736318.7974   22736318.1604   23286703.21946
  18308705.66042                  25180564.6644                   25180564.4774
  -5168029.34447  -2226665.04345  21873054.8674                   21873053.3484
 -31749080.20747 -24512620.30545  22441461.1414                   22441459.9104
  13717556.12147  10725353.18444  23576588.4614                   23576587.4694
 -33441390.74248 -25925721.55146  21010180.9844                   21010178.3014
 -54221885.21547 -42195469.02045  22247458.8594                   22247456.2114
 -16066132.85948 -12170528.78945  21945564.6094                   21945564.9804
 -11588580.35547  -8267889.98445  22208903.9534                   22208902.7664
 11  8 24  2 30 30.0000000  0  9G26G21G29G12G15G05G02G25G30
   3057227.44147   2417719.80944  22705795.6094   22705794.8244   23153877.38346
  18205205.09042                  25155288.7194                   25155289.0274
  -5319249.86747  -2344499.18745  21844278.6804                   21844276.9734
 -31743885.17247 -24508572.25045  22442449.2034                   22442448.6644
  13544429.77047  10590449.61744  23543643.5164                   23543642.8754
 -33463891.83248 -25943254.86346  21005898.9064                   21005896.2384
 -54256638.30547 -42222549.34045  22240846.1414                   22240842.5784
 -16110245.88348 -12204902.57845  21937170.0784                   21937170.7854
 -11623156.23047  -8294832.22745  22202324.0394                   22202323.0594
 11  8 24  2 31  0.0000000  0  9G26G21G29G12G15G05G02G25G30
   2897125.97747   2292965.47744  22675329.2424   22675328.6764   23021057.46546
  18101709.07442                  25130013.6334                   25130013.5084
  -5470261.66047  -2462170.67645  21815542.0634                   21815540.5004
 -31738421.78947 -24504315.09045  22443488.7504                   22443488.3674
  13371359.40646  10455589.66044  23510709.3364                   23510708.6994
 -33485997.91448 -25960480.37946  21001692.3754                   21001689.7894
 -54291296.81247 -42249555.93745  22234250.7584                   22234247.4924
 -16153849.09048 -12238879.11346  21928873.0164                   21928873.7464
 -11657249.48447  -8321398.41045  22195836.1254                   22195835.2664
 11  8 24  2 31 30.0000000  0  9G26G21G29G12G15G05G02G25G30
   2737328.38347   2168447.93844  22644920.6414   22644920.1214   22888242.09846
  17998216.64542                  25104739.4144                   25104739.9414
  -5621063.37547  -2579678.46545  21786845.1254                   21786843.8244
 -31732694.32047 -24499852.14845  22444579.0004                   22444577.6214
  13198346.46146  10320774.43444  23477785.6024                   23477785.0124
 -33507712.40648 -25977400.76246  20997560.0554                   20997557.8634
 -54325861.42247 -42276489.37145  22227673.5164                   22227670.1414
 -16196945.59048 -12272460.81245  21920671.9694                   21920672.3204
 -11690863.75047  -8347591.36345  22189439.6094                   22189438.8794
 11  8 24  2 32  0.0000000  0  9G26G21G29G12G15G05G02G25G30
   2577838.23847   2044169.95344  22614570.5474   22614569.5864   22755430.47746
  17894727.13342                  25079466.8674                   25079466.8714
  -5771652.89147  -2697020.91445  21758188.7344                   21758187.3284
 -31726705.60947 -24495185.63745  22445718.5864                   22445716.8554
  13025394.23846  10186006.53943  23444874.0474                   23444872.9344
 -33529037.65247 -25994017.83246  20993502.0004                   20993499.9264
 -54360332.03547 -42303349.56645  22221114.0314                   22221110.4414
 -16239537.38348 -12305649.23045  21912567.0004                   21912567.3134
 -11724001.43747  -8373412.94945  22183133.7664                   22183132.9654
 11  8 24  2 32 30.0000000  0  9G26G21G29G12G15G05G02G25G30
   2418662.05147   1920136.61344  22584279.9774   22584279.2584   22622624.81345
  17791242.17642                  25054194.6174                   25054195.0044
  -5922025.24647  -2814194.14545  21729574.2584                   21729572.6024
 -31720456.12147 -24490315.93445  22446908.5394                   22446906.2774
  12852508.21946  10051290.23444  23411974.7424                   23411973.9614
 -33549973.23848 -26010331.28146  20989518.0944                   20989515.7504
 -54394705.49647 -42330134.05945  22214572.5634                   22214569.8634
 -16281623.54748 -12338443.65645  21904558.1484                   21904558.6724
 -11756662.34847  -8398863.01245  22176918.6644                   22176917.5784
 11  8 24  2 33  0.0000000  0  9G26G21G29G12G15G05G02G25G30
   2259799.11347   1796347.37544  22554049.9224   22554048.9304   22489820.11346
  17687758.05142                  25028922.5704                   25028922.6994
  -6072182.07847  -2931199.43045  21701000.5004                   21700998.6644
 -31713953.07847 -24485248.63745  22448145.6564                   22448144.4224
  12679687.47346   9916624.78944  23379087.9384                   23379087.3794
 -33570525.93448 -26026346.36746  20985606.8524                   20985604.3444
 -54428985.95347 -42356846.09445  22208049.3444                   22208045.6804
 -16323210.57448 -12370849.14846  21896644.5164                   21896645.3054
 -11788853.21947  -8423946.84045  22170793.0474                   22170792.1764
 11  8 24  2 33 30.0000000  0  9G26G21G29G12G15G05G02G25G30
   2101254.75847   1672806.35944  22523879.9924   22523878.9064   22357017.87546
  17584275.80542                  25003651.4844                   25003651.7194
  -6222119.91847  -3048034.09045  21672468.0394                   21672466.2114
 -31707197.88747 -24479984.90645  22449431.0784                   22449429.8954
  12506936.46947   9782013.69144  23346214.6564                   23346214.0594
 -33590696.37548 -26042063.60246  20981769.0784                   20981766.5984
 -54463171.57847 -42383484.22745  22201544.3984                   22201540.5984
 -16364298.73848 -12402865.89145  21888825.5784                   21888826.2154
 -11820574.88347  -8448665.02045  22164756.8754                   22164755.8484
 11  8 24  2 34  0.0000000  0  9G26G21G29G12G15G05G02G25G30
   1943032.91447   1549516.68044  22493770.8444   22493770.2974   22224217.23046
  17480794.80142                  24978380.0554                   24978380.7384
  -6371835.88747  -3164695.85245  21643978.1644                   21643976.1454
 -31700193.45747 -24474526.94545  22450764.2194                   22450762.5784
  12334258.44547   9647459.45744  23313355.2504                   23313354.1294
 -33610486.65247 -26057484.59046  20978003.0784                   20978000.3984
 -54497261.95347 -42410048.14545  22195057.2114                   22195053.6994
 -16404889.75448 -12434495.26645  21881101.3594                   21881102.3524
 -11851829.68447  -8473019.41845  22158809.1094                   22158808.2624
 11  8 24  2 34 30.0000000  0  9G26G21G29G12G15G05G02G25G30
   1785135.82447   1426480.05144  22463723.7424   22463723.2854   22091416.45746
  17377313.71143                  24953108.2274                   24953109.2734
  -6521328.90647  -3281183.87945  21615530.7664                   21615528.8054
 -31692943.75047 -24468877.84845  22452143.8134                   22452141.8444
  12161654.85947   9512963.21544  23280509.8204                   23280508.5354
 -33629900.65247 -26072612.37946  20974308.6334                   20974306.4414
 -54531257.80147 -42436538.41845  22188587.8364                   22188584.7274
 -16444987.01648 -12465739.88745  21873470.9534                   21873471.9184
 -11882621.36747  -8497012.94945  22152949.3364                   22152948.8834
 11  8 24  2 35  0.0000000  0  9G26G21G29G12G15G05G02G25G30
   1627566.55947   1303698.85544  22433739.6884   22433739.1564   21958614.09046
  17273831.35942                  24927837.9534                   24927836.8284
  -6670597.26248  -3397496.84845  21587125.3594                   21587123.7584
 -31685452.69547 -24463040.67645  22453569.6564                   22453567.3404
  11989128.43047   9378527.10944  23247678.4924                   23247678.0204
 -33648941.58248 -26087449.47346  20970685.1564                   20970682.9144
 -54565159.61347 -42462955.41445  22182136.6484                   22182133.1414
 -16484593.28148 -12496601.91845  21865934.4064                   21865934.9774
 -11912953.10547  -8520648.10245  22147177.6954                   22147177.6914
 11  8 24  2 35 30.0000000  0  9G26G21G29G12G15G05G02G25G30
   1470334.87947   1181180.71544  22403819.5234   22403818.4884   21825816.27746
  17170352.55542                  24902567.0234                   24902566.0944
  -6819632.59847  -3513628.23845  21558765.2664                   21558763.1604
 -31677717.37547 -24457013.19145  22455041.1254                   22455039.7934
  11816688.37547   9244158.29344  23214864.5784                   23214863.6094
 -33667605.44548 -26101992.73446  20967133.3054                   20967131.2774
 -54598960.93047 -42489294.09445  22175704.1804                   22175700.6024
 -16523704.37948 -12527078.09845  21858491.5784                   21858492.7114
 -11942821.39847  -8543922.11745  22141493.9534                   22141493.7384
 11  8 24  2 36  0.0000000  0  9G26G21G29G12G15G05G02G25G30
   1313438.27747   1058923.66844  22373963.1334   22373962.1094   21693016.04746
  17066871.86743                  24877295.1724                   24877295.1334
  -6968439.06648  -3629581.30545  21530448.4064                   21530446.8634
 -31669747.19147 -24450802.69545  22456557.2974                   22456556.8364
  11644331.35547   9109854.17644  23182066.1804                   23182065.1884
 -33685901.23047 -26116249.19946  20963651.7894                   20963650.0824
 -54632667.84847 -42515559.23445  22169290.0004                   22169285.9694
 -16562328.84447 -12557175.08245  21851141.9454                   21851142.2344
 -11972235.18047  -8566841.94945  22135896.6174                   22135895.6884
 11  8 24  2 36 30.0000000  0  9G26G21G29G12G15G05G02G25G30
   1156880.69147    936930.79344  22344170.9534   22344170.2704   21560213.19546
  16963389.14843                  24852024.3834                   24852023.7664
  -7117013.53148  -3745353.58245  21502175.3984                   21502173.6884
 -31661544.49247 -24444411.01245  22458118.6024                   22458117.6334
  11472060.53147   8975617.23844  23149283.9454                   23149283.4734
 -33703830.25847 -26130219.87946  20960240.4144                   20960238.1884
 -54666279.45747 -42541750.10545  22162894.3984                   22162890.4924
 -16600468.21148 -12586894.06245  21843884.1954                   21843884.6134
 -12001196.42647  -8589409.15645  22130385.4454                   22130384.8054
 11  8 24  2 37  0.0000000  0  9G26G21G29G12G15G05G02G25G30
   1000666.27747    815205.32444  22314444.3364   22314443.5634   21427407.61346
  16859904.34842                  24826752.7194                   24826751.4574
  -7265353.10247  -3860942.82445  21473947.1804                   21473945.4844
 -31653111.96547 -24437840.24645  22459723.2194                   22459722.1994
  11299879.99647   8841450.66044  23116519.0634                   23116518.5314
 -33721394.80548 -26143906.54746  20956897.8134                   20956895.3404
 -54699794.64147 -42567865.83645  22156516.8754                   22156513.6414
 -16638124.00047 -12616236.25045  21836718.2274                   21836719.2424
 -12029707.13747  -8611625.29744  22124960.2114                   22124959.6214
 11  8 24  2 37 30.0000000  0  9G26G21G29G12G15G05G02G25G30
    844798.99247    693750.34444  22284783.9694   22284783.0474   21294599.10246
  16756417.21542                  24801480.1334                   24801478.2464
  -7413455.43747  -3976347.21545  21445764.4304                   21445762.5394
 -31644452.35247 -24431092.51645  22461371.0314                   22461370.1724
  11127792.90247   8707356.88344  23083772.5004                   23083771.2114
 -33738597.19548 -26157310.99646  20953624.3284                   20953621.8094
 -54733213.14547 -42593906.23845  22150157.3054                   22150153.5514
 -16675298.27747 -12645203.23045  21829644.0944                   21829644.9614
 -12057769.89847  -8633492.39544  22119619.8834                   22119618.6254
 11  8 24  2 38  0.0000000  0  9G26G21G29G12G15G05G02G25G30
    689281.40247    572567.85544  22255189.9384   22255188.5944   21161786.19546
  16652926.71542                  24776206.4924                   24776205.2624
  -7561319.00448  -4091565.54345  21417626.7034                   21417624.8554
 -31635569.39147 -24424170.75844  22463062.1334                   22463059.7154
  10955800.82447   8573337.14144  23051042.5474                   23051041.9804
 -33755440.69148 -26170435.81246  20950418.7504                   20950416.6484
 -54766535.65647 -42619871.83645  22143816.5314                   22143812.7934
 -16711994.05548 -12673797.34845  21822661.7114                   21822662.0904
 -12085388.16847  -8655013.11744  22114364.3914                   22114363.0554
 11  8 24  2 38 30.0000000  0  9G26G21G29G12G15G05G02G25G30
    534119.88747    451662.83244  22225663.6484   22225662.0704   21028970.94146
  16549434.36343                  24750932.1804                   24750931.6564
  -7708938.80948  -4206593.94146  21389535.7734                   21389534.0474
 -31626463.84047 -24417075.55145  22464794.5164                   22464793.0744
  10783910.22747   8439396.46544  23018332.9454                   23018332.7344
 -33771925.10548 -26183280.80946  20947282.0554                   20947279.4964
 -54799759.28147 -42645760.37145  22137494.3594                   22137490.1994
 -16748210.99648 -12702018.35545  21815769.7424                   21815770.7464
 -12112562.02747  -8676187.55944  22109193.5164                   22109192.5474
 11  8 24  2 39  0.0000000  0  9G26G21G29G12G15G05G02G25G30
    379318.41847    331038.36744  22196205.8284   22196204.1914   20896152.98446
  16445939.85542                  24725657.6334                   24725657.1294
  -7856312.07047  -4321430.22345  21361491.7734                   21361489.4184
 -31617137.99247 -24409808.69145  22466569.5704                   22466567.5594
  10612124.17246   8305537.25844  22985643.2274                   22985642.4384
 -33788052.47347 -26195847.60546  20944213.1414                   20944210.8094
 -54832883.16447 -42671571.19545  22131190.7894                   22131186.9924
 -16783950.91848 -12729867.66045  21808968.5554                   21808969.0864
 -12139293.78147  -8697017.51644  22104106.0474                   22104105.2304
 11  8 24  2 39 30.0000000  0  9G26G21G29G12G15G05G02G25G30
    224879.07447    210696.06644  22166816.9224   22166815.6454   20763330.35246
  16342441.77742                  24700382.3674                   24700381.8014
  -8003437.78148  -4436073.60946  21333494.4384                   21333492.4804
 -31607597.07047 -24402374.23045  22468384.9224                   22468383.3404
  10440444.17646   8171760.68044  22952973.5784                   22952973.1524
 -33803826.68747 -26208139.21946  20941211.3914                   20941209.1094
 -54865908.58247 -42697305.28945  22124906.3134                   22124902.2304
 -16819217.48448 -12757348.11345  21802257.2424                   21802257.9884
 -12165587.53147  -8717506.15245  22099102.8674                   22099101.6214
 11  8 24  2 40  0.0000000  0  9G26G21G29G12G15G05G02G25G30
     70807.37547     90640.25844  22137497.7974   22137497.0634   20630504.59045
  16238941.20742                  24675106.0164                   24675105.5474
  -8150311.82047  -4550520.87546  21305545.0234                   21305543.7894
 -31597841.82847 -24394772.77745  22470241.2894                   22470239.6914
  10268875.40647   8038070.77044  22920325.4454                   22920324.6994
 -33819248.18048 -26220155.97746  20938276.6254                   20938274.4384
 -54898833.20347 -42722960.84845  22118640.1334                   22118636.5044
 -16854011.00848 -12784459.96545  21795636.6094                   21795637.1604
 -12191443.98847  -8737654.03945  22094182.6804                   22094181.3524
 11  8 24  2 40 30.0000000  0  9G26G21G29G12G15G05G02G25G30
   1492528.01247   1198474.56644  22408042.9454   22408041.3634   22073095.37146
  17363038.01242                  24949622.2504                   24949621.2074
  -6721510.78147  -3437169.37946  21577436.9694                   21577435.5904
 -30012459.79347 -23159410.18745  22771929.6414                   22771927.9844
  11672842.73846   9132071.32444  23187491.4304                   23187490.6134
 -32258903.12547 -25004302.69546  21235200.5004                   21235198.2894
 -53356239.41047 -41520939.72745  22412186.5314                   22412182.8794
 -15312916.64148 -11583607.22345  22088896.8134                   22088898.0124
 -10641449.14547  -7529865.86745  22389137.2114                   22389136.0904
 11  8 24  2 41  0.0000000  0  9G26G21G29G12G15G05G02G25G30
   1339193.61347   1078993.25844  22378863.6484   22378862.3244   21940252.77046
  17259524.29343                  24924343.2814                   24924342.3984
  -6867882.68047  -3551225.37546  21549583.5634                   21549581.4654
 -30002293.77747 -23151488.65645  22773864.0164                   22773862.5984
  11501496.85947   8998555.08644  23154884.7504                   23154884.4344
 -32273635.45747 -25015782.44946  21232397.1564                   21232395.0124
 -53388969.90247 -41546444.02345  22405957.8674                   22405953.7384
 -15346779.53548 -11609993.91045  22082453.0784                   22082454.3054
 -10666448.00047  -7549345.50045  22384379.5704                   22384378.2274
 11  8 24  2 41 30.0000000  0  9G26G21G29G12G15G05G02G25G30
   1186233.66047    959803.72344  22349756.1414   22349755.3094   21807401.06646
  17156003.55943                  24899062.2344                   24899061.2584
  -7013999.95347  -3665082.96146  21521777.7974                   21521775.9804
 -29991926.71947 -23143410.43745  22775836.5634                   22775835.9104
  11330267.41847   8865129.58644  23122301.0394                   23122300.5314
 -32288026.50448 -25026996.27346  21229658.7584                   21229656.6644
 -53421602.50047 -41571872.04345  22399748.5704                   22399744.8014
 -15380180.28148 -11636020.47745  22076096.9454                   22076098.2814
 -10691021.77047  -7568493.89545  22379703.6024                   22379702.5594
 11  8 24  2 42  0.0000000  0  9G26G21G29G12G15G05G02G25G30
   1033651.28147    840908.41044  22320720.6174   22320720.2034   21674539.48846
  17052475.10543                  24873779.8284                   24873778.3244
  -7159860.94948  -3778740.85246  21494021.8364                   21494020.0554
 -29981362.32847 -23135178.45745  22777846.9304                   22777845.7304
  11159157.08247   8731796.91044  23089739.6414                   23089739.1764
 -32302079.30548 -25037946.52046  21226984.4774                   21226982.2234
 -53454137.61747 -41597224.09445  22393557.8134                   22393552.7974
 -15413121.74248 -11661689.16045  22069828.6564                   22069829.3674
 -10715173.87947  -7587313.72745  22375107.4614                   22375106.6134
 11  8 24  2 42 30.0000000  0  9G26G21G29G12G15G05G02G25G30
    881451.02747    722310.85544  22291758.2274   22291757.3204   21541668.68846
  16948939.44943                  24848495.7344                   24848493.3284
  -7305461.43448  -3892195.73846  21466314.7274                   21466313.0594
 -29970602.21547 -23126793.98045  22779894.3134                   22779893.3164
  10988169.81647   8598560.12944  23057202.2894                   23057201.5984
 -32315794.99648 -25048634.08246  21224374.2344                   21224371.8094
 -53486573.41447 -41622498.75445  22387385.4304                   22387380.7704
 -15445604.94548 -11687000.75045  22063647.1174                   22063647.9024
 -10738905.67247  -7605806.03145  22370591.4774                   22370590.8244
 11  8 24  2 43  0.0000000  0  9G26G21G29G12G15G05G02G25G30
    729635.46147    604013.05544  22262868.4844   22262867.6094   21408786.74246
  16845395.10943                  24823208.2584                   24823207.1334
  -7450800.59047  -4005447.01246  21438657.4694                   21438655.8954
 -29959651.09447 -23118260.65245  22781978.2114                   22781977.6024
  10817307.70747   8465420.87944  23024688.5164                   23024687.2624
 -32329177.32448 -25059061.87546  21221827.5944                   21221825.8524
 -53518910.82447 -41647696.74645  22381231.5004                   22381227.8484
 -15477633.53548 -11711958.10545  22057552.2114                   22057553.3204
 -10762221.29747  -7623974.03945  22366154.9454                   22366153.5944
 11  8 24  2 43 30.0000000  0  9G26G21G29G12G15G05G02G25G30
    578205.20347    486015.49244  22234052.1254   22234051.0204   21275890.45346
  16741839.60543                  24797918.9304                   24797917.8634
  -7595878.79348  -4118494.93746  21411049.8444                   21411048.2034
 -29948514.60247 -23109582.89145  22784097.6804                   22784097.0984
  10646571.09447   8332379.42244  22992197.8284                   22992196.9304
 -32342231.70347 -25069234.11746  21219343.4454                   21219341.2814
 -53551152.31647 -41672820.00445  22375095.5634                   22375092.3914
 -15509212.68748 -11736565.25846  22051543.5474                   22051544.1054
 -10785126.36747  -7641822.15245  22361796.3984                   22361795.2344
 11  8 24  2 44  0.0000000  0 10G26G21G29G12G15G05G02G25G30G18
    427166.89847    368323.34044  22205310.7814   22205309.2304   21142982.34046
  16638274.87543                  24772626.6644                   24772626.6374
  -7740690.37147  -4231335.10246  21383492.7974                   21383491.3204
 -29937192.38347 -23100760.43045  22786252.4224                   22786251.5704
  10475966.15646   8199440.55944  22959732.7424                   22959731.6994
 -32354957.37548 -25079150.21946  21216922.0634                   21216919.3164
 -53583294.27047 -41697865.69145  22368979.1174                   22368976.1134
 -15540341.53948 -11760821.51645  22045619.5704                   22045620.0354
 -10807620.35947  -7659349.94545  22357515.0634                   22357514.4924
  26538121.63356  20756870.57052  24699110.0314                   24699108.4574
 11  8 24  2 44 30.0000000  0 10G26G21G29G12G15G05G02G25G30G18
    276523.90247    250939.21944  22176644.2974   22176643.1334   21010061.82446
  16534700.50843                  24747333.1254                   24747332.3244
  -7885233.39547  -4343965.99246  21355987.6414                   21355986.0274
 -29925688.05547 -23091796.03945  22788441.7664                   22788440.4924
  10305495.32847   8066606.19944  22927293.1334                   22927292.5474
 -32367357.17648 -25088812.39546  21214562.2194                   21214560.1804
 -53615336.93447 -41722834.01245  22362881.8674                   22362878.2344
 -15571022.95748 -11784729.12146  22039781.1724                   22039782.4384
 -10829706.62147  -7676560.02045  22353312.3204                   22353311.4494
  26371969.57846  20627401.59042  24667491.2504                   24667491.4064
 11  8 24  2 45  0.0000000  0 10G26G21G29G12G15G05G02G25G30G18
    126276.88347    133863.66444  22148053.1174   22148051.9384   20877125.55546
  16431113.82843                  24722036.7504                   24722035.4344
  -8029508.03547  -4456387.75846  21328533.2114                   21328531.2664
 -29914007.55147 -23082694.39145  22790664.4224                   22790662.7934
  10135159.29747   7933876.87544  22894879.6334                   22894879.0394
 -32379436.09048 -25098224.53546  21212263.8364                   21212261.7704
 -53647282.35547 -41747726.55545  22356802.9844                   22356799.5554
 -15601261.98048 -11808292.00445  22034027.2664                   22034027.8754
 -10851390.62147  -7693456.65644  22349186.2734                   22349185.0354
  26205987.62946  20498065.12542  24635906.1414                   24635905.8634
 11  8 24  2 45 30.0000000  0 10G26G21G29G12G15G05G02G25G30G18
    -23567.96947     17101.47744  22119539.1254   22119537.4774   20744175.79746
  16327516.68043                  24696737.2194                   24696736.2664
  -8173509.47348  -4568596.63746  21301130.1484                   21301128.7424
 -29902151.04747 -23073455.58645  22792920.9694                   22792918.8244
   9964964.01646   7801257.22344  22862492.4384                   22862491.9384
 -32391193.96948 -25107386.51246  21210026.8914                   21210024.7504
 -53679127.35247 -41772540.84045  22350743.0004                   22350739.5164
 -15631058.35548 -11831509.96545  22028356.8984                   22028357.8404
 -10872672.37547  -7710039.84845  22345136.8674                   22345135.7894
  26040179.20746  20368863.86742  24604354.1484                   24604354.1764
 11  8 24  2 46  0.0000000  0 10G26G21G29G12G15G05G02G25G30G18
   -173009.98847    -99346.80544  22091100.8054   22091099.4614   20611208.90246
  16223906.19143                  24671434.4844                   24671432.6684
  -8317237.90648  -4680592.78146  21273779.5394                   21273778.0314
 -29890124.56647 -23064084.34845  22795209.4384                   22795207.7114
   9794909.75046   7668747.46544  22830132.2114                   22830131.2384
 -32402636.12148 -25116302.48046  21207848.6644                   21207846.9344
 -53710874.51247 -41797278.90245  22344701.4454                   22344698.4264
 -15660417.25848 -11854387.02345  22022769.8054                   22022770.6414
 -10893557.67647  -7726314.11744  22341162.3834                   22341161.6054
  25874543.20746  20239796.95342  24572833.9304                   24572834.1214
 11  8 24  2 46 30.0000000  0 10G26G21G29G12G15G05G02G25G30G18
   -322041.72347   -215475.39544  22062741.0864   22062739.6294   20478228.18846
  16120284.93043                  24646128.3444                   24646127.6054
  -8460687.21148  -4792371.41846  21246482.4614                   21246480.4144
 -29877927.27747 -23054580.00845  22797530.6414                   22797528.7814
   9625003.06647   7536352.70344  22797799.8674                   22797799.2854
 -32413761.29748 -25124971.44546  21205731.4774                   21205729.8404
 -53742519.91847 -41821937.66444  22338679.6414                   22338676.1804
 -15689337.55948 -11876922.34045  22017266.6414                   22017267.8164
 -10914045.60947  -7742278.76244  22337263.3754                   22337262.5204
  25709084.73046  20110868.37942  24541348.0634                   24541348.3244
 11  8 24  2 47  0.0000000  0 10G26G21G29G12G15G05G02G25G30G18
   -470664.32847   -331285.17645  22034458.5634   22034458.1684   20345228.91846
  16016649.19143                  24620819.8594                   24620818.6604
  -8603859.47747  -4903934.18446  21219237.5784                   21219235.6484
 -29865566.84847 -23044948.56245  22799882.9144                   22799880.6724
   9455242.84847   7404072.09045  22765495.0164                   22765494.9264
 -32424576.19548 -25133398.64146  21203674.2034                   21203672.0204
 -53774067.57047 -41846520.25845  22332676.5944                   22332672.5634
 -15717826.16848 -11899121.26645  22011845.3284                   22011846.5514
 -10934143.55547  -7757939.51645  22333438.7894                   22333437.9964
  25543800.41846  19982075.54742  24509895.2504                   24509896.3324
 11  8 24  2 47 30.0000000  0 10G26G21G29G12G15G05G02G25G30G18
   -618870.94547   -446770.82044  22006255.9384   22006254.8674   20212213.25846
  15913000.70343                  24595508.2734                   24595506.6524
  -8746749.34448  -5015276.91046  21192046.6804                   21192044.7584
 -29853043.34447 -23035190.02744  22802265.8674                   22802264.5204
   9285635.24647   7271910.37944  22733220.4064                   22733218.9654
 -32435080.49248 -25141583.80146  21201675.1334                   21201672.6054
 -53805513.87147 -41871023.85945  22326692.6094                   22326688.3244
 -15745882.43047 -11920983.30945  22006506.3914                   22006507.2624
 -10953851.28547  -7773296.19144  22329688.9844                   22329688.1604
  25378694.85246  19853421.98443  24478476.5784                   24478478.7274
 11  8 24  2 48  0.0000000  0 10G26G21G29G12G15G05G02G25G30G18
   -766662.70347   -561933.19945  21978132.2114   21978130.8954   20079176.94546
  15809336.13343                  24570191.6804                   24570190.5784
  -8889358.49648  -5126400.89546  21164909.1414                   21164907.2734
 -29840363.93747 -23025310.00844  22804678.7344                   22804676.6524
   9116179.25047   7139866.79344  22700973.6484                   22700972.9734
 -32445281.07848 -25149532.31246  21199734.1644                   21199731.3594
 -53836862.51247 -41895451.37544  22320727.2034                   22320723.0274
 -15773513.06248 -11942513.69545  22001248.5704                   22001249.5704
 -10973175.88347  -7788354.34445  22326011.6804                   22326011.0354
  25213764.76246  19724905.08242  24447092.6884                   24447093.1644
 11  8 24  2 48 30.0000000  0 10G26G21G29G12G15G05G02G25G30G18
   -914029.95747   -676764.79745  21950089.2274   21950088.0824   19946125.18846
  15705659.49643                  24544872.5234                   24544871.6374
  -9031678.69948  -5237299.71546  21137826.5704                   21137824.2034
 -29827525.70747 -23015306.21544  22807121.6414                   22807120.0634
   8946883.46947   7007948.06344  22668757.8914                   22668756.6604
 -32455173.80148 -25157240.92646  21197851.7034                   21197848.8954
 -53868107.31247 -41919797.97744  22314780.9774                   22314777.7974
 -15800714.73448 -11963709.84045  21996072.3284                   21996073.2854
 -10992114.34847  -7803111.60545  22322407.5314                   22322407.3404
  25049017.49246  19596530.74642  24415742.1254                   24415742.0004
 11  8 24  2 49  0.0000000  0 10G26G21G29G12G15G05G02G25G30G18
  -1060970.25447   -791263.69145  21922127.3674   21922126.6214   19813056.41046
  15601969.65243                  24519550.5784                   24519549.2194
  -9173708.78147  -5347972.46946  21110798.6644                   21110796.5084
 -29814532.92247 -23005181.98844  22809593.9924                   22809592.8754
   8777750.45347   6876156.16044  22636572.6484                   22636571.4964
 -32464762.65648 -25164712.77046  21196026.5864                   21196024.5634
 -53899249.02347 -41944064.26245  22308854.6804                   22308851.8444
 -15827491.01248 -11984574.50045  21990976.9614                   21990977.9884
 -11010670.65247  -7817571.08245  22318876.2664                   22318875.5124
  24884453.22346  19468298.96942  24384425.8284                   24384425.8714
 11  8 24  2 49 30.0000000  0 10G26G21G29G12G15G05G02G25G30G18
  -1207478.79347   -905426.16044  21894247.6254   21894246.3284   19679971.93446
  15498267.53543                  24494225.1484                   24494224.0474
  -9315444.31247  -5458415.71146  21083827.5704                   21083825.2034
 -29801386.83247 -22994938.30944  22812095.5864                   22812094.3094
   8608784.62147   6744494.55144  22604419.8594                   22604418.4494
 -32474048.23448 -25171948.29346  21194260.0864                   21194257.7734
 -53930285.15247 -41968248.28145  22302949.0394                   22302945.5594
 -15853842.64848 -12005108.27745  21985962.4694                   21985963.1564
 -11028845.99247  -7831733.70345  22315418.1174                   22315417.3524
  24720075.07446  19340212.22342  24353145.4144                   24353145.6134
 11  8 24  2 50  0.0000000  0 10G26G21G29G12G15G05G02G25G30G18
  -1353553.33647  -1019250.44945  21866450.7344   21866449.1374   19546869.86746
  15394551.73043                  24468896.8594                   24468895.2544
  -9456884.39847  -5568628.73446  21056912.0554                   21056910.0704
 -29788091.82447 -22984578.60544  22814625.5864                   22814624.4224
   8439988.09047   6612964.84044  22572298.8674                   22572297.8444
 -32483034.61748 -25178950.66846  21192549.9144                   21192547.8134
 -53961217.21147 -41992351.20745  22297063.6024                   22297059.4344
 -15879773.77048 -12025314.37145  21981027.5554                   21981028.5824
 -11046644.77047  -7845602.90645  22312031.0784                   22312029.9384
  24555882.56346  19212270.17242  24321900.8594                   24321900.6884
 11  8 24  2 50 30.0000000  0 10G26G21G29G12G15G05G02G25G30G18
     76234.12547     94869.67645  22138530.0084   22138528.4774   20989173.85246
  16518425.06643                  24743357.1804                   24743356.8984
  -8022602.20747  -4451006.21546  21329847.0164                   21329844.8204
 -28199232.03847 -21746506.06444  23116975.9694                   23116974.6954
   9846789.27747   7709173.61344  22840004.0164                   22840003.0514
 -30916304.29748 -23958121.85546  21490688.5164                   21490687.0044
 -52416623.75847 -40788771.90645  22590989.6884                   22590985.8794
 -14329866.17648 -10817594.21545  22275965.4774                   22275967.0944
  -9488649.53547  -6631580.67245  22608507.2814   22608506.8014   25967302.39546
  20312077.96943                  24590484.3914                   24590484.6174
 11  8 24  2 51  0.0000000  0 10G26G21G29G12G15G05G02G25G30G18
    -68964.10247    -18271.76244  22110899.8524   22110898.4694   20856033.16846
  16414679.16443                  24718022.0084                   24718020.5044
  -8163446.27047  -4560754.80546  21303044.9064                   21303043.1604
 -28185650.69147 -21735923.24244  23119560.1414                   23119559.0354
   9678338.74247   7577913.52045  22807948.9384                   22807947.7424
 -30924701.66048 -23964665.25046  21489090.5394                   21489088.9104
 -52447347.86747 -40812712.79345  22585143.0084                   22585139.2544
 -14354965.69147 -10837152.30545  22271189.2974                   22271190.5744
  -9505705.77747  -6644871.29745  22605262.6564   22605261.0984   25803483.35246
  20184426.89543                  24559310.7974                   24559311.0004
 11  8 24  2 51 30.0000000  0 10G26G21G29G12G15G05G02G25G30G18
   -213718.69947   -131067.53544  22083353.2034   22083352.5664   20722872.54746
  16310917.73443                  24692681.8754                   24692680.6294
  -8303988.30147  -4670268.05146  21276301.0004                   21276298.9964
 -28171930.43447 -21725232.17244  23122171.3204                   23122170.0664
   9510065.85547   7446791.84444  22775928.1254                   22775926.7664
 -30932807.64848 -23970981.60946  21487547.5784                   21487546.2664
 -52477966.87947 -40836571.78945  22579316.4774                   22579312.9654
 -14379652.96548 -10856389.16045  22266491.2194                   22266492.2384
  -9522394.97347  -6657875.88345  22602086.5394   22602085.1884   25639853.13746
  20056922.94543                  24528173.0944                   24528173.0784
 11  8 24  2 52  0.0000000  0 10G26G21G29G12G15G05G02G25G30G18
   -358029.46947   -243517.44544  22055891.8364   22055890.8164   20589688.62046
  16207138.13743                  24667338.1564                   24667336.9774
  -8444229.22347  -4779546.66446  21249613.7344                   21249611.9304
 -28158077.51247 -21714437.72744  23124806.8984                   23124805.6764
   9341970.57447   7315808.56344  22743940.0554                   22743938.7304
 -30940627.97748 -23977075.37946  21486059.6564                   21486058.2344
 -52508483.70747 -40860351.17244  22573508.6484                   22573505.5164
 -14403933.93448 -10875309.41845  22261870.8834                   22261872.2344
  -9538723.31647  -6670599.28944  22598979.4224   22598977.8404   25476409.74646
  19929564.55943                  24497070.5394                   24497071.1414
 11  8 24  2 52 30.0000000  0 10G26G21G29G12G15G05G02G25G30G18
   -501889.52347   -355616.16044  22028516.7734   22028515.4064   20456484.45346
  16103342.71943                  24641990.5944                   24641988.6994
  -8584162.73847  -4888585.74646  21222985.5474                   21222983.6414
 -28144091.19947 -21703539.34444  23127468.7584                   23127467.2544
   9174059.84047   7184969.08645  22711987.6024                   22711986.4104
 -30948161.44148 -23982945.61346  21484626.0634                   21484624.5904
 -52538894.27347 -40884047.75045  22567722.5704                   22567718.9184
 -14427807.53948 -10893912.23845  22257327.3054                   22257328.8054
  -9554690.02347  -6683040.91844  22595940.2894   22595939.5554   25313157.99646
  19802355.49542                  24466004.6254                   24466004.6604
 11  8 24  2 53  0.0000000  0 10G26G21G29G12G15G05G02G25G30G18
   -645294.33647   -467360.14145  22001227.6484   22001226.2154   20323260.79346
  15999532.16843                  24616638.2974                   24616636.8244
  -8723785.60247  -4997382.76646  21196416.4384                   21196414.1484
 -28129973.37147 -21692538.50044  23130155.3364                   23130153.5354
   9006338.17247   7054276.93845  22680071.2584                   22680070.2034
 -30955409.70748 -23988593.61346  21483247.0784                   21483244.8524
 -52569197.05547 -40907660.33245  22561956.2894                   22561951.9384
 -14451275.20348 -10912198.74645  22252862.2734                   22252863.1564
  -9570297.00847  -6695202.23844  22592970.2664   22592969.6764   25150100.50446
  19675297.82043                  24434976.5864                   24434975.6954
 11  8 24  2 53 30.0000000  0 10G26G21G29G12G15G05G02G25G30G18
   -788240.24647   -578746.53945  21974025.6174   21974024.1294   20190017.21946
  15895706.05943                  24591282.9304                   24591281.6174
  -8863095.16447  -5105935.64546  21169906.4064                   21169904.3404
 -28115727.10747 -21681437.55444  23132866.2664                   23132864.4024
   8838808.62547   6923734.48845  22648191.1334                   22648190.1254
 -30962374.68448 -23994020.85946  21481921.9064                   21481919.1644
 -52599391.37147 -40931188.40645  22556209.9694                   22556206.4104
 -14474339.41448 -10930170.88345  22248473.4454                   22248474.1954
  -9585546.96947  -6707085.35544  22590068.5084   22590067.5044   24987238.36746
  19548392.39843                  24403984.6094                   24403983.5004
 11  8 24  2 54  0.0000000  0 10G26G21G29G12G15G05G02G25G30G18
   -930727.58247   -689775.60945  21946911.2894   21946909.9264   20056749.78546
  15791861.39543                  24565923.0474                   24565921.7344
  -9002092.44547  -5214245.18746  21143455.8914                   21143453.6884
 -28101358.89846 -21670241.55944  23135600.1254                   23135598.3714
   8671470.80547   6793341.43045  22616348.0084                   22616347.2154
 -30969062.44148 -23999232.09046  21480648.9304                   21480646.6524
 -52629480.30147 -40954634.36345  22550484.6484                   22550480.7664
 -14497006.45747 -10947833.52745  22244160.2504                   22244161.2774
  -9600446.51247  -6718695.42244  22587233.0704   22587232.4384   24824569.42246
  19421637.47743                  24373029.4224                   24373028.7114
 11  8 24  2 54 30.0000000  0 10G26G21G29G12G15G05G02G25G30G18
  -1072754.12147   -800445.60245  21919884.0004   21919883.3284   19923457.30146
  15687997.18843                  24540558.1644                   24540556.7154
  -9140776.34047  -5322310.54346  21117065.5084                   21117062.9844
 -28086872.89147 -21658953.78944  23138356.7734                   23138355.9694
   8504326.63347   6663099.25845  22584541.4064                   22584540.2154
 -30975476.82048 -24004230.30946  21479428.7344                   21479426.2854
 -52659464.30547 -40977998.55945  22544778.5314                   22544775.4344
 -14519280.05547 -10965189.58245  22239921.9064                   22239922.5784
  -9614999.86747  -6730035.71144  22584464.0234   22584462.9344   24662093.46546
  19295032.94143                  24342110.7034                   24342110.0164
 11  8 24  2 55  0.0000000  0 10G26G21G29G12G15G05G02G25G30G18
  -1214314.78147   -910752.57445  21892946.3594   21892945.5164   19790140.65246
  15584114.14143                  24515188.9454                   24515187.9224
  -9279142.83247  -5430128.57046  21090735.0234                   21090733.2114
 -28072270.60947 -21647575.43044  23141135.7584                   23141134.6054
   8337381.12946   6533011.89845  22552773.0784                   22552771.5944
 -30981618.47748 -24009016.01645  21478259.7274                   21478257.2384
 -52689341.74247 -41001279.71945  22539093.4224                   22539089.8204
 -14541161.35947 -10982239.96145  22235757.3134                   22235758.2974
  -9629208.43447  -6741107.34444  22581759.6954   22581759.5234   24499813.26246
  19168580.94142                  24311229.7274                   24311228.9924
 11  8 24  2 55 30.0000000  0 10G26G21G29G12G15G05G02G25G30G18
  -1355405.82047  -1020693.62545  21866097.5864   21866096.9614   19656799.58646
  15480212.09443                  24489815.3674                   24489813.9264
  -9417188.70347  -5537696.76246  21064465.8754                   21064463.6094
 -28057554.28946 -21636108.18444  23143935.9694                   23143934.8444
   8170637.74646   6403082.05145  22521042.4304                   22521041.5044
 -30987489.10548 -24013590.53945  21477142.7894                   21477140.6054
 -52719111.51647 -41024476.97745  22533428.5634                   22533425.2114
 -14562652.43747 -10998986.25845  22231667.9534                   22231668.3324
  -9643074.52747  -6751912.14544  22579121.7034   22579120.8014   24337730.71546
  19042282.96542                  24280386.8134                   24280385.8014
 11  8 24  2 56  0.0000000  0 10G26G21G29G12G15G05G02G25G30G18
  -1496020.53147  -1130263.49644  21839339.2344   21839338.3674   19523437.35946
  15376293.52743                  24464437.5554                   24464435.5824
  -9554908.48847  -5645010.86746  21038258.6804                   21038256.2234
 -28042723.94947 -21624552.10944  23146758.8364                   23146756.7274
   8004102.96947   6273314.74245  22489351.8914                   22489350.8324
 -30993088.05548 -24017953.37145  21476077.2344                   21476074.6684
 -52748769.89547 -41047587.41445  22527785.1884                   22527781.3444
 -14583752.65247 -11015427.99245  22227652.3284                   22227653.9774
  -9656597.89847  -6762449.84444  22576548.4454   22576546.9614   24175850.18446
  18916142.39542                  24249580.8834                   24249580.6174
 11  8 24  2 56 30.0000000  0 10G26G21G29G12G15G05G02G25G30G18
  -1636158.21147  -1239461.67645  21812672.3524   21812670.8914   19390050.86746
  15272356.07843                  24439054.6644                   24439052.5984
  -9692302.39547  -5752071.04346  21012113.3284                   21012111.2234
 -28027784.80146 -21612911.23844  23149601.6414                   23149599.8444
   7837777.51647   6143710.55544  22457701.0234                   22457700.1374
 -30998420.20348 -24022108.27345  21475062.6484                   21475060.1684
 -52778318.61347 -41070612.42644  22522161.6334                   22522157.9144
 -14604467.38347 -11031569.35245  22223711.3524                   22223711.8834
  -9669784.27047  -6772724.96545  22574039.4694   22574038.2234   24014170.38346
  18790158.23042                  24218814.5474                   24218814.3444
 11  8 24  2 57  0.0000000  0 10G26G21G29G12G15G05G02G25G30G18
  -1775814.87547  -1348285.02345  21786096.4454   21786095.0664   19256640.57846
  15168400.08243                  24413666.2664                   24413665.8054
  -9829366.93447  -5858874.56646  20986031.0084                   20986028.6414
 -28012739.37147 -21601187.55144  23152464.6414                   23152463.0354
   7671665.41847   6014272.60945  22426091.7034                   22426089.7734
 -31003487.03548 -24026056.44945  21474098.5084                   21474096.1294
 -52807756.69547 -41093551.22344  22516559.7274                   22516556.5204
 -14624798.44147 -11047411.75045  22219842.1254                   22219843.0314
  -9682635.73847  -6782739.11744  22571593.7344   22571593.1334   23852693.28946
  18664332.05942                  24188086.6724                   24188086.6644
 11  8 24  2 57 30.0000000  0 10G26G21G29G12G15G05G02G25G30G18
  -1914986.96547  -1456730.77345  21759612.9384   21759611.7664   19123206.89146
  15064425.85543                  24388275.4454                   24388274.3014
  -9966099.68747  -5965419.55546  20960011.7194                   20960009.2584
 -27997590.15246 -21589382.98844  23155347.5864                   23155346.2624
   7505770.00447   5885003.50045  22394521.8914                   22394520.8094
 -31008290.98047 -24029799.77046  21473184.0084                   21473181.8164
 -52837083.15247 -41116403.04345  22510979.2424                   22510975.9924
 -14644748.15647 -11062957.00045  22216045.7194                   22216046.8594
  -9695154.98047  -6792494.36744  22569211.2034   22569210.6454   23691420.33946
  18538664.89242                  24157397.6724                   24157396.8364
 11  8 24  2 58  0.0000000  0 10G26G21G29G12G15G05G02G25G30G18
  -2053670.47347  -1564795.82445  21733222.3134   21733220.8054   18989749.56646
  14960433.20743                  24362879.5314                   24362878.0554
 -10102496.91047  -6071703.09046  20934056.3284                   20934053.6684
 -27982339.36347 -21577499.31644  23158249.3444                   23158248.0944
   7340095.15247   5755906.26645  22362995.2034                   22362993.6724
 -31012833.67648 -24033339.52746  21472319.8444                   21472318.1884
 -52866296.76647 -41139166.91845  22505420.6334                   22505416.7234
 -14664318.76247 -11078206.83645  22212321.1804                   22212322.5314
  -9707344.48447  -6801992.67244  22566891.5234   22566890.9924   23530352.85946
  18413157.89842                  24126747.5394                   24126746.5354
 11  8 24  2 58 30.0000000  0 10G26G21G29G12G15G05G02G25G30G18
  -2191864.60947  -1672479.53545  21706924.8524   21706923.0394   18856265.68846
  14856419.86343                  24337477.5084                   24337476.7344
 -10238559.45347  -6177725.83646  20908164.4534                   20908162.2234
 -27966992.77047 -21565540.96944  23161170.0944                   23161168.3524
   7174641.46547   5626981.36745  22331510.3594                   22331508.6604
 -31017119.96548 -24036679.48846  21471504.1254                   21471502.4414
 -52895399.58247 -41161844.48044  22499882.3054                   22499879.3204
 -14683515.44947 -11093165.29745  22208668.3834                   22208669.6804
  -9719209.72347  -6811238.29344  22564633.5474   22564633.4104   23369490.37146
  18287810.54342                  24096136.4534                   24096135.5274
 11  8 24  2 59  0.0000000  0 10G26G21G29G12G15G05G02G25G30G18
  -2329564.84847  -1779778.41445  21680721.2034   21680719.6174   18722756.54346
  14752386.82843                  24312072.4924                   24312071.1334
 -10374283.28547  -6283484.64546  20882336.6024                   20882334.3204
 -27951551.43747 -21553508.80944  23164108.4774                   23164107.0864
   7009413.59447   5498232.44545  22300068.5234                   22300067.2424
 -31021150.98448 -24039820.54746  21470737.2504                   21470735.2234
 -52924389.82047 -41184434.31644  22494364.7274                   22494362.2854
 -14702339.57047 -11107833.43745  22205086.2194                   22205087.8984
  -9730752.39147  -6820232.58244  22562437.7664   22562436.7274   23208834.84446
  18162624.46942                  24065564.2274                   24065564.2974
 11  8 24  2 59 30.0000000  0 10G26G21G29G12G15G05G02G25G30G18
  -2466767.52747  -1886689.57045  21654612.6644   21654611.0554   18589221.73846
  14648333.76643                  24286661.1954                   24286659.7734
 -10509665.66847  -6388977.39846  20856574.6334                   20856572.1994
 -27936019.03146 -21541405.69544  23167063.5864                   23167062.3794
   6844414.86747   5369662.06344  22268670.3524                   22268668.7544
 -31024928.91448 -24042764.38746  21470018.4454                   21470016.3244
 -52953266.71147 -41206935.82845  22488869.5634                   22488866.9184
 -14720793.69547 -11122213.28945  22201574.6804                   22201575.8444
  -9741975.39147  -6828977.77044  22560301.5394   22560300.9574   23048387.60246
  18037600.73043                  24035032.1954                   24035031.8634
 11  8 24  3  0  0.0000000  0 10G26G21G29G12G15G05G02G25G30G18
  -2603472.88347  -1993213.19145  21628598.1954   21628596.9224   18455657.62946
  14544257.90243                  24261245.0084                   24261243.6644
 -10644707.39847  -6494204.70746  20830876.7274                   20830874.5234
 -27920401.14846 -21529235.96544  23170035.6724                   23170034.5314
   6679645.31347   5241270.24245  22237315.8524                   22237314.0084
 -31028459.07448 -24045515.15646  21469346.5634                   21469344.2704
 -52982033.04347 -41229351.19544  22483395.8754                   22483393.1564
 -14738883.66447 -11136309.36345  22198132.2274                   22198133.5204
  -9752884.78947  -6837478.59044  22558225.5234   22558224.7154   22888146.86346
  17912737.90243                  24004539.3444                   24004538.2544
 11  8 24  3  0 30.0000000  0 10G26G21G29G12G15G05G02G25G30G18
  -1164250.53547   -871741.21945  21902472.7194   21902471.6884   19897491.21546
  15667764.62943                  24535616.2814                   24535614.9344
  -9203979.14547  -5371559.28946  21105038.2974                   21105036.0554
 -26329278.65647 -20289400.31244  23472816.3594                   23472815.3204
   8090536.25047   6340665.83245  22505799.6254                   22505797.9534
 -29456321.15248 -22820472.61346  21768514.0164                   21768512.0784
 -51435264.55947 -40024077.09045  22777737.0474                   22777732.8404
 -13181189.09847  -9922521.39845  22494551.7034                   22494553.0354
  -8188060.71947  -5618135.17244  22856001.5944   22856001.0124   24303541.44946
  19015642.82843                  24273880.2034                   24273879.0084
 11  8 24  3  1  0.0000000  0 10G26G21G29G12G15G05G02G25G30G18
  -1299949.21947   -977480.43045  21876650.6724   21876648.6844   19763870.13346
  15563644.39543                  24510188.9384                   24510188.1684
  -9338330.16048  -5476248.37146  21079471.7664                   21079469.3794
 -26313496.52746 -20277102.59844  23475820.2194                   23475818.8204
   7926236.68847   6212640.25045  22474534.2664                   22474533.0864
 -29459360.94148 -22822841.28145  21767935.7114                   21767933.5274
 -51463805.69147 -40046316.94545  22772305.2114                   22772302.0164
 -13198556.96947  -9936054.82845  22491246.7424                   22491248.1764
  -8198350.05147  -5626152.85944  22854043.4144   22854042.7584   24143718.76646
  18891105.81643                  24243467.0634                   24243465.9024
 11  8 24  3  1 30.0000000  0 10G26G21G29G12G15G05G02G25G30G18
  -1435140.20747  -1082824.03145  21850924.6954   21850923.1134   19630219.77746
  15459501.29343                  24484756.6644                   24484754.8674
  -9472332.60247  -5580665.83246  21053972.0704                   21053970.2074
 -26297637.14547 -20264744.70744  23478837.7034                   23478836.1134
   7762176.54347   6084801.22345  22443314.1804                   22443312.5274
 -29462159.59447 -22825022.05146  21767403.2894                   21767400.9774
 -51492233.59447 -40068468.59045  22766895.8204                   22766892.5864
 -13215568.34047  -9949310.46145  22488009.8594                   22488011.0704
  -8208334.29747  -5633932.80944  22852143.6024   22852142.6524   23984106.70746
  18766732.83643                  24213094.0784                   24213092.5984
 11  8 24  3  2  0.0000000  0 10G26G21G29G12G15G05G02G25G30G18
  -1569822.54747  -1187771.27745  21825295.6094   21825294.4694   19496537.27046
  15355333.16043                  24459316.8284                   24459315.6994
  -9605986.12547  -5684811.41046  21028538.5554                   21028536.1684
 -26281705.47747 -20252330.45744  23481869.5314                   23481868.0554
   7598356.64147   5957149.40645  22412140.2114                   22412139.6134
 -29464721.71947 -22827018.51646  21766915.7344                   21766913.7464
 -51520550.51647 -40090533.75445  22761507.2734                   22761504.3444
 -13232228.35547  -9962292.30545  22484839.5784                   22484840.4024
  -8218018.85247  -5641479.24644  22850300.7974   22850300.1454   23824703.74646
  18642522.84043                  24182759.6024                   24182759.1724
 11  8 24  3  2 30.0000000  0 10G26G21G29G12G15G05G02G25G30G18
  -1703986.82847  -1292314.84045  21799765.0944   21799763.5234   19362828.89146
  15251144.89843                  24433873.1484                   24433872.2274
  -9739281.89147  -5788678.21146  21003173.2734                   21003171.1174
 -26265698.07047 -20239857.20744  23484916.0314                   23484914.0004
   7434786.87947   5829692.49645  22381014.5944                   22381012.7624
 -29467043.19148 -22828827.45746  21766473.9064                   21766472.0084
 -51548749.16047 -40112506.76244  22756141.3674                   22756138.1174
 -13248533.17247  -9974997.39845  22481736.6724                   22481737.6054
  -8227400.14847  -5648789.37944  22848516.0394   22848515.0864   23665517.84446
  18518481.98443                  24152468.6884                   24152467.8164
 11  8 24  3  3  0.0000000  0 10G26G21G29G12G15G05G02G25G30G18
  -1837629.16847  -1396451.70345  21774333.4454   21774332.2664   19229095.23846
  15146936.89543                  24408424.5234                   24408423.2664
  -9872217.27047  -5892264.19546  20977876.4774                   20977874.0354
 -26249617.59446 -20227327.00444  23487975.7424                   23487973.9924
   7271470.35547   5702432.91045  22349936.2424                   22349934.5164
 -29469125.64148 -22830450.14146  21766077.8444                   21766076.0084
 -51576828.47347 -40134386.78545  22750797.6094                   22750794.6684
 -13264485.02747  -9987427.44545  22478701.1414                   22478702.3914
  -8236480.81247  -5655865.25844  22846787.8834   22846786.8364   23506550.47346
  18394611.41843                  24122218.2274                   24122217.1684
 11  8 24  3  3 30.0000000  0 10G26G21G29G12G15G05G02G25G30G18
  -1970751.07847  -1500183.03145  21749001.5944   21748999.5984   19095331.25846
  15042705.25443                  24382970.0004                   24382968.7734
 -10004794.09447  -5995570.78946  20952647.9064                   20952645.5944
 -26233471.18446 -20214745.44944  23491048.6094                   23491047.3954
   7108406.76247   5575370.41845  22318905.7424                   22318904.4264
 -29470976.02748 -22831892.01246  21765725.7504                   21765723.7424
 -51604792.23047 -40156176.76244  22745476.8444                   22745473.3134
 -13280091.30147  -9999588.19945  22475731.7114                   22475732.1374
  -8245268.32847  -5662712.68744  22845115.9774   22845114.3484   23347797.71946
  18270908.05543                  24092007.6254                   24092006.9774
 11  8 24  3  4  0.0000000  0 10G26G21G29G12G15G05G02G25G30G18
  -2103352.90647  -1603509.09845  21723768.1804   21723766.2194   18961532.74646
  14938446.71943                  24357509.2814                   24357507.8834
 -10137013.54747  -6098598.90646  20927487.4844                   20927485.7704
 -26217265.28546 -20202117.52744  23494131.7034                   23494131.3874
   6945595.02747   5448504.18445  22287923.8594                   22287921.9844
 -29472600.29348 -22833157.67246  21765416.5704                   21765414.2274
 -51632643.38747 -40177879.00845  22740177.4304                   22740173.5944
 -13295358.48047 -10011484.73045  22472826.4844                   22472827.4264
  -8253769.51247  -5669336.98044  22843497.8524   22843497.2584   23189257.37546
  18147370.19543                  24061838.1254                   24061838.3914
 11  8 24  3  4 30.0000000  0 10G26G21G29G12G15G05G02G25G30G18
  -2235426.00847  -1706423.17645  21698635.6024   21698633.4614   18827705.20746
  14834165.55543                  24332043.4304                   24332041.1954
 -10268867.43047  -6201342.16846  20902396.5164                   20902394.1484
 -26200996.90646 -20189440.92644  23497228.5004                   23497227.1134
   6783044.18047   5321841.23045  22256991.1564                   22256990.0394
 -29473994.89848 -22834244.38346  21765151.1334                   21765148.9534
 -51660375.84447 -40199488.74644  22734899.6884                   22734896.1914
 -13310283.43747 -10023114.59845  22469985.5004                   22469987.2504
  -8261981.46947  -5675735.94544  22841935.0314   22841934.3754   23030936.49246
  18024003.38743                  24031710.6724                   24031710.4804
 11  8 24  3  5  0.0000000  0 10G26G21G29G12G15G05G02G25G30G18
  -2366970.16447  -1808925.08645  21673603.3594   21673601.1644   18693845.74646
  14729859.55543                  24306569.5004                   24306568.7464
 -10400356.42247  -6303801.09846  20877374.8284                   20877372.4414
 -26184672.20746 -20176720.41844  23500334.4304                   23500333.5354
   6620754.33247   5195381.65645  22226109.2344                   22226107.5394
 -29475165.38348 -22835156.45746  21764928.5864                   21764926.1214
 -51687992.16847 -40221007.98044  22729644.1094                   22729641.1414
 -13324872.20347 -10034482.49245  22467209.6954                   22467211.3364
  -8269910.50447  -5681914.42244  22840426.2814   22840425.5044   22872833.36746
  17900806.22543                  24001624.2974                   24001623.2774
 11  8 24  3  5 30.0000000  0 10G26G21G29G12G15G05G02G25G30G18
  -2497984.19147  -1911013.90645  21648672.0554   21648670.5164   18559952.11746
  14625526.93043                  24281091.0314                   24281089.8714
 -10531479.67648  -6405975.03546  20852422.9064                   20852420.8324
 -26168296.16446 -20163959.92644  23503450.9774                   23503450.1524
   6458726.84847   5069126.51645  22195275.4774                   22195274.5594
 -29476115.77748 -22835897.04746  21764747.3834                   21764745.2934
 -51715493.44947 -40242437.57444  22724410.7584                   22724407.7114
 -13339129.31247 -10045591.96145  22464496.7894                   22464498.1094
  -8277561.27047  -5687876.09044  22838970.5704   22838969.5314   22714946.74246
  17777777.75843                  23971580.1174                   23971577.9454
 11  8 24  3  6  0.0000000  0 10G26G21G29G12G15G05G02G25G30G18
  -2628461.25447  -2012684.32845  21623843.0234   21623841.6374   18426027.64546
  14521170.23843                  24255606.0314                   24255604.1174
 -10662231.35547  -6507859.44146  20827541.7194                   20827539.4304
 -26151867.75846 -20151158.60544  23506577.1174                   23506576.5634
   6296968.96547   4943081.44945  22164494.2584                   22164492.6054
 -29476844.63748 -22836464.99246  21764608.9614                   21764606.8554
 -51742875.41047 -40263774.18744  22719200.4534                   22719197.0944
 -13353053.84047 -10056442.27745  22461847.3134                   22461847.6414
  -8284933.29747  -5693620.53144  22837567.8284   22837566.8404   22557281.26246
  17654921.63343                  23941577.2734                   23941575.0084
 11  8 24  3  6 30.0000000  0 10G26G21G29G12G15G05G02G25G30G18
  -2758399.69147  -2113935.02045  21599116.8054   21599114.8754   18292071.02746
  14416788.57443                  24230114.4694                   24230113.2934
 -10792610.33647  -6609453.44146  20802731.2584                   20802729.2704
 -26135390.78946 -20138319.46544  23509712.3834                   23509712.1914
   6135482.47347   4817247.85945  22133764.7194                   22133762.8164
 -29477355.41048 -22836863.01645  21764512.0164                   21764509.8094
 -51770138.61747 -40285018.25444  22714012.5554                   22714009.0744
 -13366649.94547 -10067036.66845  22459260.4774                   22459261.1454
  -8292030.84047  -5699151.11344  22836216.7974   22836215.8674   22399837.04346
  17532237.87943                  23911616.5944                   23911614.3204
 11  8 24  3  7  0.0000000  0 10G26G21G29G12G15G05G02G25G30G18
  -2887797.01247  -2214764.06245  21574493.0474   21574491.4654   18158081.54746
  14312381.22743                  24204617.2894                   24204616.2034
 -10922614.43047  -6710755.29346  20777992.5084                   20777990.4184
 -26118868.80146 -20125445.20744  23512856.4144                   23512856.5744
   5974269.87947   4691627.69945  22103087.5784                   22103084.9344
 -29477650.77748 -22837093.16445  21764455.7344                   21764452.8634
 -51797283.03147 -40306169.75844  22708846.8444                   22708843.5634
 -13379920.82047 -10077377.65245  22456734.8204                   22456735.8444
  -8298857.36747  -5704470.52044  22834917.9384   22834916.9844   22242614.51246
  17409726.91443                  23881697.6484                   23881696.5704
 11  8 24  3  7 30.0000000  0 10G26G21G29G12G15G05G02G25G30G18
  -3016652.20347  -2315170.68045  21549972.7194   21549971.3404   18024056.80546
  14207946.46943                  24179112.9454                   24179111.6214
 -11052243.76247  -6811765.14146  20753324.5084                   20753322.9264
 -26102306.88346 -20112539.84844  23516007.5634                   23516008.1644
   5813332.21947   4566221.76645  22072461.3834                   22072459.5164
 -29477735.66447 -22837159.30145  21764439.4924                   21764437.0634
 -51824310.21947 -40327229.91844  22703703.3444                   22703700.1024
 -13392871.76647 -10087469.32445  22454270.1484                   22454271.0554
  -8305418.39847  -5709583.03144  22833668.7894   22833668.8014   22085612.49646
  17287387.77043                  23851821.4844                   23851820.3204
 11  8 24  3  8  0.0000000  0 10G26G21G29G12G15G05G02G25G30G18
  -3144964.37547  -2415154.15645  21525555.5164   21525554.1804   17889994.59046
  14103482.48443                  24153602.4304                   24153600.5744
 -11181497.52047  -6912482.32446  20728728.2734                   20728726.4104
 -26085709.07846 -20099606.55944  23519166.1804                   23519166.1374
   5652670.88347   4441031.15245  22041888.5864                   22041886.5984
 -29477613.85947 -22837064.37545  21764463.0554                   21764459.5784
 -51851221.28947 -40348199.59444  22698582.4614                   22698579.2774
 -13405507.12547 -10097315.07045  22451865.7034                   22451866.4304
  -8311718.46146  -5714492.23044  22832470.5944   22832470.0434   21928830.32846
  17165219.90643                  23821987.0554                   23821985.2894
 11  8 24  3  8 30.0000000  0 10G26G21G29G12G15G05G02G25G30G18
  -3272724.08647  -2514707.14545  21501243.8134   21501242.0704   17755900.82046
  13998993.91043                  24128084.7814                   24128082.7504
 -11310367.12147  -7012900.18446  20704205.5864                   20704202.9844
 -26069072.97346 -20086643.40644  23522331.7814                   23522331.9924
   5492295.21147   4316063.14145  22011370.1024                   22011368.3364
 -29477281.37947 -22836805.29345  21764525.3284                   21764523.0824
 -51878009.71947 -40369073.71944  22693485.3834                   22693482.1524
 -13417823.82047 -10106912.50045  22449522.2584                   22449523.6054
  -8317754.73147  -5719195.85044  22831321.6174   22831320.9574   21772275.06346
  17043228.86743                  23792195.1254                   23792194.6764
 11  8 24  3  9  0.0000000  0 10G26G21G29G12G15G05G02G25G30G18
  -3399931.19148  -2613829.53545  21477036.9304   21477035.2894   17621772.85946
  13894478.68443                  24102560.8284                   24102558.8754
 -11438852.46147  -7113018.60546  20679755.5554                   20679753.0704
 -26052403.64146 -20073654.34844  23525504.4064                   23525503.9924
   5332205.80547   4191318.19545  21980906.0784                   21980904.1884
 -29476743.05547 -22836385.82845  21764628.9064                   21764625.8954
 -51904677.16447 -40389853.58244  22688410.4224                   22688407.3324
 -13429827.10547 -10116265.72745  22447237.5864                   22447239.6884
  -8323532.65246  -5723698.16444  22830222.2664   22830222.0004   21615945.39146
  16921413.61343                  23762447.2734                   23762445.5234
 11  8 24  3  9 30.0000000  0 10G26G21G29G12G15G05G02G25G30G18
  -3526583.59447  -2712519.67245  21452935.6644   21452934.2304   17487609.65246
  13789936.00043                  24077030.4064                   24077028.4694
 -11566952.67247  -7212836.93046  20655378.7274                   20655376.6604
 -26035704.75046 -20060642.28944  23528682.7034                   23528681.6684
   5172405.07447   4066798.20345  21950496.9534                   21950494.8634
 -29476002.30147 -22835808.60945  21764768.7974                   21764767.1484
 -51931224.42247 -40410539.78144  22683359.3364                   22683355.5314
 -13441520.94947 -10125377.80945  22445012.2664                   22445013.9024
  -8329056.43446  -5728002.44144  22829171.2584   22829170.8404   21459840.94546
  16799773.85243                  23732740.9384                   23732740.0704
 11  8 24  3 10  0.0000000  0 10G26G21G29G12G15G05G02G25G30G18
  -3652679.83247  -2810776.45345  21428940.4774   21428939.0514   17353409.68446
  13685364.63343                  24051493.0314                   24051491.3364
 -11694666.44147  -7312354.13346  20631075.4924                   20631073.5634
 -26018980.11746 -20047610.16443  23531865.1174                   23531864.3404
   5012894.64847   3942504.41845  21920142.9614                   21920141.2544
 -29475062.57047 -22835076.35545  21764948.1334                   21764945.8204
 -51957651.93047 -40431132.64844  22678329.9534                   22678326.6214
 -13452909.41447 -10134251.94945  22442845.1884                   22442846.5554
  -8334330.34047  -5732112.00844  22828168.1094   22828166.9184   21303961.86346
  16678309.69943                  23703078.3834                   23703077.1214
 11  8 24  3 10 30.0000000  0 10G26G21G29G12G15G05G02G25G30G18
  -3778216.28947  -2908597.03945  21405051.3914   21405049.9574   17219173.22346
  13580764.85243                  24025948.6724                   24025946.9844
 -11821990.75447  -7411567.85946  20606846.5004                   20606844.4924
 -26002232.24646 -20034559.92244  23535052.1174                   23535050.7384
   4853678.81647   3818440.18445  21889845.6644                   21889843.2894
 -29473925.21147 -22834190.10945  21765164.7274                   21765162.8324
 -51983958.46147 -40451631.25844  22673324.5394                   22673320.2234
 -13463994.71147 -10142889.84445  22440736.2274                   22440737.5314
  -8339356.77746  -5736028.74644  22827211.7344   22827210.6484   21148309.83646
  16557022.49243                  23673457.7974                   23673457.0394
 11  8 24  3 11  0.0000000  0 10G26G21G29G12G15G05G02G25G30G18
  -2327768.37547  -1778377.84045  21681062.8364   21681061.3054   18660322.33646
  14703738.26243                  24300189.7814                   24300188.6054
 -10373500.95747  -6282874.48446  20882484.6334                   20882483.1764
 -24410046.76646 -18793895.98443  23838034.8364                   23838033.3484
   6270183.46547   4922210.09445  22159396.6564                   22159395.4614
 -27897174.79747 -21605553.43045  22065210.1644                   22065208.1884
 -50434724.65247 -39244436.08644  22968133.1804                   22968130.0274
 -11899361.57047  -8923695.21945  22738475.9774                   22738477.2194
  -6768720.94547  -4512156.67644  23126093.3134   23126092.3794   22568308.57946
  17663515.10743                  23943674.1024                   23943673.3754
 11  8 24  3 11 30.0000000  0 10G26G21G29G12G15G05G02G25G30G18
  -2452178.92247  -1875321.08245  21657387.8754   21657386.9024   18526010.56346
  14599079.79343                  24274631.8914                   24274629.6564
 -10500041.14847  -6381477.21946  20858404.9454                   20858402.9494
 -24393262.84346 -18780817.69343  23841229.3444                   23841227.2074
   6111563.41847   4798610.10545  22129212.8594                   22129210.8404
 -27895651.32447 -21604366.30945  22065500.0084                   22065497.8554
 -50460789.21147 -39264746.15644  22963173.4224                   22963170.1804
 -11909851.35247  -8931869.10545  22736479.8134                   22736480.9614
  -6773263.83247  -4515696.62944  23125229.0004   23125228.4494   22413110.94546
  17542581.96143                  23914141.6804                   23914140.0514
 11  8 24  3 12  0.0000000  0 10G26G21G29G12G15G05G02G25G30G18
  -2576020.52047  -1971820.98445  21633821.9924   21633820.3984   18391662.85946
  14494393.31643                  24249065.6094                   24249063.7344
 -10626184.11348  -6479770.41846  20834401.1644                   20834399.0084
 -24376463.17646 -18767727.10243  23844425.4064                   23844424.1054
   5953247.93847   4675247.44945  22099086.3984                   22099084.3984
 -27893936.46547 -21603030.05145  22065825.9534                   22065824.4964
 -50486730.16447 -39284959.91444  22958236.9224                   22958234.2234
 -11920045.80547  -8939812.86345  22734540.2664                   22734540.8634
  -6777567.78446  -4519050.35344  23124409.8834   23124408.6724   22258143.86746
  17421828.44543                  23884651.3984                   23884651.4844
 11  8 24  3 12 30.0000000  0 10G26G21G29G12G15G05G02G25G30G18
  -2699292.75447  -2067877.23045  21610363.8134   21610362.8164   18257276.19946
  14389676.48843                  24223493.1564                   24223490.7934
 -10751929.84447  -6577754.08646  20810472.2974                   20810470.0944
 -24359653.15247 -18754628.45743  23847624.8984                   23847623.3364
   5795237.44147   4552122.44945  22069017.5474                   22069015.6954
 -27892034.82447 -21601548.23445  22066188.0394                   22066185.7424
 -50512549.60947 -39305078.99244  22953323.3134                   22953320.4574
 -11929950.51247  -8947530.85245  22732655.3754                   22732656.5044
  -6781638.37147  -4522222.25844  23123635.1334   23123634.6414   22103405.57046
  17301253.18843                  23855205.9144                   23855204.9534
 11  8 24  3 13  0.0000000  0 10G26G21G29G12G15G05G02G25G30G18
  -2821990.34047  -2163485.69545  21587015.1024   21587013.6684   18122853.00046
  14284931.17643                  24197912.7504                   24197911.6094
 -10877273.47348  -6675424.43046  20786620.3594                   20786618.0434
 -24342832.93046 -18741521.87143  23850825.3674                   23850825.0164
   5637537.80147   4429239.66845  22039008.4534                   22039006.6764
 -27889945.86347 -21599920.45745  22066585.5004                   22066583.3754
 -50538244.12547 -39325100.71544  22948434.0784                   22948431.4454
 -11939565.71147  -8955023.25445  22730825.6024                   22730826.5594
  -6785476.19547  -4525212.79744  23122905.2344   23122904.2894   21948899.58646
  17180859.00043                  23825805.0084                   23825803.7154
 11  8 24  3 13 30.0000000  0 10G26G21G29G12G15G05G02G25G30G18
  -2944112.77347  -2258645.99245  21563775.8984   21563774.3554   17988391.18446
  14180155.79343                  24172325.0474                   24172323.6094
 -11002214.52747  -6772781.08646  20762844.6174                   20762842.7974
 -24326006.84046 -18728410.69943  23854027.7504                   23854026.0784
   5480150.36347   4306600.15245  22009058.8054                   22009056.1684
 -27887673.73047 -21598149.95745  22067017.9614                   22067015.6844
 -50563815.00847 -39345026.09844  22943568.6254                   22943565.1684
 -11948896.31647  -8962293.89145  22729050.1414                   22729051.0124
  -6789086.23047  -4528025.84444  23122218.3674   23122217.5634   21794625.03546
  17060645.11743                  23796448.4774                   23796446.5744
 11  8 24  3 14  0.0000000  0 10G26G21G29G12G15G05G02G25G30G18
  -3065655.91047  -2353354.88345  21540646.8284   21540645.7544   17853891.68846
  14075351.01643                  24146731.3364                   24146729.0704
 -11126749.72747  -6869821.48846  20739146.3834                   20739144.2034
 -24309177.28147 -18715296.80144  23857230.3204                   23857228.8794
   5323079.16047   4184207.05545  21979169.0554                   21979166.7384
 -27885219.91047 -21596237.89545  22067484.6414                   22067482.5084
 -50589260.59447 -39364853.84044  22938727.3204                   22938723.2114
 -11957944.18047  -8969344.21145  22727328.2974                   22727329.3524
  -6792470.55947  -4530663.00044  23121574.7664   23121573.4804   21640583.92246
  16940613.16043                  23767134.7894                   23767133.3874
